GFSNE_prec_radar_003.txt.gz
Reflectivity
2 28 27 27 26 23 24 24 26 22 8 -2 -20 -20 -19 -20 -10 -20 -20 -20 -20 -17 -20 -20 -20 -20 -20 -20 -20 -20 -20 -20 -20 -20 -20 -20 -20 -20
-20 -20 -12 8 22 24 25 26 28 18 18 7 -20 -14 3 1 -19 -20 -20 22 -16 -20 14 -7 -18 19 12 15 -13 -20 -20 -20 -20 -20 -20 -20 -20 -20
-20 -20 -20 -20 4 -20 23 25 23 24 24 -16 -20 -20 -20 -20 -20 -20 -1 -3 7 16 15 13 6 27 26 22 23 -20 -20 -20 -20 -20 -20 -20 -20 -20
-20 -20 -20 -20 -20 -8 24 23 27 28 29 24 -13 -11 -12 -20 -20 -19 -15 -20 -5 25 17 22 -19 24 30 22 22 -10 -20 -4 -20 -20 -20 -20 -20 -20
-20 -20 -20 -20 -20 -20 -20 -18 -20 -18 27 29 26 6 -6 19 24 -11 -8 -20 -20 -2 25 10 14 28 25 24 19 17 -14 -20 -20 -20 -20 -20 -20 -20
-20 -20 -20 -20 8 -20 1 8 -19 3 6 24 26 20 23 -7 9 17 9 -18 9 10 6 41 18 29 15 34 28 10 31 -20 -20 -20 -20 -20 -20 -20
-20 -20 -20 -20 6 -14 15 -4 24 20 16 11 19 23 27 36 11 37 31 18 16 16 -15 31 18 8 35 30 19 35 -2 -20 -20 -20 -20 -20 -20 -20
-20 -20 -20 -20 -20 5 17 10 21 18 18 13 13 16 -6 24 35 44 9 33 43 24 12 8 33 25 39 37 21 16 2 -20 -20 -20 -20 -20 -20 -20
-20 -20 -20 -20 -20 -16 -20 -20 -20 -14 7 16 18 5 19 -5 25 20 12 15 28 26 41 18 34 25 33 37 22 26 -3 -20 -20 -20 -20 -20 -20 -20
-20 -20 -20 -20 -20 -18 8 -14 -20 -6 -3 7 15 11 8 26 22 19 15 34 41 35 33 30 27 31 32 18 33 6 -20 -20 -20 -20 -20 -20 -20 -20
-20 -20 -20 -20 -20 -20 5 11 -6 -20 -0 -2 -20 -20 -4 7 17 29 24 27 24 33 33 36 30 29 34 31 18 -14 -20 -20 -20 -20 -20 -20 -20 -20
-20 -20 -20 -20 -20 -20 -8 -2 -16 -3 -19 -19 -20 -5 -20 -15 14 31 26 23 34 38 33 34 35 30 29 27 5 -20 -20 -20 -20 -20 -20 -20 -20 -20
-20 -20 -20 -20 -20 -7 14 -18 5 15 11 -3 -20 -15 -17 -13 23 17 27 26 33 33 30 36 34 33 9 9 -5 -20 -20 -20 -20 -20 -20 -20 -20 -20
9 -20 -20 -20 -20 -3 3 13 13 10 -12 -9 -6 -3 7 2 18 27 32 34 29 33 39 36 39 23 -4 -18 -20 -20 -20 -20 -20 -20 -20 -20 -20 -20
-2 -20 -20 -8 11 8 9 11 11 -13 2 11 17 12 19 31 29 21 20 26 25 25 25 27 32 14 -20 -20 -20 -20 -20 -20 -20 -20 -20 -20 -20 -20
-20 -19 -9 0 20 20 7 7 -20 0 17 22 4 8 15 21 20 22 22 23 28 28 27 19 -13 -20 -20 -20 -20 -20 -20 -20 -20 -20 -20 -20 -20 -20
4 8 -20 -20 -4 11 2 -5 -14 -18 -17 6 13 4 4 18 24 24 25 27 26 24 17 -15 -20 -20 -20 -20 -20 -20 -20 -20 -20 -20 -20 -20 -20 -20
6 -14 -18 -5 2 -2 13 2 -4 6 -19 -3 6 6 5 8 22 24 26 26 25 17 -19 -20 -20 -20 -20 -20 -20 -20 -20 -20 -20 -20 -20 -20 -20 -20
8 -19 -18 -11 -15 -6 7 7 -7 -8 -13 3 17 17 20 22 23 23 22 21 17 1 -20 -20 -20 -20 -20 -20 -20 -20 -20 -20 -20 -20 -20 -20 -20 -20
5 -10 -20 -15 -20 4 14 16 19 1 7 16 15 20 18 20 23 20 19 8 -7 -20 -20 -20 -20 -20 -20 -20 -20 -20 -20 -20 -20 -20 -20 -20 -20 -20
8 -12 -2 -18 -15 0 8 19 16 16 17 18 22 23 21 23 25 23 10 -12 -20 -20 -20 -20 -20 -20 -20 -20 -20 -20 -20 -20 -20 -20 -20 -20 -20 -20
9 7 -20 -20 8 -13 3 11 16 18 21 20 16 18 21 25 22 13 -19 -20 -20 -20 -20 -20 -20 -20 -20 -20 -20 -20 -20 -20 -20 -20 -20 -0 -14 -20
5 -2 -12 -14 -20 -16 8 11 17 18 11 14 16 17 20 17 6 -20 -20 -20 -20 -20 -20 -20 -20 -20 -20 -20 -20 -20 -20 -20 -20 -20 -20 -20 -20 3

GFSNE_prec_radar_006.txt.gz
Reflectivity
-20 -20 -20 -20 -20 -20 -0 21 21 20 6 1 14 -16 -5 11 8 15 15 -15 -3 -11 -20 -20 -20 -20 -20 18 25 30 28 -20 -20 -20 -20 -20 -20 -20
-20 -20 -20 -20 -20 -20 -7 12 20 26 18 6 5 19 -4 -15 -17 12 4 17 -1 -20 -20 -20 -20 -20 -20 -7 20 11 25 22 -13 -20 -20 -20 -20 -20
-20 -20 -20 -20 -20 -20 -20 -20 -12 12 24 -20 7 -2 22 17 15 -1 6 5 -3 -20 -20 -20 -20 -12 6 -9 -17 15 14 17 -17 14 16 6 -20 -20
-20 -20 -20 -20 -20 -20 -20 -16 -5 -12 18 7 -20 -1 -1 19 -5 13 -7 -20 -6 -20 -4 -7 -20 20 17 -1 -5 32 22 28 7 14 14 14 16 -18
-20 -20 -20 -20 -20 -20 -20 -3 -5 0 7 8 -16 -5 -0 8 7 9 18 14 16 32 34 24 -11 -10 20 27 29 13 17 32 15 35 15 -1 -16 -20
-20 -20 -20 -20 -20 -20 -20 -6 -7 9 11 13 15 7 -18 -20 20 11 12 -20 -20 18 29 29 17 17 24 27 36 33 31 33 37 34 21 13 12 -19
-20 -20 -20 -20 -20 -5 -16 -20 -19 -2 -17 8 6 12 19 16 6 -7 7 8 -20 31 38 30 27 13 25 34 40 26 23 24 35 36 31 9 -14 -20
-20 -20 -20 -20 -20 -20 -20 -20 -19 9 12 9 -20 2 -5 9 6 7 21 13 11 -20 16 33 29 15 29 27 34 23 34 36 35 33 16 22 -20 -19
-20 -20 -20 -20 -20 -20 -20 -20 -20 -15 10 11 15 16 14 -3 16 23 -9 16 21 19 17 29 21 21 35 28 37 35 36 34 35 33 23 -9 -20 -20
-20 -20 -20 -20 -20 -20 -20 -20 -20 -20 -15 -1 0 3 -15 -20 7 -2 11 3 3 25 17 21 11 17 13 19 34 34 37 35 35 25 11 -20 -12 -20
-20 -20 -20 -20 -20 -20 -20 -11 -20 -18 -20 18 17 10 -7 9 11 10 14 11 8 17 19 37 16 -9 22 31 33 33 36 37 27 17 -17 -3 -4 -20
-20 -20 5 4 -20 -20 -12 -17 -4 -10 3 -1 -20 -13 5 12 17 9 17 26 22 25 27 31 24 25 24 22 26 34 37 33 17 -19 -2 -1 -2 -20
3 6 -20 -20 -20 -20 -3 9 10 13 9 -8 -20 -20 10 -18 -13 -12 -4 27 13 34 28 31 25 25 24 21 27 25 22 11 -2 -20 -20 -18 -20 -20
7 -7 -20 -6 2 9 10 14 14 14 11 14 -20 -15 -6 3 8 3 8 19 24 25 22 27 17 15 24 27 27 19 -5 -20 -15 -8 -20 -20 -20 -20
5 10 -4 12 3 9 8 8 13 17 4 -4 -8 -8 -11 10 -14 9 21 21 15 16 14 19 27 25 28 27 18 10 -1 11 -9 -20 -20 -20 -20 -20
5 -20 8 -3 -20 -7 -20 -16 0 13 20 19 -1 -8 -14 7 4 17 24 22 18 20 23 24 23 22 21 17 7 10 8 -17 -20 -20 -20 -20 -20 -20
-20 -20 -12 -15 -20 -20 -20 -4 1 -14 4 -6 -4 -14 -16 11 13 23 26 24 22 19 20 22 19 13 5 2 -8 -19 -20 -20 -20 -20 -20 -20 -20 -20
-16 -9 -1 -20 -2 -20 -20 -19 2 -15 -4 -11 -13 -5 6 11 15 21 26 22 20 17 18 16 10 -2 -19 -20 -20 -20 -20 -20 -20 -20 -20 -20 -20 -20
-20 9 -0 -2 3 2 -20 -16 -17 -18 20 11 10 -7 -1 12 18 21 23 20 21 17 14 6 -20 -20 -20 -20 -20 -20 -20 -20 -20 -20 -20 -20 -20 -20
-20 6 -2 -2 -20 -15 -18 -16 -16 7 12 17 17 16 15 16 18 21 21 16 14 7 -19 -20 -20 -20 -20 -20 -20 -20 -20 -20 -20 -20 -20 -20 -20 -20
-2 -18 -20 -4 -19 -12 -20 -18 1 17 19 20 16 18 19 18 21 19 16 13 0 -20 -20 -20 -20 -20 -20 -20 -20 -20 -20 -20 -20 -20 -20 -20 -20 -20
-15 -9 -20 -6 5 -20 -19 -19 12 17 17 16 16 20 17 18 16 14 11 4 -19 -20 -20 -20 -20 -20 -20 -20 -20 -20 -20 -20 -20 -20 -20 -20 -20 -20
-20 -8 -20 -19 -19 -20 -20 1 16 18 18 18 21 18 16 17 11 1 -20 -20 -20 -20 -20 -20 -20 -20 -20 -20 -20 -20 -20 -20 -20 -20 -20 2 -20 -20

GFSNE_prec_radar_009.txt.gz
Reflectivity
-20 -20 -20 -20 -20 -20 -20 17 19 15 -12 -4 10 4 8 9 15 -20 -20 -20 27 -16 17 23 8 -20 -20 -20 -20 -20 -20 22 27 24 28 14 26 -13
-20 -20 -20 -20 -20 -20 3 10 12 19 12 -12 -9 -14 -2 2 -17 17 -20 -20 -20 -17 22 27 30 28 3 -16 -15 -15 -20 -20 14 23 25 19 24 5
-20 -20 -20 -20 -20 -20 -20 -20 -20 -1 20 -18 -15 -18 -2 7 1 14 -13 6 -20 -20 -20 -5 18 28 28 15 19 -3 -14 20 19 21 24 11 21 14
-20 -20 -20 -20 -20 -20 -20 -20 -20 -20 11 8 -20 -20 -8 5 12 12 21 10 -19 -20 -20 -20 -20 7 24 22 2 -18 17 -19 20 21 19 7 18 23
-20 -20 -2 -20 -20 -20 -20 -14 -20 -20 -20 -5 4 -19 -20 7 13 11 17 -15 8 11 -17 -20 -4 -20 10 28 37 -7 13 17 14 23 11 27 31 40
-20 -14 -20 -20 -20 -20 -14 -20 -20 -20 -16 -3 -3 -9 -6 -13 11 7 9 1 20 -20 11 -20 -20 -20 -19 23 38 10 15 15 38 33 36 27 22 26
-20 -20 -20 -20 -20 -20 -17 -20 -20 -20 -1 -16 2 2 -9 -2 3 10 10 6 -1 5 -15 -20 -20 -20 -20 -20 3 38 33 14 25 40 38 31 34 35
-20 -20 -20 -20 -20 -20 -20 -20 -20 -20 -20 2 2 4 2 5 9 15 11 -4 -9 -17 10 11 -20 -20 -20 -16 10 28 25 26 33 31 32 32 34 34
-20 -20 -20 -20 -20 -19 -20 -20 -20 -20 -20 -7 6 2 -11 -3 7 7 6 14 0 -16 7 -7 -16 -20 -20 11 28 19 32 31 33 35 33 33 34 31
-20 -20 -20 -20 -20 2 2 -20 -20 -20 -20 -20 6 10 11 4 19 25 10 17 11 -17 -19 -6 -20 -10 -20 8 28 23 25 27 28 32 34 30 35 37
-20 -20 -20 -18 -4 4 6 5 -20 -20 -20 9 12 9 11 -1 6 13 11 23 24 4 -9 -9 -16 9 -5 10 29 32 30 32 29 29 30 35 34 25
7 -18 -20 -20 -20 8 6 4 25 18 20 5 -20 -18 -9 8 13 8 11 15 8 14 -6 13 2 12 -2 23 34 36 32 34 31 33 32 32 27 27
-2 -20 -20 2 13 -8 7 10 9 17 -2 -10 -16 -13 -20 -12 -3 -9 -3 21 24 20 16 23 17 26 11 25 19 24 32 36 34 32 31 28 20 10
6 6 5 3 1 4 -16 0 3 8 -7 4 -20 -17 -16 -3 -15 -6 -6 13 23 16 13 27 17 16 15 19 22 24 26 24 25 31 26 21 18 17
12 11 -18 -18 -1 -20 -20 5 7 -9 6 -1 -1 -3 2 -8 -4 -20 -10 -3 4 16 18 19 17 23 24 22 23 21 24 21 20 18 13 10 -14 -19
16 -20 -20 -20 -20 -20 -20 -2 2 1 -1 -0 6 -10 -5 -18 -18 -2 -3 12 20 19 16 22 23 22 21 25 24 22 21 16 15 16 10 -12 -20 -20
-6 -20 -20 -20 -20 -20 -11 1 -20 -20 -19 -20 9 8 -10 -20 -20 3 16 21 21 16 21 21 22 21 18 19 20 19 19 15 9 3 -15 -20 -20 -20
-19 -20 -20 -2 -20 1 3 -6 -20 -20 -20 0 9 -3 -18 -7 6 17 20 22 20 19 21 22 21 20 20 16 12 5 -5 -13 -20 -20 -20 -20 -20 -20
-20 -20 -5 -20 -20 -20 -20 -19 -17 -20 3 11 14 13 9 6 13 15 21 22 22 22 20 18 17 12 6 0 -12 -16 -20 -20 -20 -20 -20 -20 -20 -20
5 -4 -18 -15 -20 -20 -20 -18 -18 -11 8 10 16 13 11 13 16 18 22 22 18 17 15 8 -0 -14 -20 -20 -20 -20 -20 -20 -20 -20 -20 -20 -20 -20
6 -20 2 4 -20 -20 -20 -18 -10 9 16 17 18 18 15 16 17 20 21 19 14 7 -13 -20 -20 -17 -20 -20 -20 -20 -20 -20 -20 -20 -20 -20 -20 -20
-3 -16 3 -18 -20 -20 -20 -15 -0 12 14 16 19 20 19 19 19 20 16 15 11 2 1 -10 -20 -20 -20 -20 -20 -20 -20 -20 -20 -20 -20 -20 -20 -20
-20 -15 -20 -20 -20 -20 -18 -7 11 14 17 21 21 19 21 16 13 16 16 12 8 4 -7 -20 -20 -20 -20 -20 -20 -20 -20 -20 -20 -20 -20 -7 -20 -20

GFSNE_prec_radar_012.txt.gz
Reflectivity
-20 -20 -20 -20 -20 -20 -12 19 15 6 -20 -20 -20 -20 -17 -20 -20 -20 -2 -1 -19 -20 -0 12 13 25 30 30 19 5 14 2 22 19 20 7 27 23
-20 -20 -20 -20 -20 -20 -0 -20 -20 2 5 -20 -20 -20 -20 -20 -20 -11 -19 -13 -20 -20 -20 -20 -20 -19 -17 21 28 30 23 12 18 21 -4 0 -20 7
-20 -20 -20 -20 -20 -20 -20 -20 -20 -20 15 -19 -20 -20 -20 -20 -8 9 8 8 10 -9 -20 6 -20 -20 -20 -20 12 21 32 31 21 28 20 21 -2 -20
-20 -20 -20 -7 -20 -20 -20 -20 -20 3 -19 -16 -20 -20 -20 -20 -20 -20 -20 1 -17 -6 13 -20 22 5 -16 -20 -13 -19 2 34 26 26 23 22 21 -20
-20 -20 -20 -20 -20 -20 -20 -20 -0 -5 -20 -20 -20 -20 -20 -20 -20 -16 -20 -20 -20 9 -0 13 14 -9 -20 -20 -20 -18 -9 0 21 41 27 29 28 4
-20 -20 -20 -20 -20 -20 -20 -20 10 3 -13 5 6 -20 -20 -20 -20 -20 -20 -20 -20 -20 -7 -0 -20 -20 -20 -20 -18 6 2 7 -20 -5 23 28 25 31
-20 -20 -20 -20 -20 -20 -20 -16 5 11 10 13 9 -8 -12 -20 -20 -10 0 -20 -6 -12 -20 -20 -20 -20 -20 -20 -20 -20 -19 -20 -20 12 19 30 21 36
-20 -20 -20 -20 -20 -20 -20 -0 7 9 6 5 8 1 -14 -4 -12 -3 18 4 -5 -10 5 -7 -15 -2 -20 -20 -20 -20 -20 -20 -20 -9 7 20 30 30
-20 -20 -20 -20 -20 -16 -13 4 5 -5 7 -2 2 -5 -18 -20 11 11 -12 6 -5 -4 5 -18 -7 8 14 -1 12 -20 -15 -15 -7 11 2 29 33 34
-20 -20 -10 -17 -20 3 3 3 -5 -20 -20 7 -1 26 28 32 22 5 9 1 -16 -7 14 15 0 8 8 -18 17 -16 -20 -2 -14 6 27 25 29 34
-20 -20 11 -20 -2 9 2 -15 -20 -20 -12 -18 12 18 8 -9 -3 -8 13 19 21 -1 -19 -11 -7 -20 -20 -20 -20 -20 -20 2 14 22 28 29 31 33
-19 5 -20 5 7 10 -3 4 1 -20 -19 -17 -18 -19 -20 -8 5 3 28 22 14 3 -20 9 1 -1 8 -5 -20 -16 7 23 23 24 30 32 30 34
-4 -20 -20 4 13 -20 -5 -8 -1 -3 -4 -2 -20 -9 -18 -20 -3 21 24 31 18 -3 -18 14 19 -8 -10 -12 -1 10 9 24 31 30 32 33 32 27
-7 -20 11 22 -20 -20 -6 3 3 5 -20 -20 -10 2 3 3 -3 13 17 19 15 8 -19 -20 15 -5 -17 3 9 12 20 25 34 32 34 31 29 27
-20 14 -5 -20 -20 -20 -20 -7 -9 -15 -0 -14 -19 -5 -20 -4 -4 -15 -19 -20 -18 -14 -20 -20 -14 0 8 11 11 18 23 24 25 30 31 31 28 28
7 16 -20 -20 -20 -20 -20 -20 -20 -14 -17 0 2 -20 -20 -20 -19 -20 -14 -20 -18 -11 -6 -4 0 12 10 8 12 15 19 20 22 21 19 19 21 18
1 -20 -20 -20 -20 -20 -20 -20 -20 -20 -9 -16 -19 -20 -20 -0 -19 -20 -13 -18 -9 10 5 -5 7 13 12 13 18 20 21 20 23 21 19 17 14 4
-20 -20 -20 -20 -20 -20 -20 -20 -20 -20 -17 -20 -15 -20 -20 6 -20 -19 -1 8 11 11 10 9 12 12 13 17 22 22 23 20 19 15 11 7 3 5
-20 4 -14 -20 -20 -20 -20 -20 -20 -20 -12 3 4 7 -0 -2 -6 -0 10 12 12 14 13 13 13 13 10 12 14 13 10 8 7 6 4 1 -6 -18
-10 -1 -15 -15 -20 -20 -20 -20 -19 -11 2 3 11 7 14 8 5 10 14 12 14 16 14 9 10 10 9 9 8 6 1 -3 -11 -19 -20 -20 -20 -20
0 2 4 -17 -9 -20 -20 -19 -12 12 13 14 12 13 14 14 11 13 14 12 10 12 10 9 7 3 -11 -20 -20 -20 -20 -20 -20 -20 -20 -20 -20 -20
-15 1 -9 -15 -20 -20 -19 -12 9 6 12 10 9 17 16 16 13 10 9 8 11 10 4 -5 -12 -20 -20 -20 -20 -20 -20 -20 -20 -20 -20 -20 -20 -20
-19 -20 -20 -20 -20 -20 -17 2 9 12 13 17 15 16 8 7 3 0 -1 -2 -3 -10 -14 -20 -20 -20 -20 -20 -20 -20 -20 -20 -20 -20 -20 -20 -20 12

GFSNE_prec_radar_015.txt.gz
Reflectivity
-20 -20 -20 -20 -20 -20 -9 19 12 16 -20 -20 -20 -20 -5 -20 -20 -20 -20 -20 -20 -20 6 -20 -3 5 5 -20 20 18 27 42 23 24 23 22 24 20
-20 -20 -20 -20 -20 -18 -17 -20 -8 -20 -18 -20 -20 -14 -20 -20 -20 -20 -20 -20 -20 -20 -20 -17 11 -1 12 7 -5 -15 7 17 32 27 23 21 21 22
-20 -20 -20 -20 -20 -20 -20 -20 -20 -20 -20 -20 -20 -20 -20 -20 -20 -20 -20 -20 -20 -20 -20 -20 -13 7 10 6 -1 -20 13 15 21 35 30 34 30 25
-20 -20 -20 -20 -20 -20 -20 -20 -20 -20 -7 9 14 -20 -20 -20 6 -8 -20 -20 -20 -20 -20 7 -20 -20 -20 8 2 -10 -18 7 -2 18 21 40 37 24
-20 -20 -20 -20 -20 -20 -20 -20 4 3 10 13 9 4 9 9 4 -0 6 -20 -20 -20 -20 -20 -19 -20 -20 -4 -1 -9 -2 10 -7 14 17 11 23 33
-20 -20 -20 -20 -20 -20 -20 6 6 9 8 6 7 -4 1 -17 3 -3 -3 -20 -20 -20 -8 11 -20 -20 -20 -20 -18 -0 -9 -12 -14 -6 7 7 16 23
-20 -20 -20 -20 -20 -1 9 8 11 16 14 13 7 14 6 -1 -19 -20 -0 -2 3 20 -18 -20 -2 -20 -11 -17 3 14 -3 -18 -8 -20 -5 7 5 11
-20 -20 -20 -20 -20 10 6 -14 10 18 14 22 15 15 4 5 8 9 13 5 22 7 -20 2 -6 5 -20 -20 -20 -20 -20 7 3 0 -1 5 3 -0
-20 -20 -20 4 8 1 6 12 17 -8 -20 9 13 13 14 -13 11 15 27 29 12 -17 3 -18 -18 4 -2 -13 -6 -20 -20 -16 4 9 -5 4 6 -15
-20 -20 1 11 -3 5 5 25 -20 -20 -15 9 8 8 13 13 18 19 10 10 8 -11 -7 9 7 -6 -8 14 10 5 8 0 -16 -1 -12 -6 -3 -20
-19 -20 14 -19 -18 6 30 -15 -20 -20 -19 -20 5 6 6 0 8 13 11 12 3 -10 11 13 -15 13 4 -15 -14 9 -20 -20 -20 -16 -1 8 -17 5
-1 12 -20 -20 5 18 3 -18 -2 -20 3 3 -6 -20 -20 -20 4 7 15 19 11 5 9 15 2 3 6 -11 -20 -20 -20 -18 -20 -20 4 15 12 1
13 -9 -20 -17 27 -6 -9 -20 -1 4 -8 -20 -20 -13 -0 0 7 3 20 21 18 11 4 18 8 -17 8 4 -20 -20 11 20 -12 19 25 17 12 17
8 -7 -17 21 -15 -20 -20 -9 6 4 -20 3 5 5 8 5 3 3 -1 14 20 10 14 1 10 -5 3 2 -14 -20 22 22 8 5 15 25 25 30
7 15 10 -19 -20 -20 -20 -20 -18 -2 4 6 6 6 6 -16 -2 5 -7 9 -18 -8 10 -12 -1 -19 3 3 -11 -15 16 21 23 15 21 26 31 33
17 -20 -20 -20 -20 -6 -20 -20 -1 3 3 5 5 7 3 3 4 -2 8 5 10 -17 -3 -6 -10 5 2 3 2 -2 14 18 23 19 18 24 29 30
-7 -20 -20 2 -20 -20 -20 -6 -10 -20 -17 -20 4 5 3 -20 -9 -3 10 8 8 4 -1 6 7 8 7 6 -3 9 15 19 20 19 14 11 15 15
-19 -20 -5 8 5 3 1 3 -20 -20 -18 -9 4 -2 -11 2 -6 9 3 10 11 11 12 9 3 6 10 10 13 14 18 19 19 19 17 13 13 18
-20 2 7 6 6 5 -19 -20 -19 -20 -5 4 3 5 7 -4 12 8 10 10 10 13 10 10 5 10 17 17 18 19 12 17 18 20 18 15 14 14
4 9 7 7 6 5 -17 -18 -4 -9 1 7 10 11 9 15 11 12 11 11 13 11 7 10 11 8 8 10 12 12 8 13 12 12 12 11 10 9
8 7 7 6 6 -11 -20 -8 -1 10 15 12 10 11 15 15 12 9 7 8 -4 -2 3 2 4 3 -3 -11 -13 -7 -5 -4 -5 -5 -7 -10 -14 -16
7 7 5 5 4 -20 -6 5 5 8 12 12 15 -1 2 2 3 1 -5 -16 -20 -19 -19 -19 -20 -18 -19 -19 -20 -17 -9 -9 -12 -13 -17 -19 -20 -20
7 8 5 -14 -20 -20 -5 8 10 11 11 9 4 0 -20 -20 -20 -20 -20 -20 -20 -20 -20 -20 -20 -20 -20 -20 -20 -20 -20 -20 -20 -20 -19 -20 -20 -20

GFSNE_prec_radar_018.txt.gz
Reflectivity
-20 -20 -20 -20 -20 -20 -20 -20 1 -17 -19 -20 -20 -20 -20 -20 -20 -20 -20 -20 -20 -20 -20 -20 -20 -20 -20 -11 -14 -20 3 5 19 29 29 7 36 38
-20 -20 -20 -20 -20 -20 -20 -20 -20 -20 -10 -20 -20 -20 -20 -20 -20 -20 -20 -20 -20 -20 -20 -20 -17 -20 -20 -20 -13 1 -9 -2 3 21 12 17 20 31
-20 -20 -20 -20 -20 -20 -20 -20 -20 -20 -4 -20 -20 -20 -20 -20 -20 -20 -20 -20 -20 -20 -20 -16 -20 -20 -20 -15 -20 -20 0 -5 0 9 15 18 18 20
-20 -20 -20 -20 -20 -20 -20 -20 -20 -20 -2 11 -20 -20 -20 -20 -20 -1 -20 -20 -20 -20 -20 -20 -20 -20 -20 -20 2 -20 -20 -20 -20 -10 -16 -19 14 28
-20 -20 -20 -20 -20 -20 -20 -20 -16 2 5 13 -5 -20 -20 -20 -16 -20 -20 -20 -20 -20 -20 -20 -20 -20 -20 -20 -20 -20 -20 -20 -20 -20 -0 3 -20 20
-20 -20 -20 -20 -20 -20 -17 -10 9 10 -3 11 12 6 2 -20 -12 -7 -20 -20 1 -20 -20 -20 -11 -9 -15 -20 -20 -20 10 -8 -13 5 4 14 1 -20
-20 -20 -20 -20 -20 -7 -3 6 9 -10 10 15 14 -6 -20 -20 -2 -12 14 -11 -20 -18 10 11 18 19 9 -20 -20 -20 -20 -20 7 3 -4 -3 -20 -18
-20 -20 -20 -20 -20 -4 -17 9 -5 7 15 20 13 2 -2 9 7 5 3 8 9 -20 15 2 2 -6 -20 -20 -20 -20 -20 -20 -9 -15 -20 7 4 -7
-20 -20 -20 -20 -14 -6 -20 -20 10 21 6 6 7 7 10 3 8 11 15 19 12 -20 16 8 -18 8 -14 -20 -16 -16 4 -14 12 9 -10 4 -3 1
-20 -20 -20 -20 -5 -8 -3 9 19 1 -20 -20 1 7 13 15 14 11 13 13 1 6 11 16 9 -13 1 -10 -18 7 3 9 20 18 7 -8 -20 -20
-20 -20 -9 -9 -16 -20 11 27 8 -20 -20 -20 7 6 -16 -17 2 8 13 13 13 8 12 17 12 17 5 2 -20 -20 -1 -16 -20 -20 -20 -20 3 7
-19 5 -8 3 -19 13 15 2 8 -20 -0 7 3 -20 -20 -5 -1 2 13 16 12 8 12 23 17 9 9 -18 3 -20 -20 -0 -20 -20 -20 -2 3 -1
13 9 -10 2 14 -4 -20 1 6 4 -5 1 -15 -3 -8 1 5 8 9 15 14 8 10 14 14 12 15 9 -20 -6 -20 -20 -2 9 -8 -20 -16 11
8 6 3 13 -20 -20 -8 0 -19 1 0 3 5 5 7 6 5 7 1 3 4 9 2 15 15 14 8 7 3 -10 0 -1 28 2 -14 17 23 24
7 11 13 -19 -20 -20 6 -1 -2 -1 5 9 10 8 6 4 3 7 4 -5 -2 -5 3 6 6 -0 3 5 2 -2 18 23 28 7 5 7 14 11
13 11 -20 -16 -20 -4 -19 -20 -6 1 5 9 10 8 6 2 7 4 8 8 8 10 17 -5 1 3 2 2 7 5 18 21 26 20 26 30 29 31
9 -14 -20 -20 -10 -6 -9 -17 -15 -11 8 10 9 6 7 7 6 5 6 7 16 14 12 11 10 5 14 9 9 9 4 20 25 22 29 21 31 32
-6 -20 -5 7 6 3 3 -2 -20 5 8 7 6 6 9 11 9 6 12 16 11 10 9 8 8 8 10 10 11 7 8 20 20 30 30 13 13 29
-1 6 9 7 6 5 4 2 -3 5 8 7 10 12 11 9 14 15 11 11 11 11 9 8 6 10 13 9 13 15 11 17 16 15 4 -4 -5 26
5 9 8 7 6 5 0 5 7 4 4 5 11 8 14 12 13 12 10 10 1 4 1 1 7 13 16 16 12 19 18 19 11 -13 5 5 12 24
8 7 6 6 6 4 0 5 8 11 14 13 6 -1 2 9 2 2 3 5 5 -3 -6 -7 -10 -1 7 16 13 13 20 17 14 12 14 12 10 10
6 8 6 5 4 0 6 9 8 5 3 -15 -18 -11 -1 5 -5 -20 -20 -18 -15 -20 -20 -19 -14 -17 -16 -12 -1 7 9 8 9 9 8 10 10 5
8 7 6 4 -16 2 9 10 7 -14 -16 -16 -17 -0 6 -3 -19 -20 -20 -18 -1 -4 -4 -6 -10 -20 -20 -12 -17 -20 -20 -20 -20 -11 -13 -20 -20 -20

GFSNE_prec_radar_021.txt.gz
Reflectivity
-20 -20 -20 -20 -20 -20 -20 -20 -20 -20 -20 -20 -20 -20 -20 -20 -20 -20 -20 -20 -20 -20 -20 -20 -20 -20 -20 -20 -19 -4 -20 -20 -0 9 23 26 13 24
-20 -20 -20 -20 -20 -20 -20 -20 -20 -20 -20 -20 -20 -20 -20 -20 -20 -20 -20 -20 -20 -20 -20 -20 -20 -20 -20 -20 -9 -20 -20 -15 -5 -20 -19 18 19 24
-20 -20 -20 -20 -20 -20 -20 -20 -20 -20 -6 -19 -20 -20 -20 -20 -20 -20 -20 -20 -20 -20 -20 -20 -20 -20 -20 -20 -20 -20 -20 -20 -17 17 -14 -7 14 20
-20 -20 -20 -20 -20 -20 -20 -20 -20 -20 -1 9 -20 -20 -20 -20 -20 -4 -20 -20 -20 -20 -20 -20 -20 -20 -20 -20 -20 -10 -0 1 6 -20 -19 -20 -4 4
-20 -20 -20 -20 -20 -20 -20 -20 -18 0 10 8 -16 -20 -20 -20 -20 -20 -20 -20 -20 -20 -20 -20 -20 -20 -20 -20 -20 -6 -20 10 -13 1 9 1 -20 -20
-20 -20 -20 -20 -20 -20 -20 -2 7 11 0 10 4 1 8 -19 -20 -20 -20 -20 -20 -20 -20 -20 -20 -20 -19 -18 18 16 0 -4 -20 14 14 -13 -3 1
-20 -20 -20 -20 -20 -20 -1 2 4 11 9 8 12 10 12 -20 -20 -20 -11 -20 -20 -14 -20 -20 -10 -2 -14 -20 -20 -18 -20 -20 -20 -18 4 9 13 15
-20 -20 -20 -20 -20 -20 0 -19 11 10 5 10 10 18 -14 -20 -20 -3 6 6 2 -11 5 -20 -20 -20 -20 -20 -20 -20 -19 -20 -8 17 11 3 -20 11
-20 -20 -20 -20 -20 -20 -20 10 -20 -20 19 -4 3 -13 -20 -20 4 7 11 11 2 -20 4 -14 -12 -6 -13 -1 -20 -14 5 14 8 -13 -20 -19 3 -2
-20 -20 -20 -20 -20 7 6 10 15 11 -10 -2 0 -17 -6 5 9 8 2 3 4 -2 11 9 10 -20 -7 -20 -20 -20 -20 -6 -12 -14 -8 14 8 9
-20 -20 -20 -2 -16 6 13 14 -15 -20 -20 -20 -15 -20 -17 -1 3 3 -1 10 -6 3 -15 5 -6 13 -14 -20 -20 -20 22 19 7 -9 2 7 9 13
-20 3 -19 -18 10 15 12 -3 -5 -20 9 -4 -5 -20 -20 -20 1 -8 8 10 6 3 -20 -18 2 5 7 -19 13 19 9 -1 10 -18 -20 -20 -20 -20
7 2 2 -20 15 13 -0 -2 -4 7 -10 -19 -20 -20 -10 3 4 3 5 9 13 1 -20 5 10 1 4 6 2 -18 1 -5 -8 -16 -10 2 -19 -14
6 5 -1 18 -10 -20 -14 -20 -14 -1 -20 -16 2 4 5 3 -2 -5 -20 -16 -7 4 -17 -12 14 -3 -1 5 3 4 -13 5 26 23 26 16 -0 -8
2 6 18 -19 -20 -20 -20 4 -20 -20 -3 5 8 5 1 -6 -19 -15 -20 -19 -20 -20 -20 -20 -1 12 5 -19 -19 1 -14 -2 22 30 20 4 0 -2
12 12 -20 -20 -20 -20 -20 -20 -20 -7 -2 4 4 1 -0 -13 -18 -9 9 -10 3 -17 1 10 3 -18 -17 -17 -3 -20 -12 -3 17 28 22 26 25 9
12 -15 -20 -20 -14 -13 -20 -20 -20 -6 6 2 1 -9 -4 -20 -13 5 3 14 15 6 -7 -12 -5 4 -11 2 -15 -13 3 -20 15 21 26 28 30 29
-5 -20 -11 3 2 -1 -3 -20 -20 -3 -0 -1 -7 -6 5 6 5 -0 11 13 9 2 4 5 -13 -20 -19 4 -2 -16 -14 9 19 28 32 12 26 34
-4 1 5 3 -2 -3 -20 -18 -9 -2 -11 -2 3 8 3 -4 -4 9 0 2 -2 -1 6 2 5 0 6 -1 5 13 9 18 15 3 5 29 15 30
5 5 4 1 -1 -9 -10 -1 -9 -20 -20 -11 -5 -1 -5 2 1 2 -9 -14 -9 -6 -9 1 2 11 11 11 6 18 14 12 12 7 11 20 27 31
4 4 2 -2 -2 -5 -4 -3 -10 1 5 -11 -18 -8 1 6 3 5 4 5 4 -20 -4 -2 -5 2 12 11 11 14 22 32 15 1 2 7 5 17
6 0 -3 -13 -2 -0 -1 -7 -18 -20 -20 -19 -17 -12 -14 2 -0 -1 2 -5 3 4 -13 -19 -14 -2 2 9 7 12 15 15 22 21 18 13 11 14
-0 2 1 -18 -6 -2 -16 -19 -20 -20 -20 -19 -15 -15 -9 -16 -17 -16 -20 -20 -16 -10 -1 6 -20 -20 -17 -3 8 8 7 9 12 10 7 20 22 28

GFSNE_prec_radar_024.txt.gz
Reflectivity
-20 -20 -20 -20 -20 -20 -20 -20 -20 -20 -20 -20 -20 -20 -20 -20 -20 -20 -20 -20 -20 -20 -20 -20 -20 -20 -20 -20 -20 -20 -20 -20 -17 16 9 -19 12 4
-20 -20 -20 -20 -20 -20 -20 -20 -20 -20 -20 -20 -20 -20 -20 -20 -20 -20 -20 -20 -20 -20 -17 -20 -20 -20 -20 -20 -20 -20 -20 -13 -20 -20 -20 -16 -10 2
-20 -20 -20 -20 -20 -20 -20 -20 -20 -20 -8 -20 -20 -20 -20 -20 -20 -20 -20 -20 -20 -20 -20 -20 -20 -20 -20 -8 -15 -20 1 8 3 -20 -6 8 -11 13
-20 -20 -20 -20 -20 -20 -20 -20 -20 -20 -20 -20 -20 -20 -20 -20 -20 -20 -20 -20 3 -20 -20 -20 -14 -20 -20 -17 -3 -19 -20 -18 -19 6 25 15 16 1
-20 -20 -20 -20 -20 -20 -20 -20 -20 -20 -10 9 -20 -20 -20 -20 -20 -20 -20 -20 -20 -20 -20 -20 -20 -20 -20 -20 5 4 5 -6 -12 20 13 -4 10 12
-20 -20 -20 -20 -20 -20 -20 -20 -17 -9 -4 -20 -9 2 -20 -17 -15 21 -14 -20 -20 -20 -20 -20 5 -20 -20 -8 -20 -20 -20 -4 12 -7 3 18 -20 9
-20 -20 -20 -20 -20 -20 -20 -9 2 -1 -5 19 9 -2 2 10 -20 -20 -20 -20 -20 -20 -20 -20 -20 -20 -20 -20 -20 -20 -20 -20 -8 14 17 17 5 -17
-20 -20 -20 -20 -20 -20 -20 -20 6 10 10 11 11 8 -20 -20 -20 -20 -20 -20 -17 2 -20 -20 -20 -20 -20 -20 -18 9 16 20 17 -20 -19 17 13 10
-20 -20 -20 -20 -20 -20 -20 13 14 23 20 1 -20 -18 -11 -20 6 -14 2 9 8 -20 -16 -20 -7 -9 -14 -9 -20 -13 6 11 -0 -20 -20 -7 5 -12
-20 -20 -20 -20 -10 6 -11 -1 -19 -17 -20 -6 -7 -3 7 1 1 3 3 -20 -18 -20 3 -0 -9 5 -20 -15 7 6 2 -18 5 16 18 15 3 10
-20 -17 4 4 7 3 6 12 -1 -20 -20 -20 12 14 -15 -20 2 4 6 6 -20 -6 -15 -20 2 -20 -20 -5 9 -4 11 25 15 19 2 11 5 15
-20 -20 -1 9 -19 14 10 -4 1 -20 -5 5 -20 -20 -20 -20 3 4 4 13 4 -9 -20 -20 -19 -19 -11 6 4 7 -19 -20 -8 -10 -1 9 13 -4
-8 -13 -9 -16 18 4 -12 -7 -17 4 -14 -20 -20 -20 -20 -4 1 -2 -2 12 14 5 -20 5 12 -16 -5 -8 0 1 7 -20 -20 -20 -20 3 6 0
3 -14 -17 15 -9 -2 -5 -20 6 -5 -20 -20 -3 2 -5 -20 -20 -20 -20 -20 -15 10 6 -3 18 2 5 -2 -17 -18 -20 -18 4 10 25 26 7 -7
-18 3 16 0 -18 -20 -20 -18 -18 -20 -20 -3 6 -10 -16 -20 -20 -20 -20 -20 -5 8 7 12 20 13 9 -3 -20 -20 -20 5 10 25 35 31 22 -2
4 11 -20 -20 -20 -20 -20 -20 -20 -18 4 6 4 -11 -15 -9 -20 -8 1 -20 -4 -14 -8 -1 -20 -20 -20 -20 -20 -19 -20 4 17 29 27 22 15 5
9 -20 -20 -20 -20 -20 -20 -20 -20 -19 4 -2 5 -4 -20 -19 -15 -12 -12 -8 -11 7 -10 -20 -20 -20 -20 -20 -20 -20 -5 16 13 20 21 26 30 20
-16 -20 -20 -20 -20 -20 -20 -20 -14 -3 -3 -2 -19 -20 -16 -20 -20 -18 -4 1 -4 0 3 -2 -20 -20 -20 -19 -7 -13 5 13 4 24 25 23 28 30
-20 -20 -0 1 -19 -20 -19 -20 -2 -5 4 -8 -7 -5 -20 -20 -19 -20 -5 -6 -9 -19 3 -11 -14 -20 -20 -20 -3 26 12 15 13 18 25 22 19 31
-11 5 2 -20 -20 -15 -10 -2 -3 -20 -20 -20 -15 -20 -17 -9 2 -5 -9 -10 -16 -15 -18 -16 -3 -16 -4 1 -5 20 30 14 10 12 27 25 33 35
-8 -10 -15 -20 -18 -15 -17 -12 -19 -18 -12 -16 -17 -17 -19 -16 -14 -13 -14 -4 -1 -20 -16 -20 -20 8 -0 -11 -6 -3 18 28 10 1 14 10 13 17
-20 -20 -20 -20 -18 -7 -15 -20 -20 -20 -19 -18 -17 -19 -19 -8 -10 -20 -17 -17 -20 -17 -18 -20 -20 5 5 2 -1 -8 2 9 19 13 -15 -16 -16 -1
-20 -20 -20 -20 -17 -19 -18 -19 -20 -20 -17 -17 -19 -18 4 -8 -20 -20 -19 -19 -18 -18 -20 -20 -20 -20 -7 3 -17 -0 5 1 -20 -0 23 27 25 20

GFSNE_prec_radar_027.txt.gz
Reflectivity
-20 -20 -20 -20 -20 -20 -20 -20 -20 -20 -20 -20 -20 -20 -20 -20 -20 -20 -20 -20 -20 -20 -20 -20 -20 7 -16 -20 -20 -20 -0 -19 -10 1 14 1 -20 -20
-20 -20 -20 -20 -20 -20 -20 -20 -20 -20 -20 -20 -20 -20 -20 -20 -20 -20 -20 -20 -20 -20 -20 -20 -20 21 -20 -20 -20 -20 -6 -16 -12 -8 -18 -19 -6 7
-20 -20 -20 -20 -20 -20 -20 -20 -20 -20 -20 -20 -20 -20 -20 -20 -20 -20 -20 -20 -20 -20 -18 4 7 -20 -10 -20 -20 14 -19 -20 -20 -18 7 14 21 22
-20 -20 -20 -20 -20 -20 -20 -20 -20 -20 -20 -20 -20 -20 -20 -20 -20 -20 -20 -20 3 -3 -20 -17 -20 -20 -20 -20 -1 -19 -20 -20 -20 -20 -20 -20 -15 -8
-20 -20 -20 -20 -20 -20 -20 -20 -20 -20 -19 -4 -14 -20 -20 -19 -20 -20 -20 -20 -20 -20 -20 -20 -20 -20 -20 -20 10 4 -19 2 2 -20 5 -4 15 21
-20 -20 -20 -20 -20 -20 -20 -13 -19 -20 -20 -20 -11 10 -20 -20 2 -13 -20 -20 -18 -20 -20 -20 -17 -20 -18 -7 -20 -20 -20 -20 -20 -20 -19 -3 18 1
-20 -20 -20 -20 -20 -20 -4 -20 -6 -20 -4 14 4 12 -3 -20 -20 -20 -20 -20 -13 -20 -20 -20 6 -6 -20 -20 -20 -20 -14 -7 4 5 21 12 8 17
-20 -20 -20 -20 -20 -20 -20 1 10 15 8 11 23 1 -20 -20 -20 -20 -7 9 10 -0 6 -19 -20 -20 -20 -20 -1 3 4 3 -20 -18 -20 13 12 23
-20 -20 -20 -20 -20 -20 -20 11 2 13 23 10 3 -20 -2 -20 3 16 2 4 5 -10 -20 -20 -19 -20 -19 -20 -13 5 -18 -20 -2 5 6 14 -20 -20
-20 -20 -20 -11 -0 9 3 5 8 11 -18 -7 -10 -4 10 15 -0 -13 -9 -1 -20 -19 -12 -20 -10 -20 -20 -20 -15 -17 -20 5 15 12 12 15 9 12
-20 -20 4 3 8 -2 9 19 -11 -20 -20 -20 14 3 -20 -20 -15 12 9 5 -11 -11 -20 -20 -20 -20 -20 -20 -20 -20 -9 8 14 24 15 10 13 14
-20 -20 -6 4 -20 17 12 2 -6 -20 1 -2 -20 -20 -20 -20 2 1 7 13 -7 -8 -20 9 -6 -20 1 -19 -12 -18 -20 -20 -19 4 14 6 9 -12
-20 -20 -20 -20 24 -16 -2 -20 -14 6 -15 -20 -20 -20 -20 -4 -20 -20 -19 12 15 6 -20 13 14 -15 -1 -17 -20 -20 -20 -20 -20 -6 -18 -4 -3 8
-8 -20 -11 18 -20 -20 -16 3 7 -9 -20 -20 -20 -20 -20 -20 -20 -20 -8 -3 -8 10 6 7 16 7 5 -18 -20 -20 -20 -20 -15 -16 -7 -11 0 7
2 11 6 -19 -20 -20 -20 -5 -18 -20 -20 -5 -1 -20 -20 -20 -20 -20 -20 -6 6 10 6 2 12 1 -19 -19 -20 -20 -20 -9 15 23 25 22 -3 -20
6 -12 -20 -20 -20 -20 -20 -20 -20 -7 10 5 -14 -20 -20 -20 -14 -20 -16 -20 -5 -3 10 10 11 11 -10 -20 -20 -20 2 19 4 8 31 35 27 10
-6 -20 -20 -20 -20 -20 -20 -20 -20 -20 -10 -20 -20 -20 -20 -20 -13 -6 -13 -4 -13 2 -5 -18 -18 -20 -20 -20 -13 5 16 11 10 22 13 27 23 17
-19 -20 -20 -20 -20 -20 -20 -20 -20 -16 -20 -20 -20 -20 -14 -9 -15 -20 -9 -12 6 -10 -5 -19 -20 -20 -20 -19 8 7 6 13 22 33 30 23 20 16
-20 -2 -20 -20 -20 -20 -20 -20 -20 -20 -20 -19 -17 0 -15 -20 -20 -20 -20 -14 -20 -10 -2 -19 -20 -5 -10 -5 -13 28 13 10 28 28 27 31 26 33
-4 -20 -20 -20 -20 -20 -20 -19 -19 -20 -20 -19 -7 -18 -17 -20 -20 -18 -20 -18 -10 -4 -20 -19 -20 -16 4 7 -13 21 30 12 7 18 29 17 31 29
-20 -20 -20 -20 -20 -18 -19 -20 -20 -16 -1 -11 -18 -18 -20 -19 -18 -19 -20 -13 -2 -20 -20 -20 -10 6 12 -9 -7 -7 14 29 23 15 27 11 23 13
-20 -20 -20 -20 -17 -18 -20 -20 -17 -20 -19 -20 -20 -20 -20 -19 7 -20 -20 -18 -19 -19 -20 -20 -7 7 -10 -20 -5 -11 5 20 21 25 28 16 12 10
-20 -20 -20 -19 -18 -20 -20 -19 -20 -20 -20 -20 -20 -20 -20 2 -14 -13 -20 -20 -20 -20 -20 -20 -20 -15 -20 -12 -20 -3 -17 10 -6 -1 29 28 31 30

GFSNE_prec_radar_033.txt.gz
Reflectivity
-20 -20 -20 -20 -20 -20 -20 -20 -20 -20 -20 -20 -20 -20 -20 -20 -20 -20 -20 -20 -20 -20 -20 -20 -20 -20 -18 -20 -3 0 -10 12 10 -11 17 18 15 15
-20 -20 -20 -20 -20 -20 -20 -20 -20 -20 -20 -20 -20 -20 -20 -20 -20 -20 -20 -20 -20 -20 -20 -19 10 5 -11 -15 -20 -12 -9 19 18 21 22 20 20 -11
-20 -20 -20 -20 -20 -20 -20 -20 -20 -20 -20 -20 -20 -20 -20 -20 -20 -20 -20 -20 -20 -9 15 -20 -20 -20 -16 4 5 9 -13 15 4 17 23 15 17 5
-20 -20 -20 -20 -20 -20 -20 -20 -20 -20 -20 -18 -20 -20 -20 -20 -20 -20 -10 6 14 -18 -20 -20 -20 -20 -18 4 10 -6 -15 -3 -5 -12 -16 -10 -3 -11
-20 -20 -20 -20 -20 -20 -20 -20 -20 -16 4 -2 -20 -20 -20 -20 -17 -7 -9 -20 -20 -20 -20 -20 -20 -20 -10 2 12 17 18 19 19 19 19 20 20 18
-20 -20 -20 -20 -20 -20 -20 -7 -4 -15 -20 -20 -19 -3 -5 2 -1 -20 -20 -20 -20 -20 -20 -20 6 -8 -20 -20 -20 -20 -12 -8 -17 -11 -3 5 -15 -20
-20 -20 -20 -20 -20 -20 1 -20 -14 -18 -20 0 -3 17 -16 -20 -20 -20 -20 -20 -20 -20 -13 -20 -20 -20 -20 -20 -20 -20 -15 -4 0 -8 1 -8 -3 10
-20 -20 -20 -20 -20 -6 -1 -14 5 4 11 15 -20 -20 -20 -20 -20 -20 2 5 -20 -20 -18 -20 -20 -20 -20 -20 -20 -5 3 2 9 15 16 17 18 19
-20 -20 -20 -20 -20 -20 -20 -5 -1 19 -7 -18 -20 -20 -20 -20 12 2 -20 -20 -20 -20 2 4 -20 -20 -20 -20 -20 -20 -5 5 -11 6 12 15 14 11
-20 -20 -20 -20 -7 2 -6 15 -20 -20 -20 -20 -20 -6 7 -5 -20 -15 -17 -0 -20 -19 5 10 -20 -20 -20 -20 -20 -20 -20 -2 6 6 9 12 14 13
-20 -20 2 4 -4 4 7 -20 -20 -20 -20 -20 12 -2 -20 -20 -14 13 -6 -13 -20 -18 -6 -19 -20 -20 -20 -15 -20 -20 -20 3 4 2 -4 12 16 17
-20 -20 -20 -2 -13 15 1 -20 -20 -20 5 -5 -20 -20 -20 -20 -20 -3 11 12 -13 -16 -20 4 -11 -20 7 0 -20 -20 -20 -20 -12 -1 6 5 6 8
-20 -20 -20 -3 11 -14 -3 -20 -18 9 -15 -20 -20 -20 -20 -20 -20 -20 -16 14 14 6 -20 14 10 -20 -12 -20 -20 -20 -20 -20 -20 -20 -20 -14 -0 -6
-11 -20 -19 8 -1 -14 -17 -1 7 -1 -20 -20 -20 -20 -20 -20 -20 -20 -20 -20 -3 16 11 6 17 1 3 -8 -20 -20 -19 -5 6 -15 10 7 17 21
-17 3 0 -20 -20 -20 -20 -18 -18 -20 -20 -20 -20 -20 -20 -20 -20 -20 -20 -20 -13 11 7 -7 -1 -10 -3 8 -10 -20 7 -9 -3 7 10 13 12 11
-18 -20 -20 -20 -20 -20 -20 -20 -20 -19 -4 -19 -20 -20 -20 -20 -20 -20 -20 -20 -20 -17 -3 -2 7 6 2 -12 13 11 5 17 -0 17 11 9 24 17
-2 -20 -20 -20 -20 -20 -20 -20 -20 -20 -20 -20 -20 -20 -20 -20 -20 -20 -20 -20 -20 -20 -20 -20 -17 -4 -6 -10 9 9 4 7 11 19 29 30 31 -6
-20 -20 -20 -20 -20 -20 -20 -20 -20 -20 -20 -20 -20 -20 -20 -20 -20 -20 -20 -20 -9 -20 -18 -20 -20 -17 -2 -14 12 9 3 18 27 21 33 9 27 9
-20 -20 -20 -20 -20 -20 -20 -20 -20 -20 -20 -20 -20 -20 -17 -20 -20 -20 -20 -20 -20 -20 -19 -18 -20 -20 -20 -19 14 1 18 17 20 12 24 10 13 3
-20 -20 -20 -20 -20 -20 -20 -20 -20 -20 -20 -20 -20 -20 -20 -20 -20 -20 -20 -20 -7 -19 -20 -20 -20 -18 7 13 15 11 28 19 20 8 10 16 20 21
-20 -20 -20 -20 -20 -20 -20 -20 -20 -20 -4 2 -20 -20 -20 -20 -20 -20 -20 -20 -12 -20 -20 -20 -10 8 10 7 -1 10 25 26 29 29 27 12 -0 16
-20 -20 -20 -20 -20 -20 -20 -20 -20 -20 -20 -20 -20 -20 -20 -20 -20 -20 -20 -20 -20 -20 -20 -20 -20 -20 -20 -19 0 2 10 23 26 10 31 21 10 17
-20 -20 -20 -20 -20 -20 -20 -20 -20 -20 -20 -20 -20 -20 -20 -19 -20 -20 -20 -20 -20 -20 -20 -20 -20 -20 -20 -20 -15 -17 0 4 10 19 29 30 32 27

GFSNE_prec_radar_036.txt.gz
Reflectivity
-20 -20 -20 -20 -20 -20 -20 -20 -20 -20 -20 -20 -20 -20 -20 -20 -20 -20 -20 -20 -20 -20 -20 -20 -20 -17 -17 5 9 21 20 10 20 18 15 12 -2 -3
-20 -20 -20 -20 -20 -20 -20 -20 -20 -20 -20 -20 -20 -20 -20 -20 -20 -20 -20 -20 -20 -20 -20 -20 3 -4 5 14 0 3 7 6 3 -9 0 -18 19 21
-20 -20 -20 -20 -20 -20 -20 -20 -20 -20 -20 -20 -20 -20 -20 -20 -20 -20 -20 -20 -20 -12 0 -20 -20 -14 -11 -17 -17 -12 -4 4 18 18 19 18 20 21
-20 -20 -20 -20 -20 -20 -20 -20 -20 -20 -10 -20 -20 -20 -20 -20 -20 -20 -11 0 -15 -20 -20 -20 -20 -20 -19 -6 -4 16 -20 0 18 17 17 18 -17 16
-20 -20 -20 -20 -20 -20 -20 -20 -20 -17 0 -5 -20 -20 -20 -20 -20 -20 -20 -20 -20 -20 -20 -20 -20 -20 -12 9 14 19 18 18 -9 11 16 17 18 19
-20 -20 -20 -20 -20 -20 -20 -14 -11 -20 -20 -20 -20 -2 11 -20 -20 -20 -20 -20 -20 -20 -20 -20 -2 -6 -20 -20 -20 -20 -20 -10 -12 -5 -3 2 15 15
-20 -20 -20 -20 -20 -20 -4 -8 -4 -20 -18 11 10 -18 -20 -20 -20 -20 -20 -20 -20 -11 -20 -20 -20 -20 -20 -20 -20 -20 -16 3 3 7 9 4 10 11
-20 -20 -20 -20 -20 -20 -1 5 6 8 13 -20 -20 -20 -20 -20 -20 -20 -2 -10 -19 -20 -20 -20 -20 -20 -20 -20 -20 -20 -1 -14 5 6 13 16 16 16
-20 -20 -20 -20 -20 -20 -20 8 -11 -5 -20 -20 -20 -20 -20 -20 6 -11 -20 -20 -20 -20 -18 -14 -20 -20 -20 -20 -20 -20 -10 0 5 9 9 12 15 15
-20 -20 -20 -20 -20 3 -0 9 -17 -20 -20 -20 -20 -20 5 -6 -19 -15 -14 -19 -20 -20 -20 -7 -20 -20 -20 -20 -20 -20 -20 -3 4 8 10 11 12 8
-20 -20 -20 0 -3 9 6 -19 -20 -20 -20 -20 10 -1 -20 -20 -14 9 -14 -20 -20 -20 -20 -20 -20 -20 -20 -10 -20 -20 -20 -0 -2 6 11 14 16 16
-20 -20 -20 4 2 16 -2 -20 -20 -20 -3 -0 -20 -20 -20 -20 -20 -20 -20 6 -19 -13 -20 9 -11 -17 3 -19 -20 -20 -20 -20 -20 -4 4 6 5 6
-20 -20 -20 -1 8 -8 3 -20 -19 7 -15 -20 -20 -20 -20 -20 -20 -20 -20 10 10 -2 -20 14 7 -20 -10 -20 -20 -20 -11 -20 -16 -20 -20 -16 5 7
-7 -20 -20 6 -3 -20 -18 -2 6 -2 -20 -20 -20 -20 -20 -20 -20 -20 -20 -20 -19 14 10 -3 13 1 6 -15 -20 -20 -19 1 6 -18 -1 0 10 17
-16 -0 1 -20 -20 -20 -20 -18 -18 -20 -20 -20 -20 -20 -20 -20 -20 -20 -20 -20 -17 9 0 -20 4 -2 -8 10 7 -15 14 -1 -15 7 4 8 4 18
-20 -20 -20 -20 -20 -20 -20 -20 -20 -20 -20 -20 -20 -20 -20 -20 -20 -20 -20 -20 -20 -20 1 -0 2 -1 9 -17 19 13 -11 12 -5 -16 12 15 14 16
-6 -20 -20 -20 -20 -20 -20 -20 -20 -20 -20 -20 -20 -20 -20 -20 -20 -20 -20 -20 -20 -20 -20 -20 -16 6 12 7 8 -7 -2 11 -8 22 23 24 19 12
-20 -20 -20 -20 -20 -20 -20 -20 -20 -20 -20 -20 -20 -20 -20 -20 -20 -20 -20 -20 -20 -20 -20 -20 -20 -13 -12 -0 14 12 -13 8 11 26 29 8 13 -20
-20 -20 -20 -20 -20 -20 -20 -20 -20 -20 -20 -20 -20 -20 -16 -20 -20 -20 -20 -20 -20 -20 -20 -20 -20 -19 -20 -20 -19 -19 15 3 4 18 9 6 13 -18
-20 -20 -20 -20 -20 -20 -20 -20 -20 -20 -20 -20 -19 -20 -20 -20 -20 -20 -20 -20 -20 -20 -20 -20 -20 -17 14 18 15 8 17 13 20 22 8 11 22 22
-20 -20 -20 -20 -20 -20 -20 -20 -20 -13 1 4 -20 -20 -20 -20 -20 -20 -20 -20 -20 -20 -20 -20 -20 -13 -5 -6 -11 -13 10 10 28 29 22 -13 4 10
-20 -20 -20 -20 -20 -20 -20 -20 -20 -20 -20 -20 -20 -20 -20 -20 -20 -20 -20 -20 -20 -20 -20 -20 -20 -20 -20 -20 -20 -9 4 -0 -3 17 24 23 8 4
-20 -20 -20 -20 -20 -20 -20 -20 -20 -20 -20 -20 -20 -20 -20 -20 -20 -20 -20 -20 -20 -20 -20 -20 -20 -20 -20 -20 -20 -20 -20 3 -1 -17 -2 29 29 23

GFSNE_prec_radar_039.txt.gz
Reflectivity
-20 -20 -20 -20 -20 -20 -20 -20 -20 -20 -20 -20 -20 -20 -20 -20 -20 -20 -20 -20 -20 -20 -20 -20 -20 -17 -12 -14 4 9 16 19 20 20 17 12 8 17
-20 -20 -20 -20 -20 -20 -20 -20 -20 -20 -20 -20 -20 -20 -20 -20 -20 -20 -20 -20 -20 -20 -20 -5 -20 -12 -0 2 -17 -11 -12 -15 3 8 -12 -7 -10 -18
-20 -20 -20 -20 -20 -20 -20 -20 -20 -20 -20 -20 -20 -20 -20 -20 -20 -20 -11 -20 -11 -20 -20 -20 -18 -20 -20 -5 -5 -3 -6 18 18 18 18 18 21 23
-20 -20 -20 -20 -20 -20 -20 -20 -20 -20 -20 -20 -20 -20 -20 -20 -20 2 -9 -20 -20 -20 -20 -20 -8 -20 -20 -20 -19 -9 9 9 -3 15 19 16 2 18
-20 -20 -20 -20 -20 -20 -20 -20 -20 -20 -3 8 -20 -20 -15 5 -6 -20 -20 -20 -20 -20 -20 -20 -20 -18 3 -19 5 -4 -2 9 5 -15 -17 7 16 16
-20 -20 -20 -20 -20 -20 -20 -10 -6 5 -15 7 -19 8 -4 -20 -20 -20 -20 -20 -20 -20 -20 -20 -20 -20 -20 -20 -20 -20 -10 -9 -14 -20 -6 8 8 11
-20 -20 -20 -20 -20 -14 1 -0 1 5 9 9 18 -20 -20 -20 -20 -20 -20 -7 -0 -15 -20 -20 -20 -20 -20 -20 -20 -20 -6 3 6 6 11 11 12 -6
-20 -20 -20 -20 -20 -16 -3 4 6 5 13 13 2 5 -20 -20 -20 -20 8 9 -20 -20 -20 -20 -20 -20 -20 -20 -20 -20 -9 2 4 8 11 14 16 14
-20 -20 -20 -20 -20 -20 -20 7 -16 18 1 -7 1 -20 -20 -20 -7 11 6 10 -6 -20 -20 -20 -20 -20 -20 -20 -20 -20 -5 1 5 7 9 11 14 14
-20 -20 -20 -20 -20 -1 -3 13 -13 -20 -20 -20 -20 -20 8 7 -7 4 7 7 -3 -20 -20 -20 -20 -20 -20 -20 -20 -20 -20 -10 1 6 8 11 12 12
-20 -20 -20 -20 -5 4 12 -10 -20 -20 -20 -20 4 -1 -19 -20 -14 1 4 -20 -20 -20 -20 -20 -20 -20 -20 -20 -20 -20 -20 -12 0 -1 2 9 9 13
-20 -20 -20 -2 1 11 -2 3 -1 -20 -17 7 -20 -20 -20 -20 -20 -20 1 2 -20 -9 -20 -3 -20 -16 -3 -20 -20 -20 -20 -8 -20 -20 2 9 12 13
-20 -20 -20 -8 11 -7 -4 -18 -19 4 -11 -20 -20 -20 -20 -20 -20 -20 -20 9 6 -9 -20 14 5 -20 -2 -20 -20 -20 -20 -19 -8 -17 -11 8 15 16
-20 -3 -20 7 -3 -14 -20 -11 5 3 -20 -20 -20 -20 -20 -20 -20 -20 -20 -20 -20 2 -9 -12 13 -6 -2 -9 -20 -20 -20 -2 -15 -5 -20 -20 9 20
-0 -5 0 -19 -20 -20 -20 -19 -20 -20 -20 -20 -17 -20 -20 -20 -20 -20 -20 -20 -20 -18 -6 -20 -0 -19 -6 7 7 -12 10 -9 -20 -20 -17 -5 -16 7
-20 -20 -20 -20 -20 -20 -20 -20 -20 -20 -20 -1 -20 -20 -20 -20 -20 -20 -20 -20 -20 -20 7 2 7 8 11 -16 12 -2 -19 14 15 11 22 24 28 24
-1 -20 -20 -20 -20 -20 -20 -20 -20 -20 -20 -20 -13 -20 -20 -20 -20 -20 -20 -20 -20 -20 -20 -1 -6 -9 -13 -11 -6 0 4 12 3 28 18 -8 22 -18
-20 -20 -20 -20 -20 -20 -20 -20 -20 -20 -20 -20 -20 -20 -20 -20 -20 -20 -20 -20 -20 -20 -20 -20 -20 -20 -14 -2 -7 5 -16 8 16 22 -10 -2 -17 -20
-20 -20 -20 -20 -20 -20 -20 -20 -20 -20 -20 -20 -20 -20 -20 -20 -19 -20 -20 -20 -20 -20 -20 -20 -20 -16 -20 -20 -20 -4 10 8 5 -3 12 2 -10 -20
-20 -20 -20 -20 -20 -20 -20 -20 -20 -20 -20 -20 -19 -20 -20 -20 -20 -20 -20 -20 -20 -20 -20 -20 -20 -19 -1 11 16 -18 8 7 2 8 5 7 19 23
-20 -20 -20 -20 -20 -20 -20 -20 -20 -20 -6 -4 -20 -20 -20 -16 -20 -20 -20 -20 -14 -20 -20 -20 -20 -20 -20 -20 -11 -19 -20 -5 17 19 9 4 4 6
-20 -20 -20 -20 -20 -20 -20 -20 -20 -20 -20 -20 -20 -20 -20 -14 -10 -20 -20 -20 -20 -20 -20 -20 -20 -20 -20 -20 -20 -20 -20 -20 -17 -19 -16 24 16 10
-20 -20 -20 -20 -20 -20 -20 -20 -20 -20 -20 -20 -20 -20 -15 -7 -20 -20 -20 -20 -20 -20 -20 -20 -20 -20 -20 -20 -20 -20 -20 -20 -20 -20 -17 12 26 25

GFSNE_prec_radar_042.txt.gz
Reflectivity
-20 -20 -20 -20 -20 -20 -20 -20 -20 -20 -20 -20 -20 -20 -20 -20 -20 -20 -20 -20 -20 -20 -20 -20 -20 -20 -20 -20 -19 2 -1 7 -0 19 13 -9 17 12
-20 -20 -20 -20 -20 -20 -20 -20 -20 -20 -20 -20 -20 -20 -20 -20 -20 -20 -20 -20 -20 -20 -20 -20 -7 -20 -19 -19 -11 -19 -19 -16 -11 -3 12 20 -8 13
-20 -20 -20 -20 -20 -20 -20 -20 -20 -20 -20 -20 -20 -20 -20 -20 -20 -20 -20 -20 -20 -20 -20 -14 -16 -17 -20 -2 -14 -1 9 1 14 15 16 -1 19 19
-20 -20 -20 -20 -20 -20 -20 -20 -20 -20 -20 -20 -20 -20 -20 -20 -20 -19 -20 -20 -20 -20 -20 -20 -20 -20 -19 -20 -6 -11 5 3 12 -10 -3 19 16 -18
-20 -20 -20 -20 -20 -20 -20 -20 -20 -20 -8 6 -10 -20 -18 -20 -19 -20 -20 -20 -20 -20 -20 -20 -20 -20 -20 -5 -20 -20 -16 0 -10 2 5 10 -18 -12
-20 -20 -20 -20 -20 -20 -20 -20 -20 -14 -15 -5 3 -3 11 4 -20 -20 -20 -20 -20 -20 -20 -20 -20 -20 -20 -20 -20 -20 -20 -4 4 -4 7 -6 -6 -3
-20 -20 -20 -20 -20 -20 -20 -9 -4 -2 7 9 12 15 -20 -20 -20 -20 -6 -8 -8 -18 -20 -20 -20 -20 -20 -20 -20 -20 -20 -20 -9 -3 7 11 6 10
-20 -20 -20 -20 -20 -20 -2 -20 -0 12 13 19 12 7 -20 -20 -20 -1 4 11 -0 -20 -20 -20 -20 -20 -20 -20 -20 -20 -20 -8 -11 -9 6 7 10 14
-20 -20 -20 -20 -20 -20 -20 -15 7 10 13 9 6 -20 -20 -20 -11 10 10 7 8 -20 -2 -20 -20 -20 -20 -20 -20 -20 -20 -20 -1 3 5 5 8 11
-20 -20 -20 -20 -20 -11 -1 10 13 3 -18 -20 -20 -20 -4 8 8 1 6 1 -1 -20 -20 -20 -20 -20 -20 -20 -20 -20 -20 -20 -17 -7 1 6 9 10
-20 -20 -20 -20 -7 6 -5 13 -4 -20 -20 -20 -17 5 5 -16 -14 1 7 9 -20 -20 -20 -20 -20 -20 -20 -20 -20 -20 -20 -20 -20 -20 -7 2 13 15
-20 -20 -20 -19 -20 7 4 -0 -0 -20 -19 -14 4 -20 -20 -20 -20 -11 4 9 -20 -19 -20 -6 -18 -11 -9 -20 -20 -20 -20 -20 -20 -20 -1 8 12 16
-20 -20 -20 -20 5 2 2 -11 -20 -1 8 -10 -20 -20 -20 -20 -20 -17 -15 8 6 -18 -20 6 6 -5 -1 -20 -20 -20 -20 -20 -20 -20 -20 -20 -6 13
-20 -20 -20 -5 -12 -14 -20 -20 0 -1 -20 -20 -20 -20 -10 -10 -15 -5 -9 2 4 -8 -20 -11 13 -2 -1 -15 -20 -20 -20 -20 -14 5 8 -1 2 17
-3 1 2 -19 -20 -20 -20 -20 -20 -20 -20 -7 2 1 1 1 2 2 -0 1 1 -10 -15 -19 6 2 5 0 -15 -20 -20 -20 -19 -11 16 16 22 21
1 -2 -20 -20 -20 -20 -20 -20 -20 -20 -20 -4 3 1 1 3 -13 2 5 -2 -5 -20 -20 -20 -2 7 8 -0 -16 -20 -20 -19 -16 9 11 -5 -3 20
1 -20 -20 -20 -20 -20 -20 -20 -20 -20 -20 -13 3 -12 -12 0 -20 -0 -1 4 -2 -20 -20 -20 -9 -6 2 -10 -17 -20 -20 -9 -15 19 16 13 -5 9
-20 -20 -20 -20 -20 -20 -20 -20 -20 -20 -20 -1 -19 1 -20 -5 -12 -7 -0 3 -20 -20 -20 -20 -2 -13 -20 5 2 -20 -0 -20 -20 12 17 14 -5 -3
-20 -20 -20 -20 -20 -20 -20 -17 -3 -20 -9 1 -16 -12 -20 3 -16 -20 -20 -20 -20 -20 -20 3 2 4 -15 -20 -14 -4 13 -11 -11 -4 -6 23 6 3
-20 -20 -20 -20 -20 -20 -18 -2 -20 -20 -20 -14 -5 -20 -20 -4 -20 -20 -20 -20 -8 -18 -17 -2 3 9 -1 -11 -19 -19 -1 23 5 -19 -10 10 19 17
-20 -20 -20 -20 -20 -17 -15 -19 -20 -19 -0 0 -20 -20 -20 -9 -20 -20 -20 -20 -1 -14 -18 -19 -10 -0 0 -0 2 -20 -19 -18 -8 18 19 -2 -8 6
-20 -20 -20 -20 -20 -20 -20 -20 -20 -20 -20 -20 -20 -20 -20 -18 -8 -20 -20 -20 -20 -20 -1 4 -3 0 -1 2 -7 -20 -7 -20 -20 -11 22 24 23 13
-20 -20 -20 -20 -20 -20 -20 -20 -20 -20 -20 -20 -20 -7 -19 -11 -20 -20 -20 -19 -14 -1 6 0 -1 -20 -20 -2 -5 -20 -20 -16 -20 -16 -19 11 16 30

GFSNE_prec_radar_045.txt.gz
Reflectivity
-20 -20 -20 -20 -20 -20 -20 -20 -20 -20 -20 -20 -20 -20 -20 -20 -20 -20 -20 -20 -20 -20 -20 -20 -20 -20 -20 -16 -20 2 10 -11 13 6 -2 9 5 17
-20 -20 -20 -20 -20 -20 -20 -20 -20 -20 -20 -20 -20 -20 -20 -20 -20 -20 -20 -20 -20 -20 -20 -20 -16 -20 -20 -10 -7 -8 2 6 5 16 21 20 20 11
-20 -20 -20 -20 -20 -20 -20 -20 -20 -20 -20 -20 -20 -20 -20 -20 -20 -20 -20 -20 -20 -20 -20 -20 -20 -20 -19 7 1 4 -20 -8 8 12 14 16 19 18
-20 -20 -20 -20 -20 -20 -20 -20 -20 -20 -20 -20 -20 -20 -20 -20 -20 -20 -20 -20 -20 -20 -20 -20 -20 -20 -19 -2 -3 -11 -12 5 3 8 5 11 7 12
-20 -20 -20 -20 -20 -20 -20 -20 -20 -20 -20 -20 -20 -20 -20 -20 -15 -11 -20 -20 -20 -20 -20 -20 -20 -20 -20 -20 -20 -7 -15 -18 -17 -20 -10 7 6 9
-20 -20 -20 -20 -20 -20 -20 -20 -20 -20 -20 -20 -20 -20 0 9 -7 -20 -20 -20 -20 -20 -20 -20 -20 -20 -20 -20 -20 -20 -20 -20 -20 -20 -7 6 6 2
-20 -20 -20 -20 -20 -20 -20 -20 -19 -5 -16 -14 6 10 -6 -20 -20 -20 -20 -20 -20 -20 -20 -20 -20 -20 -20 -20 -20 -20 -20 -20 -16 1 10 7 10 10
-20 -20 -20 -20 -20 -20 -20 -9 -4 1 4 14 9 9 -7 -20 -20 -20 -20 -20 4 -20 -4 -20 -20 -20 -20 -20 -20 -20 -20 -20 -20 -15 3 2 4 8
-20 -20 -20 -20 -20 -20 -20 -20 -20 -17 11 8 3 -6 -17 -20 -20 -20 -4 6 -20 -20 -20 -20 -20 -20 -20 -20 -20 -20 -20 -20 -18 5 9 5 6 6
-20 -20 -20 -20 -20 -20 -17 -12 -20 6 4 -19 -20 -20 -20 -17 6 17 -6 -20 -20 -20 -7 -20 -20 -20 -20 -20 -20 -20 -20 -20 -20 -20 -20 -7 -3 10
-20 -20 -20 -20 -20 -7 3 -4 6 -18 -20 -20 -20 -13 -2 -15 -18 -19 -20 3 -20 -20 -20 -20 -20 -20 -20 -20 -20 -20 -20 -20 -20 -20 -20 -0 9 15
-20 -20 -20 -20 -5 -20 -0 -13 -19 -20 -20 -19 -20 -20 -20 -20 -20 -20 -14 8 -20 -19 -20 -7 -16 -20 -13 -20 -20 -20 -20 -20 -20 -20 -20 -1 6 6
-20 -20 -20 -20 -20 7 0 -12 -20 -12 -20 -12 -20 -20 -20 -20 -19 -14 -15 5 8 -12 -20 1 6 -17 -11 -20 -1 -20 -20 -20 -20 -20 -20 -10 2 15
-20 -20 -20 -6 3 -14 -14 -20 -2 1 -20 -20 -20 -20 -6 -9 -4 -2 -20 -3 -15 -12 -20 -5 12 -5 -1 -15 -20 -20 -20 -20 -20 -20 -20 -2 16 11
-20 -6 -3 -18 -20 -20 -20 -20 -19 -20 -20 -20 -19 -12 -20 -19 -20 -11 -19 -16 -4 -20 -20 -20 -10 -8 -1 -2 -19 -20 -20 -20 -20 -20 4 -12 -17 -4
-10 -18 -20 -20 -20 -20 -20 -20 -20 -20 -20 -18 -20 -20 -20 -20 -8 -18 -20 -20 -20 -20 -20 -20 -20 -5 6 -19 -12 -17 -20 -20 -19 -10 -2 -7 -20 -17
-8 -20 -20 -20 -20 -20 -20 -20 -20 -20 -20 -20 -3 -20 -20 -20 -20 -20 -20 -20 -13 -20 -20 -20 -20 -17 -20 -17 -16 -20 -20 -20 -10 -12 -1 -16 -20 -20
-20 -20 -20 -20 -20 -20 -20 -20 -20 -17 -12 -20 -20 -20 -20 -20 -20 -20 -20 -20 -20 -20 -20 -20 -20 -20 -20 -19 -3 -3 -17 -20 -20 -20 -20 2 -13 -20
-20 -20 -20 -20 -20 -20 -8 -20 -20 -20 -20 -20 -20 -20 -20 -20 -19 -20 -20 -20 -20 -20 -20 -20 -18 -5 -1 -20 -20 10 1 -20 -20 -9 -20 -19 -15 1
-20 -20 -20 -20 -20 -20 -17 -20 -20 -20 -20 -20 -20 -20 -20 -20 -20 -20 -20 -20 -20 -19 -20 -19 -9 -20 8 6 1 -11 -20 18 13 -3 -20 -19 -3 6
-20 -20 -20 -20 -20 -20 -20 -20 -20 -20 -9 -5 -20 -20 -20 -5 -20 -20 -20 -10 -9 -20 -20 -20 -20 3 -20 -12 -18 -20 -20 -1 8 20 17 -0 -9 -10
-20 -20 -20 -20 -20 -20 -20 -20 -20 -20 -20 -20 -20 -19 -12 -13 -20 -20 -20 -20 -20 -20 -18 -13 -20 -20 -3 -20 -19 -20 -20 -20 -10 12 23 28 22 13
-20 -20 -20 -20 -20 -20 -18 -20 -20 -20 -20 -18 -14 -1 1 1 -20 -20 -20 -20 -16 -2 -20 -20 -20 -20 -20 -20 -3 -11 -19 -19 -20 -19 -20 9 14 19

GFSNE_prec_radar_048.txt.gz
Reflectivity
-20 -20 -20 -20 -20 -20 -20 -20 -20 -20 -20 -20 -20 -20 -20 -20 -20 -20 -20 -20 -20 -20 -20 -20 -20 -20 0 -20 -20 2 11 12 15 15 22 22 21 21
-20 -20 -20 -20 -20 -20 -20 -20 -20 -20 -20 -20 -20 -20 -20 -20 -20 -20 -20 -20 -20 -20 -20 -20 -20 -20 -11 -16 -6 3 8 12 12 13 18 23 11 20
-20 -20 -20 -20 -20 -20 -20 -20 -20 -20 -20 -20 -20 -20 -20 -20 -20 -20 -20 -20 -20 -20 -20 -20 -20 -0 -20 -2 -2 -2 4 10 11 12 12 14 19 19
-20 -20 -20 -20 -20 -20 -20 -20 -20 -20 -20 -20 -20 -20 -20 -20 -20 -20 -20 -20 -20 -20 -20 -20 -20 -20 -20 -20 -13 2 -2 0 3 5 10 8 9 12
-20 -20 -20 -20 -20 -20 -20 -20 -20 -20 -20 -20 -20 -20 -20 -20 -20 -20 -20 -20 -20 -20 -20 -20 -20 -20 -20 -20 -20 -0 -10 -7 -20 -5 4 1 11 8
-20 -20 -20 -20 -20 -20 -20 -20 -20 -20 -20 -20 -20 -20 -13 -13 -12 -20 -20 -20 -20 -20 -20 -20 -10 -20 -20 -20 -20 -20 -20 -11 -20 -10 5 10 7 9
-20 -20 -20 -20 -20 -20 -20 -20 -20 -20 -20 -20 -10 -5 1 -12 -13 -13 -20 -20 -20 -20 -20 -20 -20 -20 -20 -20 -20 -20 -20 -13 2 6 10 6 7 11
-20 -20 -20 -20 -20 -20 -20 -20 -20 -5 -1 0 1 8 -0 -20 -20 -20 -20 -20 -20 -20 -20 -20 -20 -20 -20 -20 -20 -20 -20 -17 9 9 -8 7 5 7
-20 -20 -20 -20 -20 -20 -20 -20 -20 -18 5 7 -4 -20 -20 -20 -20 -20 -20 -15 -20 -20 -20 -20 -20 -20 -20 -20 -20 -20 -20 -20 -20 2 10 13 8 11
-20 -20 -20 -20 -20 -20 -20 -20 -20 -20 -20 -13 -4 -17 -20 -18 4 15 -3 -20 -20 -20 -20 -17 -20 -20 -20 -20 -20 -20 -20 -20 -20 -20 -17 4 11 12
-20 -20 -20 -20 -20 -20 -3 -20 -20 -20 -20 -20 -20 -13 2 -15 -17 -20 -20 -20 -20 -20 -20 -20 -20 -20 -20 -20 -20 -20 -20 -20 -20 -20 -20 -14 5 10
-20 -20 -20 -20 -20 -20 3 -1 -20 -20 -20 -19 -20 -20 -20 -20 -20 -20 -20 -2 -20 -19 -20 -20 -20 -19 -17 -20 -20 -20 -20 -20 -20 -20 -20 -20 -19 -1
-20 -20 -20 -20 -20 6 0 -20 -20 -15 -20 -20 -20 -20 -20 -20 -20 -20 -17 -12 -7 -19 -20 -0 4 -20 -6 -20 -20 -20 -20 -20 -20 -20 -20 -20 -20 -2
-20 -20 -20 -3 -12 -20 -14 -20 -9 -10 -20 -20 -20 -20 -20 -20 -20 -20 -20 -20 -20 -20 -20 -20 10 -10 -4 -12 -20 -20 -20 -20 -20 -20 -20 -20 -20 4
-20 -20 -2 -18 -20 -20 -20 -20 -20 -20 -20 -20 -20 -20 -20 -20 -20 -20 -20 -20 -20 -20 -20 -20 -18 -14 -3 1 -19 -20 -20 -20 -20 -20 -20 -20 -4 -19
-20 -20 -20 -20 -20 -20 -20 -20 -20 -20 -20 -20 -20 -20 -20 -20 -20 -20 -20 -20 -20 -20 -20 -20 -20 -11 3 -20 -6 -5 -20 -20 -20 -20 -17 -2 -3 -20
-10 -20 -20 -20 -20 -20 -20 -20 -20 -20 -20 -20 -20 -20 -20 -20 -20 -20 -20 -20 -14 -20 -20 -20 -20 -20 -20 -20 -4 -20 -20 -20 -20 -20 -20 -20 -20 -20
-20 -20 -20 -20 -20 -20 -20 -20 -20 -20 -20 -20 -20 -20 -20 -20 -20 -20 -20 -20 -20 -20 -20 -20 -20 -20 -20 -6 7 2 -17 -20 -20 -20 -20 -7 -18 -20
-20 -20 -20 -20 -20 -20 -20 -20 -20 -20 -20 -20 -20 -20 -20 -20 -20 -20 -20 -20 -20 -20 -20 -20 -15 -3 -2 -20 -20 4 13 1 -20 -20 -20 -15 -9 -20
-20 -20 -20 -20 -20 -20 -20 -20 -20 -20 -20 -20 -20 -20 -20 -20 -20 -20 -20 -20 -20 -18 -20 -20 -20 8 14 9 -2 -7 -15 3 6 -7 -20 -20 -20 -20
-20 -20 -20 -20 -20 -20 -20 -20 -20 -20 -12 1 -20 -20 -20 -7 -20 -20 -20 -20 -17 -20 -20 -20 -20 7 -15 -20 -19 -20 -16 -12 -18 8 10 -4 -18 -3
-20 -20 -20 -20 -20 -20 -20 -20 -20 -20 -20 -20 -20 -17 -15 -20 -20 -20 -20 -20 -20 -20 -20 -20 -17 -20 -20 -15 -17 -20 -20 -20 -20 -20 -9 12 23 18
-20 -20 -20 -20 -20 -20 -20 -20 -20 -20 -20 -20 -20 -1 4 6 -20 -20 -20 -20 -20 -12 1 -20 -20 -20 -20 -8 -0 -17 -20 -20 -20 -20 -20 -20 -11 15

GFSNE_prec_radar_051.txt.gz
Reflectivity
-20 -20 -20 -20 -20 -20 -20 -20 -20 -20 -20 -20 -20 -20 -20 -20 -20 -20 -20 -20 -20 -20 -20 -20 -20 -20 -20 -20 -10 1 7 15 16 16 16 20 20 -1
-20 -20 -20 -20 -20 -20 -20 -20 -20 -20 -20 -20 -20 -20 -20 -20 -20 -20 -20 -20 -20 -20 -20 -19 -13 -20 -20 3 -5 9 14 11 10 14 21 20 8 19
-20 -20 -20 -20 -20 -20 -20 -20 -20 -20 -20 -20 -20 -20 -20 -20 -20 -20 -20 -20 -20 -20 -20 -20 -20 -2 -17 -4 2 -3 1 9 8 13 15 21 21 20
-20 -20 -20 -20 -20 -20 -20 -20 -20 -20 -20 -20 -20 -20 -20 -20 -20 -20 -20 -20 -20 -20 -20 -20 -20 -20 -20 -20 -9 9 -14 -13 7 6 11 -14 11 14
-20 -20 -20 -20 -20 -20 -20 -20 -20 -20 -20 -20 -20 -20 -20 -20 -20 -20 -20 -20 -20 -20 -20 -20 -20 -20 -3 2 -16 -18 -20 -19 -20 -7 9 10 12 9
-20 -20 -20 -20 -20 -20 -20 -20 -20 -20 -20 -20 -20 -20 -20 -20 -20 -20 -20 -20 -20 -20 -20 -20 -20 -20 -20 -20 -20 -20 -20 -17 1 -10 10 11 13 13
-20 -20 -20 -20 -20 -20 -20 -20 -20 -20 -20 -20 -20 -20 -4 -6 -20 -20 -20 -20 -20 -20 -20 -20 -20 -20 -20 -20 -20 -20 -20 1 5 8 9 11 11 14
-20 -20 -20 -20 -20 -20 -20 -20 -20 -20 -20 -20 0 1 -20 -20 -20 -20 -20 -20 -20 -20 -20 -20 -20 -20 -20 -20 -20 -20 -20 -4 3 9 12 13 11 14
-20 -20 -20 -20 -20 -20 -20 -20 -20 -20 -7 4 -20 -20 -7 -20 -20 -20 -16 -2 -16 -20 -20 -20 -20 -20 -20 -20 -20 -20 -20 -20 -5 0 12 13 10 7
-20 -20 -20 -20 -20 -20 -20 -20 -20 -20 -20 -20 -19 -20 -20 -15 5 6 -11 -20 -20 -20 -20 -20 -20 -20 -20 -20 -20 -20 -20 -20 -20 -20 -20 -5 2 3
-20 -20 -20 -20 -20 -20 -14 -20 -20 -20 -20 -20 -20 -1 2 -15 -18 -20 -20 -20 -20 -20 -20 -20 -20 -20 -20 -20 -20 -20 -20 -20 -20 -20 -20 -20 -3 0
-20 -20 -20 -20 -20 -20 4 -6 -20 -20 -20 -20 -20 -20 -20 -20 -20 -20 -20 -20 -20 -15 -20 -13 -19 -20 -18 -20 -20 -20 -20 -20 -20 -20 -20 -20 -20 -20
-20 -20 -20 -20 1 5 3 -20 -20 -16 -20 -20 -20 -20 -20 -20 -20 -20 -20 -20 -16 -13 -20 11 5 -20 -4 -20 -20 -20 -20 -20 -20 -20 -20 -20 -20 -6
-20 -20 -20 -1 2 -13 -18 -20 -20 -20 -20 -20 -20 -20 -20 -20 -20 -20 -20 -20 -20 -19 -20 -20 11 -11 -6 -19 -20 -20 -20 -20 -20 -20 -20 -20 -20 -4
-20 -20 2 -15 -20 -20 -20 -20 -20 -20 -20 -20 -20 -20 -20 -20 -20 -20 -20 -20 -20 -20 -20 -20 -19 -20 -19 -19 -20 -20 -20 -20 -20 -20 -20 -20 -20 -20
-20 -20 -20 -20 -20 -20 -20 -20 -20 -20 -20 -20 -20 -20 -20 -20 -20 -20 -20 -20 -20 -20 -20 -20 -20 -20 -11 -19 -15 -17 -20 -20 -20 -20 -20 -20 -20 -7
-20 -20 -20 -20 -20 -20 -20 -20 -20 -20 -20 -20 -20 -20 -20 -20 -20 -20 -20 -20 -20 -20 -20 -20 -20 -20 -20 -20 -19 -20 -20 -20 -20 -20 -20 -20 -20 -20
-20 -20 -20 -20 -20 -20 -20 -20 -20 -20 -20 -20 -20 -20 -20 -20 -20 -20 -20 -20 -20 -20 -20 -20 -20 -20 -20 -8 -1 0 -12 -20 -20 -20 -20 -15 -20 -20
-20 -20 -20 -20 -20 -20 -20 -20 -20 -20 -20 -20 -20 -20 -20 -20 -20 -20 -20 -20 -20 -20 -20 -20 -20 -19 -5 -20 -20 -12 12 1 -20 -20 -20 -19 -5 -20
-20 -20 -20 -20 -20 -20 -20 -20 -20 -20 -20 -20 -20 -20 -20 -15 -20 -20 -20 -20 -20 -20 -20 -20 -20 -8 9 1 3 -17 -0 3 5 -5 -19 -20 -20 -12
-20 -20 -20 -20 -20 -20 -20 -20 -20 -20 -20 -15 -20 -20 -20 -3 -20 -20 -20 -20 -20 -20 -20 -20 -20 -14 -16 -5 -16 -20 -20 -12 -9 11 12 8 -20 -20
-20 -20 -20 -20 -20 -20 -20 -20 -20 -20 -20 -20 -20 -18 -20 -20 -20 -20 -20 -20 -20 -20 -20 -20 -20 -20 -20 -11 -20 -20 -20 -20 -20 -20 -20 -4 17 17
-20 -20 -20 -20 -20 -20 -20 -20 -20 -20 -20 -20 -20 -20 -20 -7 -20 -20 -20 -20 -20 -20 -20 -20 -20 -20 -20 -3 -19 -20 -20 -20 -20 -20 -11 -9 -20 -20

GFSNE_prec_radar_054.txt.gz
Reflectivity
-17 2 -20 -20 -20 -20 -20 -20 -20 -20 -20 -20 -20 -20 -20 -20 -20 -20 -20 -20 -20 -20 -20 -20 -20 -20 -20 -20 -19 6 16 5 13 -12 14 5 16 19
-20 -9 -19 -3 -20 -20 -20 -20 -20 -20 -20 -20 -20 -20 -20 -20 -20 -20 -20 -20 -20 -20 -20 -11 -16 -20 -20 -10 6 -13 4 16 11 16 13 20 19 18
-6 16 22 -14 -20 -20 -20 -20 -20 -20 -20 -20 -20 -20 -20 -20 -20 -20 -20 -20 -20 -20 -20 -15 -20 -5 -10 -20 -6 -3 -11 2 14 14 3 6 19 19
15 -18 -5 -20 -20 -20 -20 -20 -20 -20 -20 -20 -20 -20 -20 -20 -20 -20 -20 -20 -20 -20 -20 -20 -19 -20 -6 -2 -14 9 9 -1 7 7 7 1 10 10
18 28 -14 -20 -20 -20 -20 -20 -20 -20 -20 -20 -20 -20 -20 -20 -20 -20 -20 -20 -20 -20 -20 -20 -20 -20 -20 1 4 -20 -20 -16 -15 -17 -20 -6 11 9
26 4 -9 -20 -20 -20 -20 -20 -20 -20 -20 -20 -20 -20 -20 -20 -20 -20 -20 -20 -20 -20 -20 -20 -20 -20 -20 -20 -20 -20 -20 -20 -3 2 -5 8 11 13
4 -12 -20 -20 -20 -20 -20 -20 -20 -20 -20 -20 -20 -20 -20 -20 -20 -20 -20 -20 -20 -20 -20 -20 -20 -20 -20 -20 -20 -20 -20 -1 4 5 9 10 11 11
-20 -20 -20 -20 -20 -20 -20 -20 -20 -20 -20 -20 -20 -20 -20 -20 -20 -20 -20 -20 -20 -20 -20 -20 -20 -20 -20 -20 -20 -20 -20 -2 -10 3 7 9 10 14
-20 -20 -20 -20 -20 -20 -20 -20 -20 -20 -12 4 -7 -20 -20 -20 -20 -20 -19 1 -20 -20 -20 -20 -20 -20 -20 -20 -20 -20 -20 -4 -8 2 4 10 10 12
-20 -20 -20 -20 -20 -20 -20 -20 -20 -20 -20 -20 -20 -20 -20 -15 3 -5 -19 -20 -20 -20 -20 -20 -20 -20 -20 -20 -20 -20 -20 -20 -10 -5 0 -3 -5 0
-20 -20 -20 -20 -20 -20 -20 -20 -20 -20 -20 -20 -20 -2 -1 -15 -18 -20 -20 -20 -20 -20 -20 -20 -20 -20 -20 -20 -20 -20 -20 -20 -20 -20 -20 -3 -6 9
-20 -20 -20 -20 -20 -3 0 -20 -20 -20 -20 -20 -20 -20 -20 -20 -20 -20 -20 -20 -20 -20 -20 -20 -20 -20 -20 -20 -20 -20 -20 -20 -20 -20 -20 -20 -7 -20
-20 -20 -20 -20 1 1 -3 -20 -20 -16 -20 -20 -20 -20 -20 -20 -20 -20 -20 -20 -20 -20 -20 -1 -1 -20 -12 -20 -20 -20 -20 -20 -20 -20 -20 -20 -20 -3
-20 -20 -20 -9 -20 -20 -20 -20 -20 -20 -20 -20 -20 -20 -20 -20 -20 -20 -20 -20 -20 -20 -20 -20 7 -20 -7 -16 -20 -20 -20 -20 -20 -20 -20 -20 -20 -14
-20 -17 -10 -20 -20 -20 -20 -20 -20 -20 -20 -20 -20 -20 -20 -20 -20 -20 -20 -20 -20 -20 -20 -20 -20 -20 -18 -11 -20 -20 -20 -20 -20 -20 -20 -20 -20 -20
-20 -20 -20 -20 -20 -20 -20 -20 -20 -20 -20 -20 -20 -20 -20 -20 -20 -20 -20 -20 -20 -20 -20 -20 -20 -20 -20 -20 -20 -20 -20 -20 -20 -20 -20 -20 -20 -20
-20 -20 -20 -20 -20 -20 -20 -20 -20 -20 -20 -20 -20 -20 -20 -20 -20 -20 -20 -20 -20 -20 -20 -20 -20 -20 -20 -20 -20 -20 -20 -20 -20 -20 -20 -20 -20 -20
-20 -20 -20 -20 -20 -20 -20 -20 -20 -20 -20 -20 -20 -20 -20 -20 -20 -20 -20 -20 -20 -20 -20 -20 -20 -20 -20 -20 5 1 -17 -20 -20 -20 -20 -11 -20 -20
-20 -20 -20 -20 -20 -20 -20 -20 -20 -20 -20 -20 -20 -20 -20 -20 -20 -20 -20 -20 -20 -20 -20 -20 -19 1 4 -20 -7 12 19 11 -14 -20 -20 -20 -20 -20
-20 -20 -20 -20 -20 -20 -20 -20 -20 -20 -20 -20 -20 -20 -20 -20 -20 -20 -20 -20 -20 -20 -20 -20 -20 -16 6 2 8 5 11 10 3 -11 -20 -20 -20 -20
-20 -20 -20 -20 -20 -20 -20 -20 -20 -20 -20 -20 -20 -20 -20 -12 -20 -20 -20 -20 -20 -20 -20 -20 -20 -7 -4 -8 -17 -20 -12 11 13 17 11 7 -17 -20
-20 -20 -20 -20 -20 -20 -20 -20 -20 -20 -20 -20 -20 -20 -20 -20 -20 -20 -20 -20 -20 -20 -20 -20 -20 -7 -10 4 -14 -20 -20 -20 10 16 21 21 19 19
-20 -20 -20 -20 -20 -20 -20 -20 -20 -20 -20 -20 -20 -20 -20 -19 -20 -20 -20 -20 -20 -11 -20 -20 -19 -6 4 14 13 11 -19 -20 -20 -20 -7 -5 -19 -6

GFSNE_prec_radar_057.txt.gz
Reflectivity
8 1 6 -6 2 -5 -6 -20 -20 -20 -20 -20 -20 -20 -20 -20 -20 -20 -20 -20 -20 -20 -20 -20 -20 -20 -18 -20 -20 -18 2 -5 7 10 11 9 11 20
20 -16 16 2 -20 -20 -16 5 9 -20 -20 -20 -20 -20 -20 -20 -20 -20 -20 -20 -20 -20 -20 -20 -12 -12 -20 -20 -6 4 -10 -8 -2 11 11 -2 16 20
-17 18 31 6 -15 -3 -20 -19 -11 -20 -20 -20 -20 -20 -20 -20 -20 -20 -20 -20 -20 -20 -20 -20 -2 -20 -20 -20 -20 -20 -7 -5 12 13 16 18 14 12
18 15 -18 7 16 19 -7 -10 -20 -20 -20 -20 -20 -20 -20 -20 -20 -20 -20 -20 -20 -20 -20 -20 -19 -20 -20 -20 -20 -20 8 11 10 5 -13 -0 -18 8
13 2 28 19 7 0 7 -17 -20 -20 -20 -20 -20 -20 -20 -20 -20 -20 -20 -20 -20 -20 -20 -20 -20 -20 -20 -18 2 1 -16 -16 -18 -9 -20 -20 -17 -13
18 18 3 2 -3 -10 -20 -20 -20 -20 -20 -20 -20 -20 -20 -20 -20 -20 -20 -20 -20 -20 -20 -20 -20 -20 -20 -20 -20 -20 -20 -20 -1 2 0 1 -20 3
13 0 10 -15 -20 -20 -20 -20 -20 -20 -20 -20 -20 -20 -20 -20 -20 -20 -20 -20 -20 -20 -20 -20 -20 -20 -20 -20 -20 -20 -20 -20 0 2 9 7 9 11
8 15 -15 -20 -20 -20 -20 -20 -20 -20 -20 -20 -20 -20 -20 -20 -20 -20 -20 -20 -20 -20 -20 -20 -20 -20 -20 -20 -20 -20 -20 -20 -0 5 9 10 12 14
20 13 -17 -20 -20 -20 -20 -20 -20 -20 -20 -2 -11 -20 -20 -20 -20 -20 -20 -19 -20 -20 -20 -20 -20 -20 -20 -20 -20 -20 -20 -20 -6 -3 4 5 10 12
-20 -20 -20 -20 -20 -20 -20 -20 -20 -20 -20 -20 -20 -20 -20 -20 -1 -4 -14 -20 -20 -20 -20 -20 -20 -20 -20 -20 -20 -20 -20 -20 -20 -2 -3 2 5 2
-20 -20 -20 -20 -20 -20 -20 -7 -20 -20 -20 -20 -20 -18 -16 -16 -20 -20 -20 -20 -20 -20 -20 -20 -20 -20 -20 -20 -20 -20 -20 -20 -20 -20 -20 -2 -1 -2
-20 -20 -20 -20 -20 -4 -15 -20 -20 -20 -20 -20 -20 -20 -20 -20 -20 -20 -20 -20 -20 -20 -20 -20 -20 -19 -20 -20 -20 -20 -20 -20 -20 -20 -20 -20 -3 -20
-20 -20 -20 -20 -20 -6 -15 -20 -20 -17 -20 -20 -20 -20 -20 -20 -20 -20 -20 -20 -20 -20 -20 3 -6 -20 -4 -20 -20 -20 -20 -20 -20 -20 -20 -20 -20 -10
-20 -20 -20 -7 -20 -20 -20 -20 -20 -20 -20 -20 -20 -20 -20 -20 -20 -20 -20 -20 -20 -20 -20 -19 13 -19 -12 -13 -20 -20 -20 -20 -20 -20 -20 -20 -20 -16
-20 -17 -20 -20 -20 -20 -20 -20 -20 -20 -20 -20 -20 -20 -20 -20 -20 -20 -20 -20 -20 -20 -20 -20 -18 -20 -5 -12 -20 -20 -20 -20 -20 -20 -20 -20 -20 -20
-20 -20 -20 -20 -20 -20 -20 -20 -20 -20 -20 -20 -20 -20 -20 -20 -20 -20 -20 -20 -20 -20 -20 -20 -20 -20 -12 -20 -20 -20 -20 -20 -20 -20 -20 -20 -20 -20
-20 -20 -20 -20 -20 -20 -20 -20 -20 -20 -20 -20 -20 -20 -20 -20 -20 -20 -20 -20 -20 -20 -20 -20 -20 -20 -20 -20 -17 -19 -20 -20 -20 -20 -20 -20 -20 -20
-20 -20 -20 -20 -20 -20 -20 -20 -20 -20 -20 -20 -20 -20 -20 -20 -20 -20 -20 -20 -20 -20 -20 -20 -20 -20 -20 7 15 7 -11 -20 -20 -20 -20 -6 -19 -20
-20 -20 -20 -20 -20 -20 -20 -20 -20 -20 -20 -20 -20 -20 -20 -20 -20 -20 -20 -20 -20 -20 -20 -20 -17 -1 6 -2 14 19 21 11 -7 -7 -20 -20 -20 -20
-20 -20 -20 -20 -20 -20 -20 -20 -20 -20 -20 -20 -20 -20 -20 -20 -20 -20 -20 -20 -18 -20 -20 -19 -5 6 10 9 12 -15 11 17 5 -12 -20 -20 -20 -20
-20 -20 -20 -20 -20 -20 -20 -20 -20 -20 -20 -20 -20 -20 -20 -19 -20 -20 -20 -20 -16 -20 -18 -16 -9 1 6 -4 -16 -20 3 18 20 19 9 2 -18 -20
-20 -20 -20 -20 -20 -20 -20 -20 -20 -20 -20 -20 -20 -20 -20 -20 -19 -20 -20 -20 -20 -20 -20 -20 -0 7 -2 7 -2 -20 -20 -9 11 14 18 16 18 18
-20 -20 -20 -20 -20 -20 -20 -20 -20 -20 -20 -20 -20 -20 -20 -20 -20 -20 -18 -20 -20 -10 -19 -11 -20 -3 6 14 12 7 -19 -20 -20 -20 -3 9 11 4

GFSNE_prec_radar_060.txt.gz
Reflectivity
-18 -18 1 3 -14 12 -2 20 -9 -6 -20 -20 -18 -20 -20 -20 -20 -20 -20 -20 -20 -20 -20 -20 -20 -20 -20 -5 -0 -13 -20 -3 8 1 -20 7 12 17
-20 16 -16 20 1 6 30 9 34 26 -20 -20 -20 -18 -20 -20 -20 -20 -20 -20 -20 -20 -20 -20 -20 -2 -18 -20 -11 7 -5 -8 6 4 11 -4 14 17
-13 17 17 13 7 7 -9 32 9 13 1 -20 -20 -20 -20 -20 -20 -20 -20 -20 -20 -20 -20 -20 -8 -1 -8 -12 1 -15 -13 7 8 9 13 16 16 12
16 15 26 -15 29 26 24 23 9 -20 -20 -20 -20 -20 -20 -20 -20 -20 -20 -20 -20 -20 -20 -20 -10 -20 -19 -2 2 5 10 9 10 9 10 11 12 5
23 29 15 33 11 27 12 1 -17 -20 -20 -20 -20 -20 -20 -20 -20 -20 -20 -20 -20 -20 -20 -20 -20 -20 -20 -2 3 -3 -17 -3 -2 -12 -16 -17 -20 -20
33 17 15 31 25 33 21 10 -11 -18 -20 -20 -20 -20 -20 -20 -20 -20 -20 -20 -20 -20 -20 -20 -20 -20 -20 -20 -20 -20 -20 -20 -20 -5 2 1 2 5
29 28 26 28 21 14 12 9 -0 -11 -20 -20 -20 -20 -20 -20 -20 -20 -20 -20 -20 -20 -20 -20 -20 -20 -20 -20 -20 -20 -20 -20 -16 1 5 11 10 11
13 23 20 12 8 0 -7 -20 -20 -20 -20 -20 -20 -20 -20 -20 -20 -20 -20 -20 -20 -20 -20 -20 -20 -20 -20 -20 -20 -20 -20 -20 -20 2 3 12 11 12
21 16 13 9 3 -20 -20 -20 -20 -20 -20 -4 -8 -20 -20 -20 -20 -20 -12 -20 -20 -20 -20 -20 -20 -20 -20 -20 -20 -20 -20 -20 -20 -5 1 5 11 9
14 12 1 -20 -20 -20 -20 -20 -20 -20 -20 -20 -20 -20 -20 -20 -8 -6 -19 -20 -20 -20 -20 -20 -20 -20 -20 -20 -20 -20 -20 -20 -20 -6 -2 -1 9 7
1 -10 -20 -20 -20 -20 -20 -20 -20 -20 -20 -20 -20 -20 -16 -17 -20 -20 -20 -20 -20 -20 -20 -20 -20 -20 -20 -20 -20 -20 -5 -14 -20 -20 -20 -13 -1 4
-20 -20 -20 -20 -20 -19 -20 -20 -20 -20 -20 -20 -20 -20 -20 -20 -20 -20 -20 -20 -20 -20 -20 -19 -20 -20 -20 -20 -20 -20 -20 -20 -20 -20 -20 -20 -19 -20
-20 -20 -20 -20 -6 -20 -20 -20 -20 -14 -20 -20 -20 -20 -20 -20 -20 -20 -20 -20 -20 -20 -20 -5 -7 -20 -14 -20 -20 -20 -20 -20 -20 -20 -20 -20 -20 -1
-20 -20 -20 -20 -20 -20 -20 -20 -1 -16 -20 -20 -20 -20 -20 -20 -20 -20 -20 -20 -20 -20 -20 -20 5 -20 -11 -20 -20 -20 -20 -20 -20 -20 -20 -20 -20 -16
-20 -20 -20 -20 -20 -20 -20 -20 -20 -20 -20 -20 -20 -20 -20 -20 -20 -20 -20 -20 -20 -20 -20 -20 -20 -20 -18 -20 -20 -20 -20 -20 -20 -20 -20 -20 -20 -20
-20 -20 -20 -20 -20 -20 -20 -20 -20 -20 -20 -20 -20 -20 -20 -20 -20 -20 -20 -20 -20 -20 -20 -20 -20 -20 -12 -19 -19 -20 -20 -20 -20 -20 -20 -20 -20 -20
-20 -20 -20 -20 -20 -20 -20 -20 -20 -20 -20 -20 -20 -20 -20 -20 -20 -20 -20 -20 -20 -20 -20 -20 -20 -20 -20 1 10 -18 -20 -20 -20 -20 -20 -20 -20 -20
-20 -20 -20 -20 -20 -20 -20 -20 -20 -20 -20 -20 -20 -20 -20 -20 -20 -20 -20 -20 -20 -20 -20 -20 -20 -20 -20 5 7 1 -9 -20 -20 -20 -20 -5 -20 -20
-20 -20 -20 -20 -20 -20 -20 -20 -20 -20 -20 -20 -20 -20 -20 -20 -20 -20 -20 -20 -20 -20 -20 -20 0 3 -1 -20 7 19 22 3 -20 -20 -20 -20 -20 -20
-20 -20 -20 -20 -20 -20 -20 -20 -20 -20 -20 -20 -20 -20 -20 -20 -20 -20 -20 -20 -20 -20 -20 -20 -20 7 15 12 12 -13 15 14 -5 -16 -20 -20 -20 -20
-20 -20 -20 -20 -20 -20 -20 -20 -20 -20 -20 -20 -20 -20 -20 -20 -20 -20 -20 -20 -20 -20 -20 -20 -20 -15 -10 -19 -20 -20 8 17 14 13 3 -0 -12 -4
-20 -20 -20 -20 -20 -20 -20 -20 -20 -20 -20 -20 -20 -20 -20 -20 -19 -20 -20 -20 -20 -20 -20 -20 -20 -18 -12 2 -7 -20 -20 -16 9 13 10 1 13 15
-20 -20 -20 -20 -20 -20 -20 -20 -20 -20 -20 -20 -20 -20 -20 -20 -20 -20 -20 -20 -20 -20 -20 -20 -20 -20 1 11 6 -2 -20 -20 -20 -20 -14 1 -20 -3

GFSNE_prec_radar_063.txt.gz
Reflectivity
6 0 6 37 -20 -18 -20 -13 -1 17 -20 1 21 20 21 -20 -20 -20 -20 -20 -20 -20 -20 -20 -20 -20 -20 -17 -3 -6 -20 -0 1 -5 6 7 10 9
-20 -9 -17 8 -4 -20 31 11 10 17 -1 16 14 -3 -9 3 -20 -20 -20 -20 -20 -20 -20 -20 -20 -15 -20 -20 -17 4 -8 11 7 10 9 17 15 15
-13 -20 -20 -16 -15 -3 0 25 30 39 35 27 22 2 -10 -20 -20 -20 -20 -20 -20 -20 -20 -20 -20 -8 -1 -14 -20 -8 -8 9 13 12 13 17 18 19
-11 4 11 -4 13 21 21 25 40 21 9 -14 7 14 13 6 -5 -19 -20 -20 -20 -20 -20 -20 -20 -20 -20 -17 0 -19 -17 -6 9 12 10 -6 13 10
-14 -6 -12 17 28 30 38 22 10 17 10 10 10 12 2 4 -18 -20 -20 -20 -20 -20 -20 -20 -20 -20 -20 -13 -6 -13 -20 -16 -3 -1 2 -20 -20 -20
18 7 8 32 32 27 17 11 11 11 14 5 -13 -20 -20 -20 -20 -20 -20 -20 -20 -20 -20 -20 -20 -20 -20 -20 -20 -20 -20 -20 -20 -5 -0 -7 3 5
22 34 33 23 21 17 8 2 10 15 14 -20 -20 -20 -20 -20 -20 -20 -20 -20 -20 -20 -20 -20 -20 -20 -20 -20 -20 -20 -20 -20 -15 1 5 10 11 12
22 14 10 20 14 10 6 6 1 -20 -20 -20 -20 -20 -20 -20 -20 -20 -20 0 -20 -20 -20 -20 -20 -20 -20 -20 -20 -20 -20 -20 -20 2 4 7 11 10
19 -16 -16 -2 7 6 -3 -5 -0 -0 -9 -12 -8 -20 -20 -20 -20 -20 -14 4 -3 -20 -20 -20 -20 -20 -20 -20 -20 -20 -20 -20 -20 -14 2 5 8 9
10 16 13 7 -1 -20 -20 -20 -20 -20 -20 -20 -20 -20 -20 -19 -6 -9 -11 -20 -20 -20 -20 -20 -20 -20 -20 -20 -20 -20 -20 -20 -20 -20 -6 -1 1 5
-7 -11 -15 -20 -20 -20 -20 -20 -20 -20 -20 -20 -20 -20 -18 -20 -20 -20 -20 -20 -20 -20 -20 -20 -20 -20 -20 -20 -20 -20 -20 -20 -20 -20 -20 -20 -1 -6
-16 -20 -20 -20 -20 -20 -20 -20 -20 -20 -20 -20 -20 -20 -20 -20 -20 -20 -20 -20 -20 -20 -20 -19 -20 -19 -20 -20 -20 -20 -20 -20 -20 -20 -20 -20 -19 -17
-20 -20 -20 -20 -20 -20 -20 -20 -20 -20 -20 -20 -20 -20 -20 -20 -20 -20 -20 -20 -12 -20 -20 4 -13 -20 -6 -20 -20 -20 -20 -20 -20 -20 -20 -20 -20 -4
-20 -20 -20 -20 -20 -20 -20 -20 -5 -20 -20 -20 -20 -20 -20 -20 -20 -20 -20 -20 -20 -15 -20 -11 5 -20 -20 -20 -20 -20 -20 -20 -20 -20 -20 -20 -20 -20
-20 -20 -20 -20 -20 -20 -20 -20 -20 -20 -20 -20 -20 -20 -20 -20 -20 -20 -20 -20 -20 -20 -20 -20 -20 -20 -18 -15 -20 -20 -20 -20 -20 -20 -20 -20 -20 -20
-20 -20 -20 -20 -20 -20 -20 -20 -20 -20 -20 -20 -20 -20 -20 -20 -20 -20 -20 -20 -20 -20 -20 -20 -20 -20 -19 -20 -20 -20 -20 -20 -20 -20 -20 -20 -20 -1
-20 -20 -20 -20 -20 -20 -20 -20 -20 -20 -20 -20 -20 -20 -20 -20 -20 -20 -20 -20 -20 -20 -20 -20 -20 -20 -20 -18 -6 -20 -20 -20 -20 -20 -20 -20 -20 -20
-20 -20 -20 -20 -20 -20 -20 -20 -20 -20 -20 -20 -20 -20 -20 -20 -20 -20 -20 -20 -20 -20 -20 -20 -20 -20 -20 -20 -19 -15 -18 -20 -20 -20 -19 -16 -19 -20
-20 -20 -20 -20 -20 -20 -20 -20 -20 -20 -20 -20 -20 -20 -20 -20 -20 -20 -20 -20 -20 -20 -20 -20 -20 -17 -18 -20 -20 9 13 -9 -20 -20 -19 -20 -20 -20
-20 -20 -20 -20 -20 -20 -20 -20 -20 -20 -20 -20 -20 -20 -20 -20 -20 -20 -20 -20 -20 -20 -20 -20 -20 -17 8 8 7 -20 8 6 -20 -20 -20 -20 -20 -20
-20 -20 -20 -20 -20 -20 -20 -20 -20 -20 -20 -20 -20 -20 -20 -20 -20 -20 -20 -20 -20 -20 -20 -20 -20 -11 -8 -6 -11 -20 -20 12 3 -3 -13 -14 -20 -20
-20 -20 -20 -20 -20 -20 -20 -20 -20 -20 -20 -20 -20 -20 -20 -20 -20 -20 -20 -20 -20 -20 -20 -20 -20 -2 4 6 -20 -20 -20 -20 -1 12 14 26 21 14
-20 -20 -20 -20 -20 -20 -20 -20 -20 -20 -20 -20 -20 -20 -20 -20 -20 -20 -20 -20 1 -20 -20 -20 -14 -1 4 -1 -20 -20 -20 -20 -20 -20 -1 15 19 20

GFSNE_prec_radar_069.txt.gz
Reflectivity
21 15 17 22 25 13 -20 20 37 36 35 27 30 6 -15 18 28 26 25 9 10 6 15 5 -14 -20 -20 -20 -20 -20 -20 -20 -20 -18 -7 -20 8 17
22 20 15 19 21 22 37 22 20 38 33 24 -7 16 16 10 15 28 4 20 -1 -19 -20 -13 -20 -20 -20 -20 -20 -20 -20 -20 -6 -0 -8 2 8 19
1 17 22 8 8 25 30 28 15 17 28 28 5 22 0 8 7 11 13 3 -20 -20 -20 -20 -20 -20 -20 -20 -20 -20 -20 -20 -20 -20 -20 -14 2 10
9 -4 14 21 -5 -20 9 37 25 32 6 13 8 -7 -13 -10 3 5 2 -19 -20 -20 -20 -20 -20 -20 -20 -20 -20 -7 -8 -20 -1 0 -0 -19 -0 -19
11 13 21 4 19 -2 -2 17 -20 -18 2 11 15 -1 -16 -4 -18 -20 -20 -20 -20 -20 -20 -20 -20 -20 -20 -20 -20 -20 -20 -7 -15 -11 -7 -16 -17 -20
-10 17 21 4 2 2 -15 -20 -12 -14 -20 -17 -20 -19 -12 -20 -20 -20 -20 -20 -20 -20 -20 -20 -20 -20 -20 -20 -20 -20 -20 -20 -20 -15 -4 -0 0 -0
7 25 17 23 1 7 -4 -20 -20 -19 -6 -16 -8 -20 -16 -20 -20 -20 -20 -20 -20 -20 -20 -20 -20 -20 -20 -20 -20 -20 -20 -20 -20 -5 -1 -1 11 6
13 29 26 23 4 11 14 -7 18 -3 3 -16 -16 -10 -11 -20 -20 -20 -20 -20 -20 -20 -20 -20 -20 -20 -20 -20 -20 -20 -20 -20 -20 -2 -1 -6 -13 12
30 30 23 20 -0 10 -14 -13 -1 0 -14 -20 -20 -20 -20 -20 -20 -20 -20 -20 -20 -20 -20 -20 -20 -20 -20 -20 -20 -20 -20 -20 -20 -20 -20 -1 -1 1
30 30 15 13 15 6 4 -2 -15 -20 -20 -20 -20 -20 -20 -20 -20 -20 -20 -20 -20 -20 -20 -20 -20 -20 -20 -20 -20 -20 -20 -20 -20 -20 -20 -20 -4 -1
5 2 -1 0 -9 -19 -20 -20 -20 -20 -20 -20 -20 -20 -20 -20 -20 -20 -20 -7 -20 -20 -20 -20 -20 -20 -20 -20 -20 -20 -20 -20 -20 -20 -20 -20 -13 -2
-20 -20 -20 -20 -20 -20 -20 -20 -20 -20 -20 -20 -20 -20 -20 -20 -20 -20 -20 -20 -20 -16 -20 -20 -20 -19 -20 -20 -20 -20 -20 -20 -20 -20 -20 -20 -20 -20
-20 -20 -20 -20 -20 -20 -20 -20 -20 -20 -20 -20 -20 -20 -20 -20 -20 -20 -20 -16 -20 -20 -20 -13 -20 -20 -20 -20 -20 -20 -20 -20 -20 -20 -20 -20 -20 -12
-20 -20 -20 -20 -20 -20 -20 -20 -20 -20 -20 -20 -20 -20 -20 -20 -20 -20 -20 -20 -20 -17 -20 -19 -17 -18 -20 -20 -20 -20 -20 -20 -20 -20 -20 -20 -17 -8
-20 -20 -20 -20 -20 -20 -20 -20 -20 -20 -20 -20 -20 -20 -20 -20 -20 -20 -20 -20 -20 -20 -19 -20 -20 -20 -20 -20 -19 -20 -20 -20 -20 -20 -20 -20 -20 -20
-20 -20 -20 -20 -20 -20 -20 -20 -20 -20 -20 -20 -20 -20 -20 -20 -20 -20 -20 -20 -20 -20 -20 -20 -7 -19 -17 -20 -19 -20 -20 -20 -20 -20 -20 -20 -20 -20
-20 -20 -20 -20 -20 -20 -20 -20 -20 -20 -20 -20 -20 -20 -20 -20 -20 -20 -20 -15 -20 -20 -20 -20 -20 -19 -19 -20 -19 -20 -20 -20 -20 -20 -17 -19 -20 -20
-20 -20 -20 -20 -20 -20 -20 -20 -20 -20 -20 -20 -20 -20 -20 -20 -20 -19 -4 -12 -20 -20 -20 -20 -20 -20 -20 -20 -20 -20 -18 -19 -20 -9 1 -15 -20 -20
-20 -20 -20 -20 -20 -20 -20 -20 -20 -20 -20 -20 -20 -20 -20 -20 -19 -5 -20 -3 -20 -20 -20 -20 -20 -12 -11 -20 -14 3 -10 -20 -16 -20 -20 -20 -20 -20
-20 -20 -20 -20 -20 -20 -20 -20 -20 -20 -16 -20 -20 -16 -9 -4 -3 -20 -20 -20 -20 -20 -20 -20 -20 -16 2 -8 -12 -20 -10 -11 -20 -15 -20 -20 -20 -7
-20 -20 -20 -20 -20 -20 -20 -20 -20 -20 -20 -19 -20 -20 -20 -20 -20 -20 -20 -9 4 -15 -19 -20 -20 -16 -9 -10 -6 -20 -17 5 -12 -14 -20 -10 -20 -20
-20 -20 -20 -20 -20 -20 -20 -20 -20 -18 -20 -18 -20 -20 -20 -12 -13 -20 -20 -20 -20 -20 -20 -20 -20 -7 -12 -19 -13 -9 -20 -20 -20 -20 -20 3 10 13
-20 -20 -20 -20 -20 -20 -20 -20 -19 -20 -20 -20 -20 -20 -20 -20 -20 -20 -20 -20 -20 -20 -20 -17 -13 -20 -20 -15 3 -20 -20 -20 -20 -20 4 14 1 -12

GFSNE_prec_radar_072.txt.gz
Reflectivity
17 22 20 21 19 22 14 8 14 22 19 20 26 39 33 36 38 34 15 27 12 7 13 -2 -20 -20 -20 -20 -20 -20 -20 -20 -20 -18 -20 -20 -10 -17
18 21 22 20 20 15 18 21 21 21 25 31 23 36 32 29 34 22 2 3 1 1 -19 -20 -20 -20 -20 -20 -20 -20 -20 -20 -20 -15 -11 6 10 15
8 13 9 13 18 15 20 25 22 5 5 31 22 22 36 7 -13 4 12 -19 -19 -17 -19 -20 -20 -20 -20 -20 -20 -20 -2 -20 -3 -20 -20 -6 10 15
-14 -20 5 7 12 16 15 14 16 7 -13 12 11 7 -20 -14 -15 -18 -1 -20 -20 -20 -20 -20 -20 -20 -20 -20 -20 -20 -3 -2 2 9 4 12 4 -20
13 -3 -20 -20 -19 -9 9 13 -11 -15 -5 18 -6 -20 -20 -20 -20 -20 -20 -20 -20 -20 -20 -20 -20 -20 -20 -20 -20 -20 -19 -5 1 -3 5 1 -20 -20
10 12 9 -20 -20 -19 3 21 1 10 -0 -20 -20 -20 -20 -20 -20 -20 -19 -17 -20 -20 -20 -20 -20 -20 -20 -20 -20 -20 -20 -20 -20 -20 -10 -20 -13 8
14 10 14 15 11 16 32 37 -1 -20 -19 -12 -20 -20 -19 -11 -12 -19 -20 -20 -20 -20 -20 -20 -20 -20 -20 -20 -20 -20 -20 -20 -20 -20 -20 -20 -4 6
-8 9 8 21 26 33 12 25 13 -16 -12 -3 -15 -3 -8 -20 -20 -20 -20 -20 -20 -20 -20 -20 -20 -20 -20 -20 -20 -20 -20 -20 -20 -20 -20 -20 -20 -20
-12 -0 20 29 29 12 21 14 -2 4 -3 -11 -19 -20 -20 -20 -20 -20 -20 -20 -20 -20 -20 -20 -20 -20 -20 -20 -20 -20 -20 -20 -20 -20 -8 -0 0 1
-20 3 6 7 4 -7 -19 -20 -20 -20 -20 -20 -20 -20 -20 -20 -20 -20 -20 -20 -20 -20 -20 -20 -20 -20 -20 -20 -20 -20 -20 -20 -20 -20 -20 -4 11 12
-20 -20 -20 -20 -15 -19 -19 -19 -19 -20 -20 -20 -20 -20 -20 -20 -20 -20 -20 -20 -20 -20 -20 -20 -20 -20 -20 -20 -20 -20 -20 -20 -20 -20 -20 -4 7 11
-20 -20 -20 -20 -20 -20 -20 -20 -20 -20 -20 -20 -20 -20 -20 -20 -20 -20 -20 -20 -20 -20 -20 -20 -20 -20 -20 -20 -20 -20 -20 -20 -20 -20 -20 -20 -15 -15
-20 -20 -20 -20 -20 -20 -20 -20 -20 -20 -20 -20 -20 -20 -20 -20 -20 -20 -20 -20 -20 -20 -20 -14 -20 -20 -17 -20 -20 -20 -20 -20 -20 -20 -20 -20 -20 -0
-20 -20 -20 -20 -20 -20 -20 -20 -20 -20 -20 -20 -20 -20 -20 -20 -20 -20 -20 -20 -20 -20 -20 -19 -7 -18 -18 -20 -20 -20 -20 -20 -20 -20 -20 -20 -20 -20
-20 -20 -20 -20 -20 -20 -20 -20 -20 -20 -20 -20 -20 -20 -20 -20 -20 -20 -20 -20 -20 -20 -19 -20 -18 -20 -13 -18 -19 -20 -20 -20 -20 -20 -20 -20 -20 -20
-20 -20 -20 -20 -20 -20 -20 -20 -20 -20 -20 -20 -20 -20 -20 -20 -20 -20 -20 -20 -20 -20 -20 -20 -20 -20 -18 -19 -20 -20 -20 -18 -20 -20 -20 -20 -20 -20
-20 -20 -20 -20 -20 -20 -20 -20 -20 -20 -20 -20 -20 -20 -20 -20 -20 -20 -20 -20 -20 -20 -20 -20 -20 -20 -20 -20 -20 -20 -20 -20 -20 -20 -20 -20 -13 -20
-20 -20 -20 -20 -20 -20 -20 -20 -20 -20 -20 -20 -20 -20 -20 -20 -20 -20 -20 -20 -20 -20 -20 -20 -20 -20 -20 -20 -20 -20 -20 -13 -20 -20 -20 -20 -20 -20
-20 -20 -20 -20 -20 -20 -20 -20 -20 -20 -20 -20 -20 -20 -20 -20 -20 -20 -20 -20 -20 -20 -20 -20 -20 -18 -18 -20 -20 -20 -20 -20 -20 -20 -20 -20 -20 -20
-20 -20 -20 -20 -20 -20 -20 -20 -20 -20 -20 -20 -20 -20 -20 -20 -20 -20 -20 -20 -20 -20 -16 -9 -18 -20 -10 -18 -6 -20 -20 -20 -19 -11 -20 -20 -20 -20
-20 -20 -20 -20 -20 -20 -20 -20 -20 -20 -16 -20 -20 -20 -20 -20 -20 -20 -20 -11 -3 -20 -20 -20 -20 -20 -20 -20 2 -20 -20 -20 -13 2 -17 -5 -19 -20
-20 -20 -20 -20 -20 -20 -20 -20 -20 -20 -20 -20 -20 -20 -20 -20 -20 -20 -20 -20 -20 -20 -20 -20 -20 -20 -17 -2 -20 -20 -20 -20 -20 -20 -20 2 15 14
-20 -20 -20 -20 -20 -20 -20 -20 -20 -20 -20 -20 -20 -20 -20 -20 -20 -20 -20 -20 -20 -19 -20 -20 -20 -18 -20 -20 -12 -15 -20 -20 -20 -20 7 13 -11 -20

GFSNE_prec_radar_075.txt.gz
Reflectivity
-18 -19 15 9 24 24 28 27 25 20 14 15 17 37 31 20 23 26 30 28 31 27 22 9 -3 -6 -15 -19 -20 -20 -20 -20 -20 -20 -20 -13 -3 -18
-20 1 -18 -4 6 5 13 7 18 30 30 15 20 25 10 26 26 28 28 17 17 12 1 -13 -11 -19 -20 -20 -20 -20 -20 -12 -0 0 -11 5 8 11
-20 -20 -20 -20 -20 -19 -18 -14 -14 2 15 7 2 25 10 10 4 -4 -3 -13 -7 -8 -18 -20 -20 -20 -20 -20 -20 -15 -2 0 -17 -17 -20 -6 10 13
-20 -20 6 13 6 7 -19 4 -19 -5 21 6 -0 -9 7 -8 -20 -20 -20 -20 -20 -20 -20 -20 -20 -20 -20 -20 -20 -20 -20 -1 -20 3 11 7 -14 11
-20 -20 -5 12 15 -13 -8 3 -20 -15 -5 16 11 5 2 -12 -7 9 -4 -20 -20 -20 -20 -20 -20 -20 -20 -20 -20 -20 -20 -20 -20 -20 -20 -20 -20 -20
-20 -20 -14 -5 5 12 -13 -20 -20 -19 -11 33 29 -20 -20 -20 -20 -20 -20 -20 -20 -20 -20 -20 -20 -20 -20 -20 -20 -20 -20 -20 -20 -20 -20 -11 -20 2
-15 -18 -16 3 11 -2 -8 9 9 -2 12 10 7 -19 -20 -9 -13 -16 -20 -20 -20 -20 -20 -20 -20 -20 -20 -20 -20 -20 -20 -20 -20 -10 -16 -15 10 11
-20 -6 -13 2 -11 2 7 13 14 32 27 16 3 8 -6 -20 -20 -20 -20 -20 -20 -20 -20 -20 -20 -20 -20 -20 -20 -20 -20 -20 -20 -5 -0 11 12 8
-20 -20 -20 -20 -20 -20 -20 -20 -12 -20 -20 -20 -20 -20 -20 -20 -20 -20 -20 -20 -20 -20 -20 -20 -20 -20 -20 -20 -20 -20 -20 -20 -20 -20 -4 -18 5 8
-20 -20 -20 -20 -20 -20 -20 -20 -20 -20 -20 -20 -20 -20 -20 -20 -20 -20 -20 -20 -20 -20 -20 -20 -20 -20 -20 -20 -20 -20 -20 -20 -20 -20 -20 -13 0 -2
-20 -20 -20 -20 -20 -20 -20 -20 -20 -20 -20 -20 -20 -20 -20 -20 -20 -20 -20 -20 -20 -20 -20 -20 -20 -20 -20 -20 -20 -20 -20 -20 -20 -20 -20 -14 -2 8
-20 -20 -20 -20 -20 -20 -20 -20 -20 -20 -20 -20 -20 -20 -20 -20 -20 -20 -20 -20 -20 -20 -20 -20 -20 -20 -20 -20 -20 -20 -20 -20 -20 -20 -20 -20 -3 -20
-20 -20 -20 -20 -20 -20 -20 -20 -20 -20 -20 -20 -20 -20 -20 -20 -20 -20 -20 -20 -20 -20 -20 -19 -20 -20 -20 -20 -20 -20 -20 -20 -20 -20 -20 -20 -20 -1
-20 -20 -20 -20 -20 -20 -20 -20 -20 -20 -20 -20 -20 -20 -20 -20 -20 -20 -20 -20 -20 -20 -20 -20 -18 -20 -19 -20 -20 -20 -20 -20 -20 -20 -20 -20 -20 -20
-20 -20 -20 -20 -20 -20 -20 -20 -20 -20 -20 -20 -20 -20 -20 -20 -20 -20 -20 -20 -20 -20 -20 -20 -20 -20 -18 -18 -20 -20 -20 -20 -20 -20 -20 -20 -20 -20
-20 -20 -20 -20 -20 -20 -20 -20 -20 -20 -20 -20 -20 -20 -20 -20 -20 -20 -20 -20 -20 -20 -20 -20 -20 -20 -20 -20 -20 -20 -20 -17 -20 -20 -20 -20 -20 -20
-20 -20 -20 -20 -20 -20 -20 -20 -20 -20 -20 -20 -20 -20 -20 -20 -20 -20 -20 -20 -20 -20 -20 -20 -20 -20 -20 -20 -20 -20 -20 -20 -20 -20 -20 -20 -20 -20
-20 -20 -20 -20 -20 -20 -20 -20 -20 -20 -20 -20 -20 -20 -20 -20 -20 -20 -20 -20 -20 -20 -20 -20 -20 -20 -20 -20 -20 -20 -20 -20 -20 -20 -20 -20 -20 -20
-20 -20 -20 -20 -20 -20 -20 -20 -20 -20 -20 -20 -20 -20 -20 -20 -20 -20 -20 -20 -20 -20 -20 -20 -20 -3 -20 -20 -20 -20 -20 -20 -20 -20 -20 -20 -20 -20
-20 -20 -20 -20 -20 -20 -20 -20 -20 -20 -20 -20 -20 -20 -20 -20 -20 -20 -20 -20 -20 -20 -20 -20 -12 -20 -18 -20 -7 -20 -20 -20 -20 -20 -20 -20 -20 -20
-20 -20 -20 -20 -20 -20 -20 -20 -20 -20 -16 -20 -20 -20 -20 -20 -20 -20 -20 -12 -4 -20 -20 -20 -20 -20 -20 -20 -19 -20 -20 -20 -20 -20 -20 -8 -18 -20
-20 -20 -20 -20 -20 -20 -20 -20 -20 -18 -20 -20 -20 -20 -20 -20 -20 -20 -20 -20 -20 -20 -20 -20 -20 -20 -20 -20 -19 -20 -20 -20 -20 -20 -20 -3 10 13
-20 -20 -20 -20 -20 -20 -20 -20 -20 -20 -20 -20 -20 -20 -20 -20 -20 -20 -20 -20 -20 -20 -20 -20 -20 -20 -20 -20 -19 -20 -20 -20 -20 -20 -7 5 -18 -20

GFSNE_prec_radar_078.txt.gz
Reflectivity
5 -20 -20 -19 -20 -9 16 10 5 7 -15 -11 -10 13 37 24 9 30 28 28 27 24 21 19 14 22 20 18 7 -3 -20 -1 -5 -20 -20 -20 -11 -17
-20 -20 -20 -20 -20 -20 -20 -16 -20 3 8 -17 -20 -15 21 25 35 32 25 20 19 16 21 11 4 -5 -6 -12 -20 -20 -20 -14 -12 -17 -20 -20 6 12
-20 -20 -20 -20 -20 -20 9 8 13 -1 5 8 -15 -20 -11 1 6 10 18 11 10 25 10 -16 -20 -20 -20 -20 -20 -20 -20 -20 -20 -20 -20 -3 5 7
-20 -20 -20 -20 -20 -20 -13 4 13 4 6 -20 -20 -14 -14 33 11 19 3 -12 -15 -19 -20 -20 -20 -20 -20 -20 -20 -20 -20 -20 -11 -16 -18 -18 -19 -16
-20 -20 -20 -20 -20 -20 -9 2 6 10 5 -18 -20 -20 5 3 11 -6 -8 -5 -20 -20 -20 -20 -20 -20 -20 -20 -20 -20 -20 -20 -20 -20 -20 -20 -12 -20
-20 -20 -20 -20 -20 -20 -20 -20 -9 2 -8 -17 -17 -18 -4 9 -18 -20 -20 -20 -20 -20 -20 -20 -20 -20 -20 -20 -20 -20 -20 -20 -20 -20 -20 -20 -16 -3
-20 -20 -20 -14 -20 -20 -20 -20 -20 -20 -3 -16 -19 -11 -15 -20 -17 -20 -20 -20 -20 -20 -20 -20 -20 -20 -20 -20 -20 -20 -20 -20 -20 -20 -20 -20 -17 -18
-20 -20 -20 -0 -17 4 1 -17 -20 -20 -20 -20 -20 -20 -20 -20 -20 -20 -20 -20 -20 -20 -20 -20 -20 -20 -20 -20 -20 -20 -20 -20 -20 -20 -20 -11 11 7
-20 -20 -20 -20 -20 -20 -20 -20 -20 -20 -20 -20 -20 -20 -20 -20 -20 -20 -20 -20 -20 -20 -20 -20 -20 -20 -20 -20 -20 -20 -20 -20 -20 -17 3 -10 -11 5
-20 -20 -20 -20 -20 -20 -20 -20 -20 -20 -20 -20 -20 -20 -20 -20 -20 -20 -20 -20 -20 -20 -20 -20 -20 -20 -20 -20 -20 -20 -20 -20 -20 -20 -20 -20 -20 -20
-20 -20 -20 -20 -20 -20 -20 -20 -20 -20 -20 -20 -20 -20 -12 -10 0 -20 -20 -20 -20 -20 -20 -20 -20 -20 -20 -20 -20 -20 -20 -20 -20 -20 -20 -20 -20 -8
-20 -20 -20 -20 -20 -20 -20 -20 -20 -20 -20 -20 -20 -20 -20 -20 -20 -20 -20 -20 -20 -20 -20 -20 -20 -19 -20 -20 -20 -20 -20 -20 -20 -20 -20 -20 -19 -20
-20 -20 -20 -20 -20 -20 -20 -20 -20 -20 -20 -20 -20 -20 -20 -20 -20 -20 -20 -20 -20 -20 -20 -20 -20 -20 -20 -20 -20 -20 -20 -20 -20 -20 -20 -20 -20 -8
-20 -20 -20 -20 -20 -20 -20 -20 -20 -20 -20 -20 -20 -20 -20 -20 -20 -20 -20 -20 -20 -20 -20 -20 -20 -20 -20 -20 -20 -20 -20 -20 -20 -20 -20 -20 -20 -20
-20 -20 -20 -20 -20 -20 -20 -20 -20 -20 -20 -20 -20 -20 -20 -20 -20 -20 -20 -20 -20 -20 -20 -20 -20 -20 -17 -18 -20 -20 -20 -20 -20 -20 -20 -20 -20 -20
-20 -20 -20 -20 -20 -20 -20 -20 -20 -20 -20 -20 -20 -20 -20 -20 -20 -20 -20 -20 -20 -20 -20 -20 -20 -20 -20 -20 -20 -20 -20 -20 -20 -20 -20 -20 -20 -20
-20 -20 -20 -20 -20 -20 -20 -20 -20 -20 -20 -20 -20 -20 -20 -20 -20 -20 -20 -20 -20 -20 -20 -20 -20 -20 -20 -20 -20 -20 -20 -20 -20 -20 -20 -20 -20 -20
-20 -20 -20 -20 -20 -20 -20 -20 -20 -20 -20 -20 -20 -20 -20 -20 -20 -20 -20 -20 -20 -20 -20 -20 -20 -20 -20 -20 -20 -20 -20 -20 -20 -20 -20 -20 -20 -20
-20 -20 -20 -20 -20 -20 -20 -20 -20 -20 -20 -20 -20 -20 -20 -20 -19 -20 -20 -20 -20 -20 -20 -20 -20 -20 -20 -20 -20 -20 -20 -20 -20 -20 -20 -20 -20 -20
-20 -20 -20 -20 -20 -20 -20 -20 -20 -20 -20 -20 -20 -20 -20 -20 -20 -20 -20 -20 -20 -20 -20 -20 -20 -20 -19 -20 -19 -20 -20 -20 -20 -20 -20 -20 -20 -20
-20 -20 -20 -20 -20 -20 -20 -20 -20 -20 -19 -20 -20 -20 -20 -20 -20 -20 -20 -12 -4 -20 -20 -20 -20 -15 -19 -20 -19 -20 -20 -20 -20 -20 -20 -19 -15 -20
-20 -20 -20 -20 -20 -20 -20 -20 -20 -20 -20 -20 -20 -20 -20 -20 -20 -20 -20 -20 -20 -20 -20 -20 -20 -20 -20 -19 -20 -20 -20 -20 -20 -20 -20 -18 -0 1
-20 -20 -20 -20 -20 -20 -20 -20 -20 -20 -20 -20 -20 -20 -20 -20 -20 -20 -20 -20 -20 -20 -20 -20 -20 -20 -20 -20 -20 -20 -20 -20 -20 -20 -20 -20 -20 -20

GFSNE_prec_radar_081.txt.gz
Reflectivity
-20 -20 -20 -20 -20 -20 -15 -20 -20 7 -15 -16 -20 -20 -4 -10 -2 -17 -10 23 25 30 29 17 23 24 24 19 18 19 10 11 15 -5 -3 -11 -20 -0
-20 -20 -20 -20 -20 -10 -20 -20 -20 -20 -20 -20 -20 -17 -20 12 7 -10 -15 24 17 20 29 17 15 18 -1 -9 -1 -7 -20 -20 -20 -20 -13 -18 -6 -12
-20 -20 -20 -20 -20 -20 -20 -20 -20 -9 -20 -20 -19 8 12 -1 -7 3 13 -8 17 15 5 -3 -7 -19 -19 -20 -20 -20 -20 -20 -20 -10 -20 -20 -9 12
-20 -20 -20 -20 -20 -20 -20 -20 -20 -20 -20 -20 -19 14 -3 -10 -7 5 18 -5 4 2 -19 -20 -20 -20 -20 -20 -20 -20 -20 -3 -13 -20 -20 -19 -19 -19
-20 -20 -20 -20 -20 -20 -20 -20 -20 -20 -20 -20 -20 -18 -20 -20 -20 -5 -1 4 -19 -20 -20 -20 -20 -20 -20 -20 -20 -20 -20 -20 -20 -20 -20 -20 -20 -20
-20 -20 -20 -20 -20 -20 -20 -20 -20 -20 -20 -20 -20 -20 -19 -20 -20 -20 -20 -20 -20 -20 -20 -20 -20 -20 -20 -20 -20 -20 -20 -20 -20 -20 -20 -20 -16 -10
-20 -20 -20 -4 -2 -20 -20 -20 -20 -20 -20 -20 -20 -20 -20 -20 -20 -20 -20 -20 -20 -20 -20 -20 -20 -20 -20 -20 -20 -20 -20 -20 -20 -20 -20 -7 -2 9
-20 -20 -20 -3 8 11 6 -20 -20 -20 -20 -20 -20 -20 -20 -20 -20 -20 -20 -20 -20 -20 -20 -20 -20 -20 -20 -20 -20 -20 -20 -20 -20 -20 -20 -20 -20 2
-20 -20 -20 -20 -20 -20 -20 -20 -20 -20 -20 -20 -20 -20 -20 -20 -20 -20 -20 -20 -20 -20 -20 -20 -20 -20 -20 -20 -20 -20 -20 -20 -20 -20 -20 -20 -20 -20
-20 -20 -20 -20 -20 -20 -20 -20 -20 -20 -20 -20 -20 -20 -20 -20 -20 -20 -20 -20 -20 -20 -20 -20 -20 -20 -20 -20 -20 -20 -20 -20 -20 -20 -20 -20 -20 -20
-20 -20 -20 -20 -20 -20 -20 -20 -20 -20 -20 -20 -20 -20 -20 -20 -0 -20 -20 -20 -20 -20 -20 -20 -20 -20 -20 -20 -20 -20 -20 -20 -20 -20 -20 -20 -20 -19
-20 -20 -20 -20 -20 -20 -20 -20 -20 -20 -20 -20 -20 -20 -20 -20 -20 -20 -20 -20 -20 -20 -20 -20 -20 -20 -20 -20 -20 -20 -20 -20 -20 -20 -20 -20 -4 -20
-20 -20 -20 -20 -20 -20 -20 -20 -20 -20 -20 -20 -20 -20 -20 -20 -20 -20 -20 -20 -20 -20 -20 -20 -20 -20 -20 -20 -20 -20 -20 -20 -20 -20 -20 -20 -20 -15
-20 -20 -20 -20 -20 -20 -20 -20 -20 -20 -20 -20 -20 -20 -20 -20 -20 -20 -20 -20 -20 -20 -20 -20 -15 -20 -20 -20 -20 -20 -20 -20 -20 -20 -20 -20 -20 -20
-20 -20 -20 -20 -20 -20 -20 -20 -20 -20 -20 -20 -20 -20 -20 -20 -20 -20 -20 -20 -20 -20 -19 -20 -20 -20 -19 -19 -20 -20 -19 -20 -20 -20 -20 -20 -20 -20
-20 -20 -20 -20 -20 -20 -20 -20 -20 -20 -20 -20 -20 -20 -20 -20 -20 -20 -20 -20 -20 -20 -20 -20 -20 -20 -20 -20 -20 -20 -20 -20 -20 -20 -20 -20 -20 -20
-20 -20 -20 -20 -20 -20 -20 -20 -20 -20 -20 -20 -20 -20 -20 -20 -20 -20 -20 -20 -20 -20 -20 -20 -20 -20 -20 -20 -20 -20 -20 -20 -20 -20 -20 -20 -20 -20
-20 -20 -20 -20 -20 -20 -20 -20 -20 -20 -20 -20 -20 -20 -20 -20 -20 -20 -20 -20 -20 -20 -20 -20 -20 -20 -20 -20 -20 -20 -20 -20 -20 -20 -20 -20 -20 -20
-20 -20 -20 -20 -20 -20 -20 -20 -20 -20 -20 -20 -20 -20 -20 -20 -19 -20 -20 -20 -20 -20 -20 -20 -20 -20 -20 -20 -20 -20 -20 -20 -20 -20 -20 -20 -20 -20
-20 -20 -20 -20 -20 -20 -20 -20 -20 -20 -20 -20 -20 -20 -20 -20 -20 -20 -20 -20 -20 -20 -20 -20 -20 -20 -20 -20 -20 -20 -20 -20 -20 -20 -20 -20 -20 -20
-20 -20 -20 -20 -20 -20 -20 -20 -20 -20 -20 -20 -20 -20 -20 -20 -20 -20 -20 -12 -10 -20 -20 -20 -20 -20 -20 -16 -14 -20 -20 -20 -20 -20 -20 -19 -20 -20
-20 -20 -20 -20 -20 -20 -20 -20 -20 -20 -20 -20 -20 -20 -20 -20 -20 -20 -20 -20 -20 -20 -20 -20 -20 -20 -20 -18 -20 -20 -20 -20 -20 -20 -20 -19 -14 -10
-20 -20 -20 -20 -20 -20 -20 -20 -20 -20 -20 -20 -20 -20 -20 -20 -20 -20 -20 -20 -20 -20 -20 -20 -20 -20 -20 -20 -11 -20 -20 -20 -20 -20 -20 -20 -20 -20

GFSNE_prec_radar_084.txt.gz
Reflectivity
-20 -20 -20 -20 -20 -20 -20 -20 -10 13 -20 -20 -20 -20 -20 -20 10 -20 -20 13 5 -4 9 8 -4 -2 -5 17 18 8 15 15 17 20 7 1 1 3
-20 -20 -20 -20 -20 -20 -20 -20 -17 -3 -20 -20 -20 -20 -20 -20 -1 -18 -20 -20 -20 -8 -1 12 1 5 -15 2 -5 -8 -11 -14 -18 -20 -10 -5 -8 2
-20 -20 -20 -20 -17 -20 -20 -20 -20 -20 -20 -20 -20 -20 -20 -20 -20 -18 -20 -20 -15 11 -20 -6 -13 -8 -15 -19 -20 -20 -20 -20 -20 -20 -2 -6 -20 -1
-20 -20 -20 -20 -20 -20 -20 -20 -20 -20 -20 -20 -20 -20 -20 -20 -20 -20 -20 -20 -20 7 1 -19 -20 -20 -20 -20 -20 -20 -20 -20 -20 -20 -20 -20 -20 -20
-20 -5 -20 -20 -20 -20 -20 -20 -20 -20 -20 -20 -20 -20 -20 -20 -20 -20 -20 -20 -20 -20 -20 -20 -20 -20 -20 -20 -20 -20 -20 -20 -20 -20 -20 -20 -20 -20
-20 -20 -20 -20 -20 -20 -20 -20 -20 -20 -20 -20 -20 -20 -20 -20 -20 -20 -20 -20 -20 -20 -20 -20 -20 -20 -20 -20 -20 -20 -20 -20 -20 -20 -20 -14 -16 -4
-20 -20 -20 -20 -20 -20 -20 -20 -20 -20 -20 -20 -20 -20 -20 -20 -20 -20 -20 -20 -20 -20 -20 -20 -20 -20 -20 -20 -20 -20 -20 -20 -20 -20 -20 -20 -7 3
-20 -20 -20 -20 -20 -20 6 -20 -20 -20 -20 -20 -20 -20 -20 -20 -20 -20 -20 -20 -20 -20 -20 -20 -20 -20 -20 -20 -20 -20 -20 -20 -20 -20 -20 -14 7 -20
-20 -20 -20 -20 -20 -20 -20 -20 -20 -20 -20 -20 -20 -20 -20 -20 -20 -20 -20 -20 -20 -20 -20 -20 -20 -20 -20 -20 -20 -20 -20 -20 -20 -16 -20 -20 -20 -20
-20 -20 -20 -20 -20 -20 -20 -20 -20 -20 -20 -20 -20 -20 -20 -20 -20 -20 -20 -20 -20 -20 -20 -20 -20 -20 -20 -20 -20 -20 -20 -20 -20 -20 -20 -20 -20 -20
-20 -20 -20 -20 -20 -20 -20 -20 -20 -20 -20 -20 -20 -20 -20 -20 -20 -20 -20 -20 -20 -20 -20 -20 -20 -20 -20 -20 -20 -20 -20 -20 -20 -20 -20 -20 -20 -20
-20 -20 -20 -20 -20 -20 -20 -20 -20 -20 -20 -20 -20 -20 -20 -20 -20 -20 -20 -20 -20 -20 -20 -20 -20 -20 -20 -20 -20 -20 -20 -20 -20 -20 -20 -20 -12 -20
-20 -20 -20 -20 -20 -20 -20 -20 -20 -20 -20 -20 -20 -20 -20 -20 -20 -20 -20 -20 -20 -20 -20 -20 -20 -20 -20 -20 -20 -20 -20 -20 -20 -20 -20 -20 -20 -15
-20 -20 -20 -20 -20 -20 -20 -20 -20 -20 -20 -20 -20 -20 -20 -20 -20 -20 -20 -20 -20 -20 -20 -20 -20 -20 -20 -20 -20 -20 -20 -20 -20 -20 -20 -20 -20 -20
-20 -20 -20 -20 -20 -20 -20 -20 -20 -20 -20 -20 -20 -20 -20 -20 -20 -20 -20 -20 -20 -20 -18 -17 -20 -20 -20 -20 -20 -20 -20 -20 -20 -20 -20 -20 -20 -20
-20 -20 -20 -20 -20 -20 -20 -20 -20 -20 -20 -20 -20 -20 -20 -20 -20 -20 -20 -20 -20 -20 -20 -20 -20 -20 -20 -20 -20 -20 -20 -20 -20 -20 -20 -20 -20 -20
-20 -20 -20 -20 -20 -20 -20 -20 -20 -20 -20 -20 -20 -20 -20 -19 -20 -20 -20 -20 -20 -20 -20 -20 -20 -20 -20 -20 -20 -20 -20 -20 -20 -20 -20 -20 -20 -20
-20 -20 -20 -20 -20 -20 -20 -20 -20 -20 -20 -20 -20 -20 -20 -20 -20 -20 -20 -20 -20 -20 -20 -20 -20 -20 -20 -20 -20 -20 -20 -20 -20 -20 -20 -20 -20 -20
-20 -20 -20 -20 -20 -20 -20 -20 -20 -20 -20 -20 -20 -20 -20 -20 -19 -20 -20 -20 -20 -20 -20 -20 -20 -20 -20 -20 -20 -20 -20 -20 -20 -20 -20 -20 -20 -20
-20 -20 -20 -20 -20 -20 -20 -20 -20 -20 -20 -20 -20 -20 -20 -20 -20 -20 -20 -20 -20 -20 -20 -20 -20 -20 -20 -20 -20 -20 -20 -20 -20 -20 -20 -20 -20 -20
-20 -20 -20 -20 -20 -20 -20 -20 -20 -20 -20 -20 -20 -20 -20 -20 -20 -20 -20 -12 -10 -20 -20 -20 -20 -20 -20 -20 -20 -20 -20 -20 -20 -20 -20 -20 -20 -20
-20 -20 -20 -20 -20 -20 -20 -20 -20 -20 -20 -20 -20 -20 -20 -20 -20 -20 -20 -20 -20 -20 -20 -20 -20 -20 -20 -20 -20 -20 -20 -20 -20 -20 -20 -20 -20 -20
-20 -20 -20 -20 -20 -20 -20 -20 -20 -20 -20 -20 -20 -20 -20 -20 -20 -20 -20 -20 -20 -20 -20 -20 -20 -20 -20 -20 -20 -20 -20 -20 -20 -20 -20 -20 -20 -20

GFSNE_prec_radar_087.txt.gz
Reflectivity
-19 -20 -20 -20 -20 -12 -20 -20 -20 -20 -20 -20 -20 -20 -18 -20 5 -19 -20 4 -4 3 -2 -20 -20 -19 2 0 -20 -12 -7 -8 1 -7 3 16 11 12
-20 -20 -20 -20 -20 -20 -20 -20 -20 -20 -20 -20 -20 -20 -20 -20 -8 -16 -13 -9 -1 5 4 -13 -7 -12 -11 -20 -7 -17 -20 -20 -20 -20 -20 -20 -7 -3
-20 -20 -20 -20 -20 -20 -20 -20 -20 -20 -20 -20 -20 -20 -20 -20 -20 -20 -8 -20 -9 10 -4 -18 -3 -11 -17 -5 -12 -20 -20 -20 -20 -20 -20 -1 5 2
-20 -20 -20 -20 -20 -20 -20 -20 -20 -20 -20 -20 -20 -20 -20 -20 -20 -20 -20 -20 -20 -20 8 -18 -19 -9 3 -19 -20 -20 -20 -20 -20 -20 -19 -19 -19 -20
-20 -20 -20 -20 -20 -20 -20 -20 -20 -20 -20 -20 -20 -20 -20 -20 -20 -20 -20 -20 -20 -20 -18 -12 -20 -20 -20 -20 -20 -20 -20 -20 -20 -20 -20 -20 -20 -20
-20 -20 -20 -20 -20 -20 -20 -20 -20 -20 -20 -20 -20 -20 -20 -20 -20 -20 -20 -20 -20 -20 -20 -20 -20 -20 -20 -20 -20 -20 -20 -20 -20 -20 -20 -20 -20 -20
-20 -20 -20 -20 -20 -20 -20 -20 -20 -20 -20 -20 -20 -20 -20 -20 -20 -20 -20 -20 -20 -20 -20 -20 -20 -20 -20 -20 -20 -20 -20 -20 -20 -20 -20 -20 -8 -20
-20 -20 -20 -20 5 2 -20 -20 -20 -20 -20 -20 -20 -20 -20 -20 -20 -20 -20 -20 -20 -20 -20 -20 -20 -20 -20 -20 -20 -20 -20 -20 -20 -20 -20 -20 4 -17
-20 -20 -20 -20 -20 -20 -20 -20 -20 -20 -20 -20 -20 -20 -20 -20 -20 -20 -20 -20 -20 -20 -20 -20 -20 -20 -20 -20 -20 -20 -20 -20 -20 -20 -20 -20 -20 -20
-20 -20 -20 -20 -20 -20 -20 -20 -20 -20 -20 -20 -20 -20 -20 -20 -20 -20 -20 -20 -20 -20 -20 -20 -20 -20 -20 -20 -20 -20 -20 -20 -20 -20 -20 -20 -20 -20
-20 -20 -20 -20 -20 -20 -20 -20 -20 -20 -20 -20 -20 -20 -20 -20 -20 -20 -20 -20 -20 -20 -20 -20 -20 -20 -20 -20 -20 -20 -20 -20 -20 -20 -20 -20 -20 -20
-20 -20 -20 -20 -20 -20 -20 -20 -20 -20 -20 -20 -20 -20 -20 -20 -20 -20 -20 -20 -20 -20 -20 -20 -20 -20 -20 -20 -20 -20 -20 -20 -20 -20 -20 -20 -20 -20
-20 -20 -20 -20 -20 -20 -20 -20 -20 -20 -20 -20 -20 -20 -20 -20 -20 -20 -20 -20 -20 -20 -20 -1 1 -17 -20 -20 -20 -20 -20 -20 -20 -20 -20 -20 -20 -20
-20 -20 -20 -20 -20 -20 -20 -20 -19 -20 -20 -20 -20 -20 -20 -20 -20 -20 -20 -20 -20 -6 2 -6 5 4 -1 -8 -20 -20 -20 -20 -20 -20 -20 -20 -20 -20
-20 -20 -20 -20 -20 -20 -20 -20 -20 -20 -20 -20 -20 -20 -20 -20 -20 -20 -10 -0 -20 -20 -20 -20 -0 1 3 -5 -13 -20 -9 -20 -20 -20 -20 -20 -20 -20
-20 -20 -20 -20 -20 -20 -20 -20 -20 -20 -20 -20 -20 -20 -20 -18 -20 -19 -20 -17 -5 -20 -20 -20 -20 -20 -20 -20 -20 -20 -20 -20 -20 -20 -20 -20 -20 -20
-20 -20 -20 -20 -20 -20 -20 -20 -20 -20 -20 -20 -20 -20 -20 -20 -20 -20 -20 -20 -20 -20 -20 -20 -20 -20 -20 -20 -20 -20 -20 -20 -20 -20 -20 -20 -20 -20
-20 -20 -20 -20 -20 -20 -20 -20 -20 -20 -20 -20 -20 -20 -20 -20 -20 -20 -20 -20 -20 -20 -20 -20 -20 -20 -20 -20 -20 -20 -20 -20 -20 -20 -20 -16 -20 -20
-20 -20 -20 -20 -20 -20 -20 -20 -20 -20 -20 -20 -20 -20 -20 -20 -2 -4 -20 -20 -20 -20 -20 -20 -20 -20 -20 -20 -20 -20 -20 -20 -20 -20 -20 -20 -20 -20
-20 -20 -20 -20 -20 -20 -20 -20 -20 -20 -20 -20 -20 -20 -20 -20 -1 -6 -20 -20 -20 -20 -20 -20 -20 -20 -20 -20 -20 -20 -20 -20 -20 -20 -20 -20 -20 -20
-20 -20 -20 -20 -20 -20 -20 -20 -20 -20 -20 -20 -20 -20 -20 -20 -20 -20 -20 -4 -11 -16 -20 -20 -20 -20 -20 -20 -20 -20 -20 -20 -20 -1 -0 -2 -20 -20
-20 -20 -20 -20 -20 -20 -20 -20 -20 -20 -20 -20 -20 -20 -20 -20 -20 -20 -20 -20 -20 -20 -20 -20 -20 -20 -20 -20 -20 -20 -20 -20 -20 -20 -20 -19 -0 -19
-20 -20 -20 -20 -20 -20 -20 -20 -20 -20 -20 -20 -20 -20 -20 -20 -20 -20 -20 -20 -20 -20 -20 -20 -20 -20 -20 -20 -20 -20 -20 -20 -20 -20 -20 -20 -20 -20

GFSNE_prec_radar_090.txt.gz
Reflectivity
-20 -20 -19 -20 -20 -20 -20 -19 -5 3 -8 -20 -20 -20 -4 -5 4 -20 -16 -9 -2 9 2 7 6 0 -3 5 -5 -3 -5 5 7 -10 -20 -11 -19 -0
-20 -20 -19 -20 -20 -20 -20 -20 -20 -11 -20 -20 -20 -20 -20 -20 -20 -20 -20 -20 -19 -20 -17 -16 -20 -13 -9 -13 -10 0 -7 -11 -20 -20 -20 -20 -20 -20
-20 -20 -20 -20 -20 -20 -20 -20 -20 -20 -16 -20 -20 -20 -20 -20 -20 -20 -20 -20 -20 -20 -18 -19 -20 -20 -1 -1 -2 -16 -20 -20 -20 -20 -20 -20 -7 -14
-20 -20 -20 -20 -20 -20 -20 -20 -20 -20 -20 -20 -20 -20 -20 -20 -20 -20 -20 -20 -20 -11 -17 -20 -20 -20 -20 -20 -20 -20 -20 -20 -20 -20 -20 9 -3 -6
-20 -20 -20 -20 -20 -20 -20 -20 -20 -20 -20 -20 -20 -20 -20 -20 -20 -20 -20 -20 -20 -20 -20 -20 -20 -20 -20 -20 -20 -20 -20 -20 -20 -20 -20 -20 -20 -20
-20 -20 -20 -20 -20 -20 -20 -20 -20 -20 -20 -20 -20 -20 -20 -20 -20 -20 -20 -20 -20 -20 -20 -20 -20 -20 -20 -20 -20 -20 -20 -20 -20 -20 -20 -20 -20 -20
-20 -20 -20 -20 -20 -20 -20 -20 -20 -20 -20 -20 -20 -20 -20 -20 -20 -20 -20 -20 -20 -20 -20 -20 -20 -20 -20 -20 -20 -20 -20 -20 -20 -20 -20 -19 -18 -20
-20 -20 -20 -20 -20 -20 -20 -20 -20 -20 -20 -20 -20 -20 -20 -20 -20 -20 -20 -20 -20 -20 -20 -20 -20 -20 -20 -20 -20 -20 -20 -20 -20 -20 -20 -20 -20 -20
-20 -20 -20 -20 -20 -20 -20 -20 -20 -20 -20 -20 -20 -20 -20 -20 -20 -20 -20 -20 -20 -20 -20 -20 -20 -20 -20 -20 -20 -20 -20 -20 -20 -20 -20 -20 -20 -20
-20 -20 -20 -20 -20 -20 -20 -20 -20 -20 -20 -20 -20 -20 -20 -20 -20 -20 -20 -20 -20 -20 -20 -20 -20 -20 -20 -20 -20 -20 -20 -20 -20 -20 -20 -20 -20 -20
-20 -20 -20 -20 -20 -20 -20 -20 -20 -20 -20 -20 -20 -20 -20 -20 -20 -20 -20 -20 -20 -20 -20 -20 -20 -20 -20 -20 -20 -20 -20 -14 -20 -20 -20 -20 -20 -20
-20 -20 -20 -20 -20 -20 -20 -20 -20 -20 -20 -20 -20 -20 -20 -20 -20 -20 -20 -20 -20 -20 -20 -20 -20 -20 -20 -20 -20 -20 -20 -20 -20 -20 -20 -20 -20 -20
-20 -20 -20 -20 -20 -20 -20 -20 -20 -20 -20 -20 -20 -20 -20 -20 -20 -20 -20 -20 -17 -20 -20 -19 -18 -6 -20 -20 -20 -20 -20 -20 -20 -20 -20 -20 -20 -20
-20 -20 -20 -20 -20 -20 -20 -20 -20 -20 -20 -20 -20 -20 -20 -20 -20 -20 -20 -20 -15 -6 -7 -11 -4 -6 -6 -8 -20 -20 -20 -20 -20 -20 -20 -20 -20 -20
-20 -20 -20 -20 -20 -20 -20 -20 -20 -20 -20 -20 -20 -20 -20 -20 -20 -4 -16 -20 -19 -20 -2 -17 -3 -9 -15 -8 -20 -20 -20 -20 -20 -20 -20 -9 -20 -20
-20 -20 -20 -20 -20 -20 -20 -20 -20 -20 -20 -20 -20 -20 -20 -20 -11 -20 -9 -20 -20 -20 -20 -20 -20 -20 -4 -5 -2 -16 -20 -4 -19 -18 -3 -18 -18 -8
-20 -20 -20 -20 -20 -20 -20 -20 -20 -20 -20 -20 -20 -20 -20 -20 -20 -20 -20 -20 -10 -15 -9 -20 -20 -20 -20 -19 -3 -20 -20 -10 1 -4 -11 -5 -20 -18
-20 -20 -20 -20 -20 -20 -20 -20 -20 -20 -20 -20 -20 -20 -20 -20 -18 -18 -17 -20 -20 -9 -18 -10 -20 -20 -20 -20 -20 -20 -20 -7 -5 -18 -16 -6 -7 -20
-20 -20 -20 -20 -20 -20 -20 -20 -20 -20 -20 -20 -20 -20 -20 -19 -4 -19 -20 -20 -17 -20 -20 -19 -19 -6 -5 -20 -20 -20 -10 -20 -0 -20 -20 -2 -5 -20
-20 -20 -20 -20 -20 -20 -20 -20 -20 -20 -20 -20 -20 -20 -20 -20 -10 -11 -20 -20 -12 -6 -17 -7 -14 -20 -12 -7 -5 -20 -20 -20 -20 -20 -20 -17 -13 -20
-20 -20 -20 -20 -20 -20 -20 -20 -20 -20 -20 -20 -20 -20 -20 -20 -20 -20 -20 -20 -18 -16 -12 -11 -4 -15 -11 -7 -20 -20 -20 -20 -20 -8 -11 4 1 -13
-20 -20 -20 -20 -20 -20 -20 -20 -20 -20 -20 -20 -20 -20 -20 -20 -20 -20 -20 -20 -20 -20 -20 -20 -20 -7 -20 -18 -20 -20 -20 -20 -20 -20 -20 -16 0 -2
-20 -20 -20 -20 -20 -20 -20 -20 -20 -20 -20 -20 -20 -20 -20 -20 -20 -20 -20 -20 -20 -20 -20 -20 -20 -20 -5 -19 -12 -20 -20 -20 -20 -17 -20 -20 -20 -20

GFSNE_prec_radar_093.txt.gz
Reflectivity
10 19 20 3 -20 -20 -20 -20 -20 -20 -20 -20 -20 -20 -18 -20 -2 -20 -20 7 6 -1 10 11 12 3 -20 4 -10 5 -6 -18 -19 -13 -17 -20 -20 -20
13 -7 9 -14 -20 -20 -20 -20 -20 1 -14 -20 -20 -20 -20 -20 -19 -20 -19 9 4 3 -20 -20 -14 5 2 -20 5 2 4 -10 -1 -11 -20 -14 7 -17
-7 -12 -14 18 -20 -20 -20 -20 -20 -20 -20 -20 -20 -20 -20 -20 -20 -20 -11 -20 -12 -9 -20 -20 -20 -20 -20 -20 -20 -14 -20 -20 -20 -20 -20 -20 -17 -20
-18 -20 -19 -2 -20 -20 -20 -20 -20 -20 -20 -20 -20 -20 -20 -20 -20 -20 -20 -20 -20 -20 -20 -20 -20 -20 -20 -20 -20 -20 -20 -20 -20 -20 -20 -20 -20 -20
-20 -20 -20 -20 -20 -20 -20 -20 -20 -20 -20 -20 -20 -20 -20 -20 -20 -20 -20 -20 -20 -20 -20 -20 -20 -20 -20 -20 -20 -20 -20 -20 -20 -20 -20 -20 -20 -20
-20 -20 -20 -20 -20 -20 -20 -20 -20 -20 -20 -20 -20 -20 -20 -20 -20 -20 -20 -20 -20 -20 -20 -20 -20 -20 -20 -20 -20 -20 -20 -20 -20 -20 -20 -20 -20 -20
-20 -20 -20 -20 -20 -20 -20 -20 -20 -20 -20 -20 -20 -20 -20 -20 -20 -20 -20 -20 -20 -20 -20 -20 -20 -20 -20 -20 -20 -20 -20 -20 -20 -20 -20 -20 -20 -20
-20 -20 -20 -20 -20 -20 -20 -20 -20 -20 -20 -20 -20 -20 -20 -20 -20 -20 -20 -20 -20 -20 -20 -20 -20 -20 -20 -20 -20 -20 -20 -20 -20 -20 -20 -20 -20 -20
-20 -20 -20 -20 -20 -20 -20 -20 -20 -20 -20 -20 -20 -20 -20 -20 -20 -20 -20 -20 -20 -20 -20 -20 -20 -20 -20 -20 -20 -20 -20 -20 -20 -20 -20 -20 -20 -20
-20 -20 -20 -20 -20 -20 -20 -20 -20 -20 -20 -20 -20 -20 -20 -20 -20 -20 -20 -20 -20 -20 -20 -20 -20 -20 -20 -20 -20 -20 -20 -20 -20 -20 -20 -20 -20 -20
-20 -20 -20 -20 -20 -20 -20 -20 -20 -20 -20 -20 -20 -20 -20 -20 -20 -20 -20 -20 -20 -20 -20 -20 -20 -20 -20 -20 -20 -20 -20 -20 -20 -20 -20 -20 -20 -20
-20 -20 -20 -20 -20 -20 -20 -20 -20 -20 -20 -20 -20 -20 -20 -20 -20 -20 -20 -20 -20 -20 -20 -20 -20 -20 -20 -20 -20 -20 -20 -20 -20 -20 -20 -20 -20 -20
-20 -20 -20 -20 -20 -20 -20 -20 -20 -20 -20 -20 -20 -20 -20 -20 -20 -20 -20 -20 -20 -20 -20 -20 -20 -20 -20 -20 -20 -20 -20 -20 -20 -20 -20 -20 -20 -20
-20 -20 -20 -20 -20 -20 -20 -20 -20 -20 -20 -20 -20 -20 -20 -20 -20 -20 -20 -20 -20 -20 -20 -20 -3 -4 -20 -20 -20 -20 -20 -20 -20 -20 -20 -20 -20 -13
-20 -20 -20 -20 -20 -20 -20 -20 -20 -20 -20 -20 -20 -20 -20 -20 -20 -20 -20 -20 -20 -20 -20 -20 -20 -8 -1 -18 -20 -20 -19 -20 -20 -20 -20 -20 -20 -20
-20 -20 -20 -20 -20 -20 -20 -20 -20 -20 -20 -20 -20 -20 -20 -20 -20 -20 -20 -20 -10 -20 -20 -20 -20 -20 -20 -20 -18 -20 -20 -8 -20 -20 -20 -20 -20 -20
-20 -20 -20 -20 -20 -20 -20 -20 -20 -20 -20 -20 -20 -20 -20 -20 -20 -20 -20 -20 -16 -20 -20 -20 -20 -16 -20 -20 -20 -20 -20 -20 -20 -7 -20 -20 -20 -20
-20 -20 -20 -20 -20 -20 -20 -20 -20 -20 -20 -20 -20 -20 -20 -20 -20 -20 -20 -20 -20 -20 -20 -20 -20 -20 -20 -20 -20 -20 -20 -20 -20 -20 -20 -20 -20 -20
-20 -20 -20 -20 -20 -20 -20 -20 -20 -20 -20 -20 -20 -20 -20 -20 -20 -20 -8 -20 -20 -20 -20 -20 -20 -20 -20 -20 -20 -20 -20 -20 -20 -20 -20 -20 -20 -20
-20 -20 -20 -20 -20 -20 -20 -20 -20 -20 -20 -20 -20 -20 -20 -20 -20 -20 -20 -20 -20 -20 -20 -19 -18 -20 -20 -20 -12 -20 -4 -20 -20 -20 -20 -20 -20 -20
-20 -20 -20 -20 -20 -20 -20 -20 -20 -20 -20 -20 -20 -20 -20 -20 -20 -20 -20 -20 -20 -20 -20 -20 -20 2 -3 -19 -20 -20 -20 -20 -20 -20 -20 -20 -16 -20
-20 -20 -20 -20 -20 -20 -20 -20 -20 -20 -20 -20 -20 -20 -20 -20 -20 -20 -20 -20 -20 -20 -20 -20 -20 -20 -8 -20 -20 -20 -20 -20 -17 -18 -14 -17 -20 -20
-20 -20 -20 -20 -20 -20 -20 -20 -20 -20 -20 -20 -20 -20 -20 -20 -20 -20 -20 -20 -20 -20 -20 -20 -20 -20 -20 -3 -19 -20 -20 -20 -20 -20 -20 -20 -20 -20

GFSNE_prec_radar_096.txt.gz
Reflectivity
6 -9 -1 4 13 6 -14 -20 -16 -20 -8 -20 -20 -20 -20 -20 -16 -20 -20 12 11 13 14 -15 11 8 7 12 -0 -19 -20 -13 5 -17 -20 -20 -20 -2
-15 -20 -14 -17 -2 5 -9 -20 -20 -20 -20 -20 -20 -20 -20 -20 -20 -20 -13 10 9 13 13 -20 -20 -20 -8 3 -6 -20 -20 -20 -20 -20 -20 -20 -20 -20
-16 7 -20 -6 -3 -10 -16 -20 -20 -20 -20 -20 -20 -20 -20 -20 -20 -20 -9 -20 -15 11 9 -20 -20 -20 -20 -20 -20 -20 -20 -20 -20 -20 -20 -20 -20 -20
-7 -10 11 4 2 -20 9 -20 -20 -20 -20 -20 -20 -20 -20 -20 -20 -20 -20 -20 -20 5 -20 -20 -20 -20 -20 -20 -20 -20 -20 -20 -20 -20 -20 -20 -20 -20
10 -7 -20 1 -20 -19 -20 -20 -20 -20 -20 -20 -20 -20 -20 -20 -20 -20 -20 -20 -20 -20 -20 -20 -20 -20 -20 -20 -20 -20 -20 -20 -20 -20 -20 -20 -20 -20
-20 -20 -12 -20 -17 -20 -20 -20 -20 -20 -20 -20 -20 -20 -20 -20 -20 -20 -20 -20 -20 -20 -20 -20 -20 -20 -20 -20 -20 -20 -20 -20 -20 -20 -20 -20 -20 -20
-15 -1 -20 2 -20 -20 -20 -20 -20 -20 -20 -20 -20 -20 -20 -20 -20 -20 -20 -20 -20 -20 -20 -20 -20 -20 -20 -20 -20 -20 -20 -20 -20 -20 -20 -20 -20 -20
-20 -20 -20 -20 -20 -20 -20 -20 -20 -20 -20 -20 -20 -20 -20 -20 -20 -20 -20 -20 -20 -20 -20 -20 -20 -20 -20 -20 -20 -20 -20 -20 -20 -20 -20 -20 -20 -20
-20 -20 -20 -20 -20 -20 -20 -20 -20 -20 -20 -20 -20 -20 -20 -20 -20 -20 -20 -20 -20 -20 -20 -20 -20 -20 -20 -20 -20 -20 -20 -20 -20 -20 -20 -20 -20 -20
-20 -20 -20 -20 -20 -20 -20 -20 -20 -20 -20 -20 -20 -20 -20 -20 -20 -20 -20 -20 -20 -20 -20 -20 -20 -20 -20 -20 -20 -20 -20 -20 -20 -20 -20 -20 -20 -20
-20 -20 -20 -20 -20 -20 -20 -20 -20 -20 -20 -20 -20 -20 -20 -20 -20 -20 -20 -20 -20 -20 -20 -20 -20 -20 -20 -20 -20 -20 -20 -20 -20 -20 -20 -20 -20 -20
-20 -20 -20 -20 -20 -20 -20 -20 -20 -20 -20 -20 -20 -20 -20 -20 -20 -20 -20 -20 -20 -20 -20 -20 -20 -20 -20 -20 -20 -20 -20 -20 -20 -20 -20 -20 -20 -20
-20 -20 -20 -20 -20 -20 -20 -20 -20 -20 -20 -20 -20 -20 -20 -20 -20 -20 -20 -20 -20 -20 -20 -20 -20 -20 -20 -20 -20 -20 -20 -20 -20 -20 -20 -20 -20 -20
-20 -20 -20 -20 -20 -20 -20 -20 -20 -20 -20 -20 -20 -20 -20 -20 -20 -20 -20 -20 -20 -20 -20 -20 -20 -20 -20 -20 -20 -20 -20 -20 -20 -20 -20 -20 -20 -20
-20 -20 -20 -20 -20 -20 -20 -20 -20 -20 -20 -20 -20 -20 -20 -20 -20 -20 -20 -20 -20 -20 -20 -20 -20 -20 -20 -20 -20 -20 -19 -20 -20 -20 -20 -20 -20 -20
-20 -20 -20 -20 -20 -20 -20 -20 -20 -20 -20 -20 -20 -20 -20 -20 -20 -20 -20 -20 -20 -20 -20 -18 -20 -20 -20 -20 -20 -20 -20 -20 -20 -20 -20 -20 -20 -20
-20 -20 -20 -20 -20 -20 -20 -20 -20 -20 -20 -20 -20 -20 -20 -20 -20 -20 -20 -20 -20 -20 -20 -20 -20 -20 -20 -20 -20 -20 -20 -20 -20 -20 -20 -20 -20 -20
-20 -20 -20 -20 -20 -20 -20 -20 -20 -20 -20 -20 -20 -20 -20 -20 -20 -20 -20 -20 -20 -20 -20 -20 -20 -20 -20 -20 -20 -20 -20 -20 -20 -20 -20 -20 -20 -20
-2 -12 -16 -20 -20 -20 -20 -20 -20 -20 -20 -20 -20 -20 -20 -20 -20 -20 -20 -20 -20 -20 -20 -20 -20 -20 -20 -20 -20 -20 -20 -20 -20 -20 -20 -20 -20 -20
-8 -12 -20 -20 -20 -20 -20 -20 -20 -20 -20 -20 -20 -20 -20 -20 -20 -20 -20 -20 -20 -20 -20 -20 -20 -20 -20 -20 -20 -20 -20 -20 -20 -20 -20 -20 -20 -20
-20 -20 -20 -20 -20 -20 -20 -20 -20 -20 -20 -20 -20 -20 -20 -20 -20 -20 -20 -20 -20 -20 -20 -20 -20 -20 -20 -19 -19 -20 -20 -20 -20 -15 -19 -18 -20 -20
-20 -20 -20 -20 -20 -20 -20 -20 -20 -20 -20 -20 -20 -20 -20 -20 -20 -20 -20 -20 -20 -20 -20 -20 -20 -20 -20 -20 -20 -20 -20 -20 -20 -20 -20 -20 -17 -20
-14 -20 -20 -20 -20 -20 -20 -20 -20 -20 -20 -20 -20 -20 -20 -20 -20 -20 -20 -20 -20 -20 -20 -20 -20 -20 -20 -20 -15 -20 -20 -20 -20 -20 -20 -20 -20 -20

GFSNE_prec_radar_099.txt.gz
Reflectivity
-20 -11 -5 -11 -19 -20 -20 -19 -13 19 -7 -20 -20 -20 -20 -20 1 -20 -20 8 5 9 10 8 -20 -19 7 -2 12 4 3 -16 -20 -20 -20 -20 -20 -20
-20 -20 -20 -4 -20 -16 6 -20 5 21 2 -20 -20 -20 -20 -20 -11 -20 -13 9 -7 10 11 -6 -18 -20 -9 -9 -5 -2 -0 -20 -20 -20 -20 -20 -20 -16
-20 -20 -20 -20 -20 -1 -14 -20 -20 -20 -18 -20 -20 -12 -20 -13 -20 -20 -4 -20 -11 8 -13 -20 -20 -20 -20 -20 -20 -20 -20 -20 -20 -20 -20 -20 -20 -20
-20 -20 -20 -17 -19 -20 -20 -0 -20 -20 -20 -20 -20 -20 -20 -2 -20 -20 -20 -20 -20 -20 -20 -20 -20 -20 -20 -20 -20 -20 -20 -20 -20 -20 -20 -20 -20 -20
-20 -13 -20 -20 -20 -20 6 -18 -20 -20 -20 -20 -20 -20 -20 -19 -20 -20 -20 -20 -20 -20 -20 -20 -20 -20 -20 -20 -20 -20 -20 -20 -20 -20 -20 -20 -20 -20
-20 -20 -20 -12 -5 -20 -10 -15 -20 -20 -20 -20 -20 -20 -20 -20 -20 -20 -20 -20 -20 -20 -20 -20 -20 -20 -20 -20 -20 -20 -20 -20 -20 -20 -20 -20 -20 -20
-20 -20 -12 9 12 1 -20 -16 -20 -20 -20 -20 -20 -20 -20 -20 -20 -20 -20 -20 -20 -20 -20 -20 -20 -20 -20 -20 -20 -20 -20 -20 -20 -20 -20 -20 -20 -20
-20 -20 -20 5 -7 -20 -20 -20 -20 -20 -20 -20 -20 -20 -20 -20 -20 -20 -20 -20 -20 -20 -20 -20 -20 -20 -20 -20 -20 -20 -20 -20 -20 -20 -20 -20 -20 -20
-20 -20 -20 -20 -20 -20 -20 -20 -20 -20 -20 -20 -19 -20 -20 -20 -20 -20 -20 -20 -20 -20 -20 -20 -20 -20 -20 -20 -20 -20 -20 -20 -20 -20 -20 -20 -20 -20
-17 -20 -20 -20 -20 -20 -20 -20 -20 -20 -20 -20 -20 -20 -20 -20 -20 -20 -20 -20 -20 -20 -20 -20 -20 -20 -20 -20 -20 -20 -20 -20 -20 -20 -20 -20 -20 -20
-20 -20 -20 -20 -20 -20 -20 -20 -20 -20 -20 -20 -20 -20 -18 -20 -20 -20 -20 -20 -20 -20 -20 -20 -20 -20 -20 -20 -20 -20 -20 -20 -14 -19 -6 -20 -20 -20
-20 -19 -7 -19 -20 -19 -20 -14 -20 -20 -20 -20 -20 -11 -20 -20 -20 -20 -20 -20 -20 -20 -20 -20 -20 -20 -20 -20 -20 -20 -20 -20 -20 -20 -20 -20 -20 -20
-20 -20 -20 -20 -20 -20 -20 -20 -20 -20 -20 -12 -20 -20 -20 -20 -20 -20 -20 -20 -20 -20 -20 -20 -20 -20 -20 -20 -20 -20 -20 -20 -20 -20 -20 -20 -20 -20
-20 -20 -20 -20 -20 -20 -20 -19 -20 -20 -20 -20 -20 -20 -20 -20 -20 -20 -20 -20 -20 -20 -20 -20 -20 -20 -20 -20 -20 -20 -20 -20 -20 -20 -20 -20 -20 -20
-20 -20 -20 -20 -20 -20 -20 -20 -20 -20 -20 -20 -20 -20 -20 -20 -20 -20 -20 -20 -20 -20 -20 -20 -20 -20 -20 -20 -20 -20 -20 -20 -20 -20 -20 -20 -20 -20
-20 -20 -20 -20 -20 -20 -19 -16 -20 -20 -16 -20 -20 -20 -20 -20 -20 -20 -20 -20 -20 -20 -20 -18 -20 -20 -20 -20 -20 -20 -20 -20 -20 -20 -20 -20 -20 -20
-20 -20 -20 2 0 -6 -10 -3 -10 -9 -20 -20 -20 -20 -20 -20 -20 -20 -20 -20 -20 -20 -20 -20 -20 -20 -20 -20 -20 -20 -20 -20 -20 -20 -20 -20 -20 -20
2 6 -4 -2 -7 -20 -20 -19 -13 -20 -20 -20 -20 -20 -20 -20 -20 -20 -20 -20 -20 -20 -20 -20 -20 -18 -20 -20 -14 -20 -20 -20 -20 -20 -20 -20 -20 -20
8 8 2 1 -6 -19 -20 -20 -20 -20 -20 -18 -9 -20 -20 -20 -20 -20 -20 -20 -20 -20 -20 -20 -20 -20 -20 -20 -20 -20 -20 -20 -20 -20 -20 -20 -20 -20
10 1 -7 -20 -20 -20 -20 -20 -20 -20 -20 -12 -20 -20 -20 -20 -20 -20 -20 -20 -20 -20 -20 -20 -20 -20 -20 -20 -20 -20 -20 -20 -20 -20 -20 -20 -20 -20
-11 -20 -20 -20 -20 -16 -20 -20 -20 -20 -20 -19 -20 -20 -20 -20 -20 -20 -20 -20 -20 -20 -20 -20 -20 -20 -20 -20 -20 -20 -20 -20 -20 -20 -20 -20 -20 -20
-7 -18 -19 -20 -20 -20 -20 -20 -20 -20 -20 -20 -20 -20 -20 -20 -20 -20 -20 -20 -20 -20 -20 -20 -20 -20 -20 -20 -20 -20 -20 -20 -20 -20 -20 -20 -20 -20
-20 -20 -10 -19 -20 -20 -20 -20 -20 -20 -20 -20 -20 -20 -20 -20 -20 -20 -20 -20 -20 -20 -20 -20 -20 -20 -20 -20 -20 -20 -20 -20 -20 -20 -20 -20 -20 -20

GFSNE_prec_radar_102.txt.gz
Reflectivity
-20 -20 -15 10 4 -20 4 -20 15 -9 -19 -20 -4 -20 -20 -20 -16 -20 -20 2 9 12 6 -19 -3 -20 -20 -17 -13 -1 -17 -19 -20 -20 -20 -20 -20 -20
-20 -20 -20 -20 -20 -20 -20 -20 -20 17 3 -11 -18 11 -20 -20 4 -14 -20 4 10 12 10 7 9 -20 -20 -14 -14 -20 -14 -2 -20 -20 -20 -20 -20 6
-20 -20 -20 -20 -20 -20 -20 -2 -19 -20 7 -20 -8 -20 -20 -20 -7 -19 -10 -20 12 11 9 9 11 -20 -20 -20 -20 -20 -17 -20 -20 -20 -20 -20 -20 -20
-20 -20 -20 -20 -20 -20 -20 -20 9 -20 -20 -11 -14 -20 -20 -2 -20 -20 -19 11 -20 13 0 5 -20 -20 -20 -20 -20 -20 -20 -20 -20 -20 -20 -20 -20 -20
-20 -20 -20 -20 -20 -20 -20 -19 -20 -6 8 12 14 -12 -20 -20 -11 -20 5 -20 -20 10 2 -20 -20 -20 -20 -20 -20 -20 -20 -20 -20 -20 -20 -20 -20 -20
-20 -20 -20 5 -11 -1 5 9 -19 -3 18 -20 -20 -20 -20 -20 -20 -20 -20 -20 -20 -20 -20 -20 -20 -20 -20 -20 -20 -20 -20 -20 -20 -20 -20 -20 -20 -20
-20 -20 -20 -0 10 6 -11 -3 4 -8 -19 -20 -20 -20 -20 -20 -20 -20 -20 -20 -20 -20 -20 -20 -20 -20 -20 -20 -20 -20 -20 -20 -20 -20 -20 -20 -20 -20
-20 -20 -20 -17 2 6 14 13 4 -20 -20 -20 -20 -20 -20 -20 -20 -20 -20 -20 -20 -20 -20 -20 -20 -20 -20 -20 -20 -20 -20 -20 -20 -20 -20 -20 -20 -20
-20 -20 -20 -20 1 -20 2 -18 -20 -20 -20 -20 -20 -20 -20 -20 -20 -20 -20 -20 -20 -20 -20 -20 -20 -20 -20 -20 -20 -20 -20 -20 -20 -20 -20 -20 -20 -20
-20 -5 -2 -16 -7 -18 -20 -20 -20 -20 -20 -20 -20 -20 -20 -20 -20 -20 -20 -20 -20 -20 -20 -20 -20 -20 -20 -20 -20 -20 -20 -20 -20 -20 -20 -20 -20 -20
-20 -16 -19 -20 11 -20 -20 -20 -20 -20 -20 -20 -20 -20 -20 -20 -20 -20 -20 -20 -20 -20 -20 -20 -20 -20 -20 -20 -20 -20 -20 -20 -16 -14 -20 -20 -20 -20
-20 -14 10 7 14 -13 -20 -3 -20 -20 -17 -20 -19 -20 -20 -20 -20 -20 -20 -20 -20 -20 -20 -20 -20 -20 -20 -20 -20 -20 -20 -20 -20 -20 -20 -20 -20 -20
-20 -20 -20 11 9 10 8 -20 -20 -20 -20 -20 -20 -20 -20 -20 -20 -20 -20 -20 -20 -20 -20 -20 -20 -20 -20 -20 -20 -20 -20 -20 -20 -20 -20 -20 -20 -20
-20 -20 -11 4 11 -8 -20 -20 -20 -20 -20 -20 -18 -16 -11 -20 -20 -20 -20 -20 -20 -20 -20 -20 -20 -20 -20 -20 -20 -20 -20 -20 -20 -20 -20 -20 -20 -20
-15 -1 8 -9 -19 -20 -20 -20 -20 -20 -15 -3 -19 -20 -19 -20 -20 -20 -20 -20 -20 -20 -20 -20 -20 -20 -20 -20 -20 -20 -20 -20 -20 -20 -20 -20 -20 -20
-19 -20 -20 -20 -20 -20 -20 -20 -20 -20 -20 -20 -13 -20 -20 -20 -20 -20 -20 -20 -20 -20 -20 -20 -20 -20 -20 -20 -20 -20 -20 -20 -20 -20 -20 -20 -20 -20
-20 -20 -19 -20 -20 -20 -20 -7 -17 -20 -18 -17 -9 -16 -20 -20 -20 -20 -20 -20 -20 -20 -20 -20 -20 -20 -20 -20 -20 -20 -20 -20 -20 -20 -20 -20 -20 -20
-20 -17 -7 8 -20 -16 -4 -1 -19 -20 -20 -20 -20 -20 -20 -20 -2 -20 -20 -20 -20 -20 -20 -20 -20 -18 -20 -20 -20 -20 -20 -20 -20 -20 -20 -20 -20 -20
-20 -16 -20 -4 7 6 -2 -3 -7 -20 -20 3 -19 -20 -20 -11 3 -20 -20 -20 -20 -20 -20 -20 -20 -20 -20 -20 -20 -20 -20 -20 -20 -20 -20 -20 -20 -20
-20 -20 -20 -20 -20 -20 -11 -17 -15 -20 -20 -19 -20 -20 -20 -7 -16 -20 -20 -20 -20 -20 -20 -20 -20 -20 -20 -20 -20 -20 -20 -20 -20 -20 -20 -20 -20 -20
-20 -20 -20 -20 -20 -20 -15 -15 -7 -7 -20 -20 -20 -20 -20 -20 -20 -20 -20 -20 -20 -20 -20 -20 -20 -20 -20 -20 -20 -20 -20 -20 -20 -20 -20 -20 -20 -20
-20 -20 -20 -20 -20 -20 -19 -20 -20 -20 -20 -20 -20 -20 -20 -20 -9 3 -8 -17 -20 -20 -20 -20 -20 -20 -20 -20 -20 -20 -20 -20 -20 -20 -20 -20 -20 -20
-20 -20 -20 -20 -19 -20 -20 -20 -15 -11 -14 -13 -20 -20 -20 -20 -20 -20 -20 -20 -20 -20 -20 -20 -20 -20 -20 -20 -20 -20 -20 -20 -20 -20 -20 -20 -20 -20

GFSNE_prec_radar_105.txt.gz
Reflectivity
-20 -20 -20 -7 -18 21 9 16 2 -10 -20 -20 -19 -20 -20 -20 -20 -8 -20 -20 -14 0 8 -19 -2 12 -15 -20 -14 3 16 13 11 3 -20 -20 -20 -20
-20 -19 -20 -20 -20 -11 10 -15 -17 -12 6 -20 -20 -20 -20 -20 6 -13 -15 -2 -20 1 8 4 11 8 -20 -20 -20 -20 -20 -20 -19 -20 -20 -20 -20 -20
-20 -20 -20 -20 -20 -20 10 8 17 17 -16 -10 19 -11 -15 -19 -19 1 -5 -20 -13 13 12 8 6 9 -20 -20 -20 -20 -20 -20 -20 -20 -20 -20 -20 -20
-20 -20 -20 -20 -20 6 -12 -20 4 7 -20 -12 -5 22 -13 -20 0 -20 -20 -20 -6 14 12 -6 9 -4 -20 -20 -20 -20 -20 -20 -20 -20 -20 -20 -20 -20
-20 -20 -20 -20 -20 -20 -16 2 -2 -20 -20 -20 -14 -5 -11 15 12 -11 -20 -5 -2 15 7 -9 -17 -16 -20 -20 -20 -20 -20 -20 -20 -20 -20 -20 -20 -20
-20 -20 -20 -20 -20 -20 -20 -20 -15 9 12 -0 -19 -17 6 -19 -20 -20 -20 -20 -20 -20 9 -20 -20 -20 -20 -20 -20 -20 -20 -20 -20 -20 -20 -20 -20 -20
-20 -20 -20 -20 -20 -17 -14 -20 -7 12 15 7 -20 -4 -0 -16 -20 -20 -20 -20 -8 -20 -20 -20 -20 -20 -20 -20 -20 -20 -20 -20 -20 -20 -20 -20 -20 -20
-20 -20 -20 -20 -20 -20 1 4 9 -9 -20 -20 -20 -20 -20 -12 -20 -20 -20 -20 -20 -7 -13 -20 -20 -20 -20 -20 -20 -20 -20 -20 -20 -20 -20 -20 -20 -20
-20 -20 -20 -20 -2 -16 9 -2 -8 0 -2 -17 -20 -20 -20 -20 -20 -16 -20 -20 -19 2 -19 -20 -20 -20 -20 -20 -20 -20 -20 -20 -20 -20 -20 -20 -20 -20
-20 -20 -20 2 11 7 -6 -20 -20 -20 -20 -20 -20 -20 -20 -20 -20 -20 -19 -20 -10 -16 -20 -20 -20 -20 -20 -20 -20 -20 -20 -20 -20 -20 -20 -20 -20 -20
-20 -20 -20 -15 17 12 -15 -20 -20 -20 -20 -20 -20 -20 -20 -20 -20 -20 -20 -19 -7 -20 -20 -20 -20 -20 -20 -20 -20 -20 -20 -20 -20 -4 -16 -20 -20 -20
-20 -20 3 8 19 11 -7 -20 -20 -15 -20 -20 -14 -19 -20 -20 -20 -20 -20 -20 -20 -20 -20 -20 -20 -20 -20 -20 -20 -20 -20 -20 -20 -20 -20 -20 -20 -20
-20 -20 -15 18 12 9 10 -18 -12 -20 -16 -9 -11 -20 -9 -7 2 -17 -20 -20 -20 -20 -20 -20 -20 -20 -20 -20 -20 -20 -20 -20 -20 -20 -20 -20 -20 -20
-20 -20 -12 3 2 0 6 9 0 -17 -20 -14 -20 -20 -20 -20 -20 -20 -20 -20 -20 -20 -20 -20 -20 -20 -20 -20 -20 -20 -20 -20 -20 -20 -20 -20 -20 -20
-20 -20 -15 -17 -5 -6 6 -4 -1 -20 -20 -12 -16 -20 -20 -11 -12 -20 -20 -20 -20 -20 -20 -20 -20 -20 -20 -20 -20 -20 -20 -20 -20 -20 -20 -20 -20 -20
-20 -20 -20 -20 -17 -20 -20 -20 -20 -20 -20 -20 -20 -11 1 -9 -20 -6 -20 -20 -20 -20 -20 -20 -20 -20 -20 -20 -20 -20 -20 -20 -20 -20 -20 -20 -20 -20
-20 -20 -20 -20 -20 -11 6 -20 -20 -20 -20 -16 0 -8 -20 -20 -20 -20 -20 -20 -20 -20 -20 -20 -20 -20 -20 -20 -20 -20 -20 -20 -20 -20 -20 -20 -20 -20
-20 -20 -20 -20 -20 -4 -17 7 -2 -20 -20 -9 3 -5 -15 -13 -20 -17 -20 -20 -20 -20 -20 -20 -20 -20 -20 -20 -20 -20 -20 -20 -20 -20 -20 -20 -20 -20
-20 -20 -20 -20 -20 -20 -20 -20 1 10 -7 7 7 -16 -16 -20 -20 -20 -19 -20 -20 -20 -20 -15 -20 -20 -20 -20 -20 -20 -20 -20 -20 -20 -20 -20 -20 -20
-20 -20 -20 -20 -20 -20 -20 -20 -20 -20 -13 -10 -20 -20 -20 -20 -20 -20 -20 -20 -20 -19 -20 -20 -20 -20 -20 -20 -20 -20 -20 -20 -20 -20 -20 -20 -20 -20
-20 -20 -20 -20 -20 -20 -20 -20 -20 -20 -20 -20 -20 -20 -11 -20 -20 -20 -20 -20 -20 -13 -10 -18 -20 -20 -20 -20 -20 -20 -20 -20 -20 -20 -20 -20 -20 -20
-20 -20 -20 -20 -20 -20 -20 -20 -20 -20 -11 -20 -20 -20 -20 -20 -20 -20 -20 -20 -20 -15 -16 -19 -20 -20 -20 -20 -20 -20 -20 -20 -20 -20 -20 -20 -20 -20
-20 -20 -20 -20 -20 -20 -20 -19 -20 -19 -20 -20 -18 -20 -20 -20 -20 -20 -20 -20 -20 -20 -16 -20 -20 -20 -20 -20 -20 -20 -20 -20 -20 -20 -20 -20 -20 -20

GFSNE_prec_radar_108.txt.gz
Reflectivity
-0 0 -20 -20 -12 -6 20 6 22 17 -4 10 -20 -18 3 -19 8 -17 -20 -19 -20 -20 -20 -20 -20 -20 -17 -20 -7 23 24 27 29 14 3 -11 -20 -20
-20 -20 -20 -20 -20 -20 -20 -20 -7 8 17 -20 -7 17 -14 -20 -0 -6 -13 3 -20 -20 -20 0 -20 -20 6 -17 -20 6 17 12 11 11 8 -20 -20 -20
-20 -20 -20 -20 -20 -20 -20 -20 -20 7 2 4 0 19 -20 20 16 -12 9 -19 -20 -17 -20 3 4 4 3 -20 -20 -20 -20 -20 -17 -20 -20 -20 -20 -20
-20 -20 -20 -20 -20 -20 -20 -1 -3 6 -20 -20 11 9 8 -7 4 16 -20 -13 -5 -10 -20 -2 9 9 12 -20 -20 -20 -20 -20 -20 -20 -20 -20 -20 -20
-20 -20 -20 -20 -20 -20 -20 -20 17 18 -4 -9 12 7 13 10 -2 -0 -16 -18 -20 -17 -20 -20 -19 -20 -8 -20 -20 -20 -20 -20 -20 -20 -20 -20 -20 -20
-20 -20 -20 -20 -20 -20 -20 -20 -15 -19 -9 -8 -1 10 -9 -16 -10 -3 -11 -3 3 -5 6 7 1 -8 -19 -20 -20 -20 -20 -20 -20 -20 -20 -20 -20 -20
-20 -20 -20 -20 -20 -20 -20 -20 -20 -20 -5 13 15 9 12 -9 4 -1 15 -17 7 1 -8 -18 -20 -20 -20 -20 -20 -20 -20 -20 -20 -20 -20 -20 -20 -20
-20 -20 -20 -20 -20 -20 -14 3 -20 -20 -20 -20 -12 -17 1 -1 -2 6 -20 -20 -5 -15 -13 -4 -20 -20 -20 -20 -20 -20 -20 -20 -20 -20 -20 -20 -20 -20
-20 -20 -20 -20 -20 -20 -2 -8 11 -6 0 -13 -20 -20 -20 -16 -11 -20 -20 -20 -16 -19 -20 -20 -20 -20 -17 -8 -20 -20 -20 -20 -20 -20 -20 -20 -20 -20
-20 -20 -20 -20 -20 -20 -20 -15 10 -3 -13 -16 -20 -20 -20 -20 -20 -20 -20 -7 -20 -20 -20 -20 -20 -20 -20 -20 -20 -20 -20 -20 -20 -20 -20 -20 -20 -20
-20 -20 -20 -20 -7 -20 -20 -20 3 8 11 9 11 10 -1 -15 -20 -20 -20 -20 -20 -20 -20 -10 -8 -20 -20 -20 -20 -20 -20 -20 -20 -20 -20 -14 -20 -20
-20 -20 -20 -11 1 -20 -20 -20 -20 -20 -20 -20 -20 -20 -10 -20 -18 4 -20 -14 -20 -20 -20 -11 -13 -13 -20 -20 -20 -20 -20 -20 -20 3 7 -20 -19 -20
-20 -20 -20 -20 -12 -14 -14 -12 -15 -12 0 -14 -20 -20 -20 -16 -12 -6 -20 -7 -20 -20 -20 -20 -20 -20 -20 -20 -20 -20 -20 -20 -20 -20 -20 -20 -20 -20
-20 -20 -20 -20 -20 -20 -17 5 -11 -6 -19 -20 -20 -14 -16 -9 -17 -20 -0 0 -20 -20 -20 -20 -18 -20 -20 -20 -20 -20 -20 -20 -20 -20 -20 -20 -20 -20
-20 -4 -20 -20 -20 -20 -20 -9 -9 -19 -20 -20 -20 -20 -20 -1 -3 -20 -20 -20 -3 -20 -20 -15 -19 -20 -20 -20 -20 -20 -20 -20 -20 -20 -20 -20 -20 -20
-1 -20 -20 -20 -20 -20 -20 -20 -20 -20 -20 -20 -20 -20 -20 -20 -20 -20 -20 -20 -20 -20 -20 -20 -20 -20 -20 -20 -20 -20 -20 -20 -20 -20 -20 -20 -20 -20
-20 -20 -20 -20 -20 -20 -20 -20 -20 -20 -20 -20 -13 -20 -20 -20 -17 -7 -20 -18 -10 -20 -20 -20 -20 -20 -20 -20 -20 -20 -20 -20 -20 -20 -20 -20 -20 -20
-16 -20 -20 -20 -20 -20 -20 -20 -20 -20 -20 -12 -9 -1 -20 -20 -18 -3 0 -20 -20 -20 -20 -20 -14 -17 -20 -20 -20 -20 -20 -20 -20 -20 -20 -20 -20 -20
-1 -20 -20 -20 -20 -20 -20 -20 -20 -20 -20 -19 -19 -17 -18 1 -8 -19 -20 -20 -20 -20 -20 -4 -11 -20 -20 -20 -20 -20 -20 -20 -20 -20 -20 -20 -20 -20
-14 -20 -20 -20 -20 -20 -20 -20 -20 -20 -20 -20 -20 -20 -20 -20 -20 -20 -20 -20 -20 -20 -20 -16 -15 -20 -20 -17 -20 -20 -20 -20 -20 -20 -20 -20 -20 -20
-20 -20 -20 -20 -20 -20 -20 -20 -20 -20 -20 -20 -20 -20 -20 -20 -20 -20 -20 -20 -20 -20 -16 -19 -20 -16 10 9 -18 -20 -20 -20 -20 -20 -20 -20 -20 -20
-20 -20 -20 -20 -20 -20 -20 -20 -20 -20 -20 -20 -20 -20 -20 -20 -13 -20 -20 -20 -20 -20 -17 -20 -20 -20 -19 -9 -20 -20 -20 -20 -20 -20 -20 -20 -20 -20
-11 -20 -20 -20 -20 -20 -20 -20 -20 -20 -20 -20 -20 -20 -20 -20 -20 -20 -20 -20 -20 -19 -9 -20 -20 -20 4 3 -5 -20 -20 -20 -20 -20 -20 -20 -20 -20

GFSNE_prec_radar_111.txt.gz
Reflectivity
-20 -20 -20 -20 -20 -7 -13 8 15 9 3 -20 -15 -11 -20 -17 19 19 -4 26 7 7 -20 -20 -20 -20 -18 -5 -19 12 3 -15 24 10 18 14 -2 -20
-20 -20 -20 -20 -20 -20 -20 -16 -3 6 7 -20 -20 -20 -19 -3 -8 -5 -4 22 22 5 12 -20 -20 -20 -20 -20 -20 12 19 23 24 23 20 2 -20 -20
-20 -20 -20 -20 -20 -20 -20 -20 -20 -18 10 -17 -20 -13 -20 13 2 17 14 10 1 19 -3 -20 -5 -18 -4 -20 -20 -20 16 15 21 13 9 -17 -20 -20
-20 -20 -20 -20 -20 -20 -20 -20 -20 -20 -0 -20 -19 -19 -20 -10 -20 -19 -15 14 8 10 10 -20 1 -3 -20 5 -20 -20 -20 -4 -20 -20 -20 -20 -20 -20
-20 -20 -20 -20 -20 -20 -20 -20 -20 -20 -20 -11 4 -15 7 12 -7 -1 -11 -9 15 17 9 -20 -20 -19 8 8 -8 -20 -20 -20 -20 -20 -20 -20 -20 -20
-20 -20 -20 -20 -20 -20 -20 -20 -20 -20 -20 -20 -20 -15 -7 -12 -8 -16 -7 -3 10 3 13 -20 -4 5 11 1 -12 -18 -20 -20 -20 -20 -20 -20 -20 -20
-20 -20 -20 -20 -20 -20 -20 -20 -20 -20 -20 -20 -20 -17 1 0 14 8 -1 14 12 20 10 -7 -20 -4 -1 -2 -10 -10 -6 -20 -20 -20 -20 -20 -20 -20
-20 -20 -20 -20 -20 -20 -20 -20 -20 -20 -20 -20 -20 -20 -10 -14 11 11 12 4 -10 -1 -19 -20 -20 -11 -1 10 -13 -14 -20 2 -20 -20 -20 -20 -20 -20
-20 -20 -20 -20 -20 -20 -20 -20 -8 7 10 -15 -20 -20 -20 -20 2 -15 -20 -20 -20 -20 -20 -20 -20 -20 -18 -7 13 2 -9 -20 -20 -20 -20 -20 -20 -20
-20 -20 -20 -20 -20 -20 -20 -20 -20 -11 -5 12 1 -16 -20 -20 -17 8 -20 0 1 -19 -18 -20 -20 -20 -20 -20 -20 -20 -20 -20 -20 -20 -20 -20 -20 -20
-20 -20 -20 -20 -20 -19 -20 -20 -20 -19 12 12 9 11 10 8 -7 -19 -20 -19 -20 -20 -20 -19 -20 -18 -13 -20 -20 -20 -12 -20 -20 -20 -20 -20 -20 -20
-20 -20 -20 -20 -20 -20 -20 -20 -20 -20 5 9 2 6 7 -5 8 -20 14 -12 -15 -6 -12 -4 -20 -20 -16 -6 -20 -20 -20 -20 -20 -20 -20 -19 -20 -20
-20 -20 -20 -20 -20 -20 -15 -20 -20 -20 -11 -15 -13 -14 -17 -18 -20 -20 -20 -20 -18 -12 -16 -17 -20 -17 -7 -14 -7 -20 -20 -20 -20 -20 -20 -20 -20 -20
-20 -20 -20 -20 -20 -20 -20 -20 -20 -18 -19 -20 -9 -9 -15 -20 -20 -20 4 -3 -1 -13 -20 -20 -20 -20 -18 -7 -20 -20 -20 -20 -20 -20 -20 -20 -20 -20
-20 -16 -19 -20 -20 -20 -20 -20 -20 -20 -20 -20 -20 -20 -20 -20 -20 -20 -20 -20 -20 -14 -16 -20 -20 -20 -20 -19 -20 -20 -20 -20 -20 -20 -20 -20 -20 -20
-20 -20 -16 -20 -20 -20 -20 -20 -20 -20 -20 -20 -20 -20 -20 -20 -20 -20 -20 -20 -20 -20 -19 -20 -20 -20 -10 -20 -20 -20 -20 -19 -20 -20 -20 -20 -20 -20
-20 -20 -20 -20 -20 -20 -20 -20 -20 -20 -20 -20 -20 -20 -20 -19 -20 -20 -20 -20 -20 -20 -17 -15 -20 -20 -20 -20 -20 -20 -20 -10 -13 -20 -20 -20 -20 -20
-20 -20 -20 -20 -20 -20 -20 -20 -20 -20 -20 -20 -20 -20 -20 -20 -17 -12 -19 -12 -20 -20 -20 -20 -20 -20 -20 -20 -20 -20 -9 -12 -20 -20 -20 -20 -20 -20
-20 -20 -20 -5 -14 -20 -20 -20 -20 -20 -20 -20 -20 -20 -20 -20 -20 -20 -20 -20 -20 -20 -20 -14 -5 -19 -20 -20 -20 -4 -8 -20 -20 -20 -20 -20 -20 -20
-20 -16 0 9 -10 -20 -20 -20 -20 -20 -20 -20 -20 -20 -20 -20 -20 -20 -20 -20 -20 -20 -20 -20 -20 -20 -20 -20 -7 -1 -20 -13 -20 -20 -20 -20 -20 -20
-20 -20 -2 -11 -20 -20 -20 -20 -20 -20 -20 -20 -20 -20 -20 -20 -20 -20 -20 -20 -20 -20 -20 -20 -20 -12 -20 -16 -15 -20 -20 2 -7 -20 -20 -20 -20 -20
-10 -8 -20 -18 -20 -20 -20 -20 -20 -20 -20 -20 -20 -20 -20 -20 -20 -20 -20 -20 -20 -8 -11 -13 -20 -20 -5 -16 -20 -14 -20 -20 -20 -20 -20 -20 -20 -20
-5 -20 -20 -20 -20 -20 -20 -20 -20 -20 -20 -20 -20 -20 -20 -20 -20 -20 -20 -20 -20 -20 -20 -20 -20 -20 -8 -6 -12 -19 -12 -12 -12 -20 -20 -20 -20 -20

GFSNE_prec_radar_114.txt.gz
Reflectivity
-20 -20 -20 -20 -20 -20 -9 1 9 -1 -20 -20 -20 -20 -20 -20 -20 -20 -3 16 16 -3 -17 7 2 5 -18 -1 -4 -19 -17 -20 1 22 11 -10 7 -5
-20 -20 -20 -20 -20 -20 -20 -20 -20 -3 -17 -20 -20 -20 -20 -20 -20 -20 -20 -20 2 -5 9 33 18 -6 -14 -10 4 -12 19 19 21 19 20 19 14 11
-20 -20 -20 -20 -20 -20 -20 -18 -20 -9 7 -20 -20 -20 -20 -20 -20 -18 -9 -20 -2 2 9 1 8 -20 -14 -2 -10 -4 19 21 24 23 26 24 16 16
-20 -20 -20 -20 -20 -20 -20 -20 -20 -19 -2 -20 -20 -20 -20 -6 -20 -20 -20 -20 -20 12 4 11 -3 -7 -18 6 -11 0 10 11 10 20 17 6 17 5
-20 -20 -20 -20 -20 -20 -20 -20 -20 -20 6 -16 -20 -20 -20 -20 -20 -16 -17 -20 -1 26 17 14 -12 3 9 2 -16 4 -20 0 13 6 18 2 1 -20
-20 -20 -20 -20 -20 -20 -20 -20 -19 -20 -20 -20 -18 -13 -20 -20 -20 -20 -20 -18 -11 6 21 16 4 7 -2 -18 -4 5 -20 10 9 -18 -16 -18 -20 -20
-20 -20 -20 -20 -20 -20 -20 -20 -20 -20 -7 -18 -19 0 -20 -20 -12 -17 17 15 12 1 -4 -15 -6 -4 -20 7 -0 -16 5 6 5 -18 -20 -20 -20 -20
-20 -20 -20 -20 -20 -20 -20 -20 -20 -20 -20 -3 -20 -18 4 -20 -10 -12 11 8 11 -1 0 8 -8 -16 -20 -20 -20 -12 -20 -9 -2 -16 -17 -20 -20 -20
-20 -20 -20 -20 -20 -20 -20 -20 -20 -20 -20 -20 -20 -20 -20 -20 -20 -20 -20 -15 -3 16 -4 -13 -16 -20 -20 -20 -20 -20 -19 -19 -20 -20 -6 -14 -20 -20
-20 -20 -20 -20 -20 -20 -20 -20 -20 -20 -20 -20 -6 -0 -20 -20 -20 -20 -20 -3 7 -9 -12 3 7 -2 -20 -20 -20 -5 -19 -20 -20 -5 -14 -20 -20 -20
-20 -20 -20 -20 -20 -20 -20 -20 -20 -20 -20 -13 7 7 11 6 -11 -10 -12 -15 -5 -19 -20 5 -13 -20 -9 -20 -20 -20 -20 -6 5 5 -20 -20 -20 -20
-20 -20 -20 -20 -20 -20 -20 -20 -20 -20 -20 -20 -20 2 5 3 3 -10 -20 -20 -20 -19 -20 -20 -20 -20 -20 -20 -20 -20 -20 -20 -12 -20 -20 -20 -7 -20
-20 -20 -20 -20 -20 -20 1 -20 -20 -20 -20 -20 -20 -20 -11 -12 -5 -3 -3 -8 -18 -4 -0 -20 -20 -20 -20 -20 -20 -20 -20 -20 -20 -1 -6 4 -9 -20
-20 -20 -20 -20 -20 -20 -20 6 3 -20 -20 -20 -20 -20 -20 -20 -20 -20 -20 -19 -20 -4 -7 2 -17 -20 -20 -20 -20 -18 -20 -20 -20 -20 -20 -20 -20 -20
-20 -8 -20 -20 -20 -20 -20 -20 -12 -20 -20 -20 -20 -20 -20 -20 -20 -20 -20 -20 -20 -20 -20 -20 -11 -19 -20 -20 -20 -20 -19 -20 -20 -20 -20 -20 -20 -20
-10 -20 -20 -20 -19 -15 -20 -20 -20 -20 -20 -20 -20 -20 -20 -20 -20 -20 -20 -20 -20 -20 -20 -20 -20 -20 -20 -20 -20 -20 -20 -20 -20 -20 -20 -20 -20 -20
-20 -20 -20 -20 -20 -20 -20 -20 -20 -20 -20 -20 -20 -20 -20 -20 -20 -20 -20 -20 -20 -20 -20 -20 -20 -20 -20 -20 -20 -20 -20 -20 -20 -20 -20 -20 -20 -20
-20 -20 -20 -20 -20 -20 -20 -20 -20 -20 -20 -20 -20 -20 -20 -20 -20 -20 -20 -20 -20 -20 -20 -20 -20 -20 -20 -20 -20 -20 -20 -20 -20 -20 -20 -20 -20 -20
-17 -20 -20 -20 -20 -20 -20 -20 -20 -20 -20 -20 -20 -20 -20 -20 -20 -20 -20 -20 -20 -20 -20 -20 -20 -20 -20 -20 -20 -20 -20 -20 -15 4 -20 -20 -20 -20
-20 -20 -20 -20 -20 -20 -20 -20 -20 -20 -20 -20 -20 -20 -20 -16 -20 -20 -20 -20 -20 -20 -15 -20 -20 -20 -20 -20 -20 -5 -20 -20 -20 -20 -20 -20 -20 -20
-20 -20 -20 -20 -19 -20 -20 -20 -20 -20 -20 -20 -20 -20 -20 -2 -20 -20 -20 -20 -20 -20 -20 -18 -13 -15 -13 -1 -18 -11 -20 -20 -20 -18 -8 1 -5 -17
-16 -17 -20 -7 -3 -18 -14 -14 -15 -19 -20 -20 -20 -20 -20 -20 -20 -20 -20 -20 -20 -20 -20 -20 -20 -20 3 -3 -20 4 -20 -20 -20 -20 -20 -10 -19 -20
7 -6 -10 -3 -1 2 -7 -15 -18 -20 -20 -20 -20 -20 -20 -20 -20 -20 -20 -20 -20 -20 -20 -20 -20 -20 -20 0 -10 13 -20 -20 -20 -20 -20 -1 -10 -20

GFSNE_prec_radar_117.txt.gz
Reflectivity
-18 -20 -20 -20 -20 -20 -20 3 11 -7 -20 -20 -6 -20 -20 -20 -17 -20 -20 7 -8 20 14 -16 -19 -18 19 23 -4 -1 -15 -7 -9 3 -20 14 19 37
1 -14 -20 -20 -20 -20 -20 -20 -20 -13 -15 -20 -20 -20 -20 -20 -20 -20 -18 4 -11 13 17 8 -1 18 12 26 -12 -20 -20 13 19 10 13 24 22 7
-20 -20 -20 -20 -20 -20 -20 -20 -5 -4 -15 -20 -20 -20 -20 -20 -20 -20 -20 -20 6 1 14 9 9 -20 6 10 -20 -20 -1 7 22 24 28 23 15 13
-20 -20 -20 -20 -20 -20 -20 -20 -20 -19 -10 -20 7 -20 -20 -20 -20 -20 -20 -3 9 12 8 13 14 -12 1 -14 9 -20 5 2 7 24 22 24 20 23
-20 -20 -20 -20 -20 -20 -20 -20 -20 -16 -3 -17 -20 -14 -10 -14 -20 -20 -20 13 1 19 8 -0 12 9 -2 -10 14 14 10 3 8 13 22 17 16 21
-20 -20 -20 -20 -20 -20 -20 -20 -20 -20 -20 -20 -9 -20 -20 -19 -8 -20 -20 -20 -20 -11 12 18 7 15 4 -8 -3 -1 12 4 -15 -18 12 -10 17 12
-20 -20 -20 -20 -20 -20 -20 -20 -20 -20 -20 -20 -18 -16 -20 -20 4 -18 -20 -20 -12 -3 17 16 7 -19 -14 -18 -11 -20 1 8 -5 -2 7 -10 1 3
-20 -20 -20 -20 -20 -20 -20 -20 -20 -20 -20 -20 -20 -20 -20 9 13 13 -16 -11 -10 -5 4 0 0 -10 -8 -16 4 7 -19 -9 -4 -8 -20 -19 6 -3
-20 -20 -20 -20 -20 -20 -20 -20 -20 -20 -20 -20 -20 -16 -20 -20 -10 -16 -20 -11 -4 4 4 -6 -6 -9 -18 -18 14 10 -4 -16 -6 -3 -6 -20 -9 -13
-20 -20 -20 -20 -20 -20 -20 -20 -20 -20 -20 -20 -20 -20 -20 0 4 -20 -20 -15 -10 1 -2 -4 -7 -13 -20 -20 10 -1 -20 -19 -13 -13 -20 -20 -20 -20
-20 -20 -20 -20 -20 -20 -20 -20 -20 -20 -20 -20 -20 -20 -20 8 7 -18 -9 -10 -12 -9 -6 13 9 -20 6 -20 -20 -19 -20 -20 -5 -20 -18 -16 -19 -20
-20 -20 -20 -20 -20 -20 -20 -20 -20 -20 -20 -20 -20 -20 -20 -7 -1 -13 -13 -20 -6 12 7 9 -17 -9 -11 -20 -20 -20 -20 -20 -20 -20 -19 -14 -1 -20
-20 -20 -20 -20 -20 -20 -20 -20 -20 -20 -20 -20 -20 -20 -20 -20 -20 -18 -0 8 17 22 15 3 -7 10 -7 -20 -20 -20 -20 -20 -20 -20 -20 -19 1 -13
-20 -20 -20 -20 -20 -20 -20 -20 -20 -19 -20 -20 -20 -20 -20 -20 -20 -20 -20 -4 5 15 9 6 -20 -20 -20 -20 -20 -20 -20 -20 -20 -20 -20 -11 7 10
-20 -20 4 -20 -20 -20 -20 -20 -20 -20 -20 -20 -20 -20 -20 -20 -20 -20 -20 -20 -20 -20 -1 -16 -16 -20 -20 -20 -20 -20 -20 -20 -20 -20 -20 -20 -20 -20
-20 -20 -18 -20 -20 -20 -20 -20 -20 -20 -20 -20 -20 -20 -20 -20 -20 -20 -20 -20 -20 -20 -20 -20 -20 -20 -20 -20 -20 -20 -20 -20 -20 -20 -20 -20 -20 -20
-20 -20 -20 -20 -20 -20 -20 -20 -20 -20 -20 -20 -20 -20 -20 -20 -20 -20 -20 -20 -20 -20 -20 -20 -20 -20 -20 -20 -20 -20 -20 -20 -20 -20 -20 -20 -20 -20
-20 -20 -20 -20 -20 -20 -20 -20 -20 -20 -20 -20 -20 -20 -20 -20 -20 -20 -20 -20 -20 -20 -20 -20 -20 -20 -20 -20 -20 -20 -20 -20 -20 -20 -20 -20 -20 -20
-18 -20 -20 -20 -20 -20 -20 -19 -10 -20 -20 -20 -20 -20 -20 -20 -20 -20 -20 -20 -20 -20 -20 -20 -20 -20 -20 -20 -20 -20 -20 -20 -20 -20 -20 -14 -3 -20
-9 -20 -19 -19 -20 -20 -20 -18 -12 -13 -20 -20 -20 -20 -20 -20 -20 -20 -20 -20 -20 -20 -20 -20 -20 -20 -20 -18 -7 -15 -20 -20 -19 -20 -20 -20 -20 -20
-20 -9 -4 -1 -17 -20 -20 -20 -8 -20 -15 -20 -20 -20 -20 -20 -20 -20 -20 -20 -20 -20 -20 -20 -20 -20 -13 -19 -6 -20 -20 -20 -20 -20 -20 -20 -20 -20
-4 13 0 -2 -7 -6 -8 -2 -5 14 -13 -20 -20 -20 -20 -20 -20 -20 -20 -20 -20 -20 -20 -20 -20 -20 -16 -6 -20 -20 -20 -20 -20 -20 -20 -20 -20 -20
23 26 14 9 12 -0 4 -1 -6 -7 -7 -11 -18 -20 -20 -20 -20 -20 -20 -20 -20 -20 -20 -20 -20 -20 -20 -20 -20 -20 -20 -20 -20 -17 -20 -20 -20 -20

GFSNE_prec_radar_120.txt.gz
Reflectivity
-2 -20 -20 -20 -19 -20 -20 -20 -20 -20 -20 -20 -20 -20 -20 -20 -20 -20 -20 -20 -3 13 12 13 19 -11 19 26 6 -15 17 -20 -20 -20 -2 -6 16 15
14 4 -10 -20 -20 -20 -20 -20 -20 -20 -20 -20 -20 -20 -20 -20 -12 -20 -20 -8 7 15 15 16 13 11 -7 3 -15 10 11 -18 -11 19 14 -3 -2 27
-12 -20 -20 -20 -20 -20 -20 -20 -20 -20 -16 -20 -20 -20 -20 -20 -20 -7 5 -20 -10 -0 17 14 15 8 2 8 -10 3 -20 -20 19 31 26 30 28 23
-20 -20 -20 -20 -20 -20 -20 -20 -20 -20 -20 -20 -20 -20 -20 -20 -19 -2 7 -20 -19 16 12 9 4 -18 -3 9 -9 -20 -7 18 3 23 36 23 20 21
-20 -20 -20 -20 -20 -20 -20 -20 -20 -20 -20 -20 -20 -20 -20 -20 -20 -20 -20 -20 -20 -0 -4 -8 8 -7 6 -20 9 -15 -20 -6 -3 -3 5 14 26 26
-20 -20 -20 -20 -20 -20 -20 -20 -20 -20 -20 -20 -20 -20 -20 -20 -20 -20 -20 -20 -20 -16 5 3 16 -2 12 0 -6 -19 -20 -15 -16 -10 12 9 22 22
-7 -15 -20 -20 -20 -20 -20 -20 -20 -20 -20 -20 -20 -20 -20 -20 -20 -20 -20 5 -6 -20 -18 -6 1 12 19 12 6 9 -13 -16 6 3 7 11 -13 7
-20 -20 -20 -20 -20 -20 -20 -20 -20 -20 -20 -20 -20 -20 -20 -20 -20 -20 -20 3 -1 -20 -7 -10 12 18 12 -11 14 9 -2 -10 -11 15 12 12 6 -20
-20 -20 -20 -20 -20 -20 -20 -20 -20 -20 -20 -20 -20 -20 -20 -20 -20 -20 -20 -20 -3 -4 -13 -2 2 -5 -3 -2 17 5 -13 6 -17 -1 23 9 -1 -12
-20 -20 -20 -20 -20 -20 -20 -20 -20 -20 -20 -20 -20 -20 -20 -20 -20 -20 -20 -20 -20 -20 -13 -5 -13 -18 -6 -4 18 7 8 -14 -1 -20 -12 -6 1 -20
-20 -20 -20 -20 -20 -20 -20 -20 -20 -20 -20 -20 -20 -20 -20 -20 -20 -20 -20 -20 -20 -20 -20 -9 -15 -14 -4 11 14 14 5 -1 -20 -20 -20 -20 -17 -20
-20 -20 -20 -20 -20 -20 -20 -20 -20 -20 -20 -20 -20 -20 -20 -20 -20 -20 -20 -20 -14 -11 -20 -5 -10 -2 0 -4 5 3 -20 -20 -20 -20 -20 -2 -19 -18
-20 -20 -20 -20 -20 -20 -20 -20 -20 -20 -20 -20 -20 -20 -20 -20 -20 -20 -20 -20 -8 6 10 14 -10 -18 -6 -15 -12 -20 -20 -20 -20 -20 -20 -19 10 -20
-20 -20 -20 -20 -20 -20 -20 -20 0 -20 -20 -20 -20 -20 -20 -20 -20 -20 -20 -20 -20 -17 -0 16 2 -14 -19 -20 -20 -20 -20 -20 -20 -20 -20 -20 -0 3
-20 -20 -20 -20 -20 -20 -20 -20 -19 -18 -20 -20 -20 -20 -20 -20 -20 -20 -20 -20 -20 -20 -19 -12 5 -13 -18 -20 -20 -20 -20 -20 -20 -20 -20 -20 -20 -20
-19 -20 -20 -1 -20 -20 -20 -20 -20 -20 -20 -20 -20 -20 -20 -20 -20 -20 -20 -20 -20 -20 -20 -20 -20 -20 -20 -20 -20 -20 -20 -20 -20 -20 -20 -20 -20 -20
-20 -20 -20 -20 -20 -20 -20 -20 -20 -20 -20 -20 -20 -20 -20 -20 -20 -20 -20 -20 -20 -20 -20 -20 -20 -20 -20 -20 -20 -20 -20 -20 -20 -20 -20 -20 -20 -20
18 0 -20 -20 -20 -20 -20 -20 -20 -6 -20 -20 -20 -20 -20 -20 -20 -20 -20 -20 -20 -20 -20 -20 -20 -20 -20 -20 -20 -20 -20 -20 -20 -20 -20 -20 -20 -20
12 5 15 -20 -20 -20 -20 -20 -20 -20 -20 -20 -20 -20 -20 -20 -20 -20 -20 -20 -20 -20 -20 -20 -20 -20 -20 -20 -20 -20 -18 -20 -20 -20 -20 -20 -20 -20
33 28 26 20 -20 -20 -20 -20 -20 -19 -20 -20 -20 -20 -20 -20 -20 -20 -20 -20 -20 -20 -20 -20 -20 -20 -20 -13 5 2 -20 -20 -20 -20 -20 -20 -20 -20
27 25 4 -20 -12 -2 -5 -19 -20 -7 -7 -20 -20 -20 -20 -20 -20 -20 -20 -20 -15 -20 -20 -20 -20 -20 -20 -20 -20 -20 -20 -20 -20 -20 -20 -17 -19 -20
24 28 28 18 7 19 15 11 5 3 -3 -5 -3 -20 -20 -20 -20 -20 -20 -20 -20 -20 -20 -20 -20 -20 -20 -20 -20 -20 -20 -20 -20 -20 -20 -20 -20 -20
19 23 24 22 21 25 19 19 22 11 -2 -6 -6 -18 -20 -20 -20 -20 -20 -20 -20 -20 -20 -20 -20 -20 -20 -20 -20 -20 -20 -20 -20 -13 -20 -19 -20 -20

GFSNE_prec_radar_123.txt.gz
Reflectivity
11 20 -13 -20 -18 4 -20 -20 -2 -5 -20 -20 -20 -20 -20 -20 -20 -20 -20 13 -17 4 -4 9 10 10 3 2 0 -20 -20 -20 -20 -20 -20 -20 -4 1
17 20 20 -17 -20 -16 -20 -20 -20 -20 -20 -20 -20 -20 -20 -20 -17 -20 -14 13 -14 -19 -9 -3 5 16 7 -20 -20 -20 -20 -20 -20 -20 -20 -20 -20 7
24 23 12 10 -20 -20 -20 -20 -20 -20 -20 -20 -20 -20 -20 -20 -20 -20 -2 4 -17 -12 -14 -16 9 12 9 8 -4 -20 -19 -20 -20 -20 18 19 -0 22
19 33 27 2 -20 -20 -20 -20 -20 -20 -20 -20 -20 -20 -20 -20 -20 -20 -20 -20 2 11 -20 -16 9 8 12 2 -12 -15 -20 -20 -12 -20 12 35 29 26
24 30 19 -14 -20 -20 -20 -20 -20 -20 -20 -20 -20 -20 -20 -20 -20 -20 -20 -20 -20 -13 -20 -20 -7 -9 -17 -20 -5 -2 -12 -11 -20 -4 -2 21 29 37
27 30 21 1 -20 -20 -20 -20 -20 -20 -20 -20 -20 -20 -20 -20 -20 -20 -20 -20 -20 -20 -7 7 14 9 -6 -2 -11 -14 -20 -10 -20 -18 -12 -17 11 16
23 -4 -16 -13 -5 -18 -20 -20 -20 -20 -20 -20 -20 -20 -20 -20 -20 -20 -20 -20 -20 -20 -3 -20 -7 -11 8 -8 14 8 -5 -4 -14 -20 13 3 -16 24
6 -6 -13 -15 -20 -20 -20 -20 -20 -20 -20 -20 -20 -20 -20 -20 -20 -20 -20 -20 -20 -20 -15 -4 -6 -5 10 18 20 10 -7 -20 -20 -20 11 14 -2 -19
-2 -14 -20 -20 -20 -20 -20 -20 -20 -20 -20 -20 -20 -20 -20 -20 -20 -20 -20 -20 -20 -20 -20 -3 -18 13 11 -2 3 -17 -1 -3 -20 -16 -20 5 18 16
-20 -20 -20 -20 -20 -20 -20 -20 -20 -20 -20 -20 -20 -20 -20 -20 -20 -20 -20 -20 -20 -20 -20 -18 -19 -6 -3 -10 11 9 5 7 4 -7 -7 -9 10 17
-20 -20 -15 -20 -20 -20 -20 -20 -20 -20 -20 -20 -20 -20 -20 -20 -1 -19 -20 -20 -20 -20 -20 -12 -16 -11 -13 -19 -12 12 7 7 4 -20 -6 2 6 8
-20 -20 -20 -20 -20 -20 -20 -20 -20 -20 -20 -20 -20 -20 -20 -20 -20 -20 -20 -20 -20 -20 -20 -15 -12 -7 -9 -20 -20 1 4 13 -7 -8 -20 -20 -20 -20
-20 -20 -20 -20 -20 -20 -20 -20 -20 -20 -20 -20 -20 -20 -20 -20 -20 -20 -20 -20 -20 -20 -5 -12 -18 -16 -15 -17 -20 -9 -19 -20 -20 -20 -20 -11 -0 -11
-20 -20 -20 -20 -20 -20 -20 -20 -20 -20 -20 -20 -20 -20 -20 -20 -20 -20 -20 -20 -20 -20 -20 -20 -17 -20 -20 -20 -20 -20 -20 -20 -20 -20 -20 -20 -20 7
-20 -20 -20 -20 -20 -20 -20 -20 -20 -20 -20 -20 -20 -20 -20 -20 -20 -20 -20 -20 -20 -20 -20 -20 -20 -20 -20 -20 -20 -20 -20 -20 -20 -20 -20 -20 -20 -20
-11 -16 -20 -20 -20 -20 -20 -20 -20 -20 -20 -20 -20 -20 -20 -20 -20 -20 -20 -20 -20 -20 -20 -20 -20 -20 -20 -20 -20 -20 -20 -20 -20 -20 -20 -20 -20 -20
4 -5 -14 -20 -20 -20 -20 -20 -20 -20 -20 -20 -20 -20 -20 -20 -20 -20 -20 -20 -20 -20 -20 -20 -20 -20 -20 -20 -20 -20 -20 -20 -20 -20 -20 -20 -20 -20
32 21 -8 -15 -18 -5 1 -11 -20 -20 -20 -20 -20 -20 -20 -20 -20 -20 -20 -20 -20 -20 -20 -20 -20 -20 -20 -20 -20 -20 -20 -20 -20 -20 -20 -20 -20 -20
37 35 32 32 31 38 37 26 -20 -20 -20 -20 -20 -20 -20 -20 -20 -20 -20 -20 -20 -20 -20 -20 -20 -20 -20 -20 -20 -20 -20 -20 -20 -20 -20 -20 -20 -20
33 29 31 32 38 37 33 25 -14 -20 -20 -20 -20 -19 -20 -20 -20 -20 -20 -20 -20 -20 -20 -20 -20 -20 -20 -20 -20 -20 -20 -20 -20 -20 -20 -20 -20 -20
31 34 32 33 35 38 33 28 -18 -20 -20 -20 -20 -20 -20 -20 -20 -20 -20 -20 -20 -20 -20 -20 -20 -20 -20 -20 -20 -20 -20 -20 -20 -20 -20 -20 -20 -20
18 25 27 33 32 34 35 31 17 -2 -20 -20 -20 -20 -20 -20 -20 -20 -20 -20 -20 -20 -20 -20 -20 -20 -20 -20 -20 -20 -20 -20 -20 -20 -20 -20 -20 -20
23 26 33 34 34 35 33 31 25 13 -6 -17 -18 -20 -20 -20 -20 -20 -20 -20 -20 -20 -20 -20 -20 -20 -20 -20 -20 -20 -20 -20 -20 -20 -20 -20 -20 -20

GFSNE_prec_radar_126.txt.gz
Reflectivity
-20 1 -20 -18 0 -14 -15 -20 -20 -20 -20 -20 -20 -20 -20 -20 -20 -20 -20 -5 8 14 8 -20 -13 6 4 -8 -20 -20 -20 -20 -20 -0 -20 -20 -5 -20
20 -1 -3 9 21 19 -11 -20 -20 -20 -20 -20 -20 -20 -20 -20 -20 -20 -14 9 -4 5 -6 -20 3 -15 1 -20 -5 -20 -20 -20 -14 -17 -20 -20 -20 -10
-8 -4 -5 9 23 9 -8 -20 -20 -20 -20 -20 -20 -20 -20 -20 -20 -20 -20 -20 -15 -2 1 -7 5 -20 -20 -20 -20 -20 5 -20 -13 -20 -17 11 21 9
-17 8 19 3 16 22 17 -17 -20 -20 -20 -20 -20 -20 -20 -20 -20 -20 -20 -20 -20 -20 -1 -8 4 -9 -20 -20 -20 -20 -20 -20 -10 -16 -17 4 21 13
9 6 17 7 17 26 19 -19 -20 -20 -20 -20 -20 -20 -20 -20 -20 -20 -20 -20 -20 -20 -20 9 10 -4 -20 -20 -20 -20 -20 -19 -9 4 -20 2 32 16
1 4 9 10 14 27 25 9 -8 -8 -20 -20 -20 -20 -20 -20 -20 -20 -20 -20 -20 -20 -20 -20 -20 -19 4 4 7 -17 -20 -20 -20 10 9 -20 18 26
-10 -18 11 18 22 26 28 12 -3 -18 -20 -20 -20 -20 -20 -20 -20 -20 -20 -20 -20 -20 -20 -20 -20 -20 -15 8 10 -18 -13 -5 -5 -12 -5 -20 -17 -11
34 32 33 34 24 23 12 -18 -20 -20 -20 -20 -20 -20 -20 -20 -20 -20 -20 -20 -20 -20 -20 -20 -20 -20 -20 -20 13 5 15 -17 -18 -20 -20 -20 9 11
32 32 32 37 10 -11 -19 -20 -20 -20 -20 -20 -20 -20 -20 -20 -20 -20 -20 -20 -20 -20 -20 -20 -20 -20 -20 3 5 10 -5 -12 -19 -20 -11 -17 12 14
26 36 33 32 12 19 -13 -20 -20 -20 -20 -20 -20 -20 -20 -20 -20 -20 -20 -20 -20 -20 -20 -20 -20 -20 -20 -14 4 3 -10 -17 -2 -7 6 8 -7 13
33 20 2 -18 -14 -6 -20 -16 -20 -20 -20 -20 -20 -20 -20 -20 -20 -20 -20 -20 -20 -20 -20 -20 -20 -20 -20 -20 -16 7 -12 -17 -16 4 9 7 -2 4
29 -0 26 26 2 -15 14 -2 -20 -20 -20 -20 -20 -20 -20 -20 -20 -20 -20 -20 -20 -20 -20 -20 -20 -20 -14 -20 -20 -18 -4 5 1 4 9 -14 4 -12
33 22 27 30 28 6 3 -20 -20 -20 -20 -20 -20 -19 -20 -20 -20 -20 -20 -20 -20 -20 -20 -20 -20 -20 -12 -17 -19 -20 -20 -10 -12 -17 1 8 -7 -20
18 24 15 -4 7 -11 -20 -13 -20 -20 -20 -20 -20 -20 -20 -20 -20 -20 -20 -20 -20 -20 -20 -20 -20 -20 -20 -20 -18 -18 -20 -20 -20 -20 -20 -20 -11 -13
33 31 35 25 1 3 6 5 -17 -20 -20 -20 -20 -20 -20 -20 -20 -20 -20 -20 -20 -20 -20 -20 -20 -20 -20 -20 -20 -20 -20 -20 -20 -20 -20 -20 -20 -20
11 13 14 13 9 1 -4 -9 -18 -20 -20 -20 -20 -20 -20 -20 -20 -20 -20 -20 -20 -20 -20 -20 -20 -20 -20 -20 -20 -20 -20 -20 -20 -20 -20 -20 -20 -20
9 9 10 4 -5 -1 6 -10 -19 -20 -20 -20 -20 -20 -20 -20 -20 -20 -20 -20 -20 -20 -20 -20 -20 -20 -20 -20 -20 -20 -20 -20 -20 -20 -20 -20 -20 -20
21 21 28 30 27 21 21 33 33 18 -2 -11 -14 -16 -20 -20 -20 -20 -20 -20 -20 -20 -20 -20 -20 -20 -20 -20 -20 -20 -20 -20 -20 -20 -20 -20 -20 -20
12 32 32 34 34 35 34 35 36 33 33 31 14 -16 -20 -20 -20 -20 -20 -20 -20 -20 -20 -20 -20 -20 -20 -20 -20 -20 -20 -20 -20 -20 -20 -20 -20 -20
27 28 21 18 19 26 32 34 33 29 30 30 14 8 -19 -20 -20 -20 -20 -20 -20 -20 -20 -20 -20 -20 -20 -20 -20 -20 -20 -20 -20 -20 -20 -20 -20 -18
-2 4 22 25 25 21 14 26 32 31 32 31 15 14 -4 -20 -20 -20 -20 -20 -20 -20 -20 -20 -20 -20 -20 -20 -20 -20 -20 -20 -20 -20 -20 -20 -20 -20
20 3 -10 9 26 28 26 20 28 28 28 26 26 22 14 -9 -3 -20 -20 -20 -20 -20 -20 -20 -20 -20 -20 -20 -20 -20 -20 -20 -20 -20 -20 -20 -20 -20
-2 1 5 3 18 26 29 31 28 24 27 30 30 27 13 12 8 0 -19 -20 -20 -20 -20 -20 -20 -20 -20 -20 -20 -20 -20 -20 -20 -20 -20 -20 -20 -20